<?xml version="1.0" encoding="UTF-8" standalone="no" ?>
<gpx xmlns="http://www.topografix.com/GPX/1/1" xmlns:xsi="http://www.w3.org/2001/XMLSchema-instance" xsi:schemaLocation="http://www.topografix.com/GPX/1/1 http://www.topografix.com/GPX/1/1/gpx.xsd" version="1.1" creator="VisuGPX - https://www.visugpx.com">
  <metadata>
    <name>De grigny à Montagny</name>
    <desc><![CDATA[Petit parcours accidenté avec des belles descentes]]></desc>
  </metadata>
  <trk>
    <name><![CDATA[28/09/2012 12:15 CT]]></name>
    <desc><![CDATA[]]></desc>
    <trkseg>
      <trkpt lat="45.60596" lon="4.79121">
        <ele>159</ele>
        <time>2012-09-28T10:15:55.832Z</time>
      </trkpt>
      <trkpt lat="45.60565" lon="4.79131">
        <ele>161</ele>
        <time>2012-09-28T10:15:57.832Z</time>
      </trkpt>
      <trkpt lat="45.6056" lon="4.79131">
        <ele>161</ele>
        <time>2012-09-28T10:16:01.832Z</time>
      </trkpt>
      <trkpt lat="45.60555" lon="4.7913">
        <ele>161</ele>
        <time>2012-09-28T10:17:37.241Z</time>
      </trkpt>
      <trkpt lat="45.60552" lon="4.79135">
        <ele>161</ele>
        <time>2012-09-28T10:18:17.241Z</time>
      </trkpt>
      <trkpt lat="45.60557" lon="4.79136">
        <ele>161</ele>
        <time>2012-09-28T10:18:25.241Z</time>
      </trkpt>
      <trkpt lat="45.60562" lon="4.7914">
        <ele>161</ele>
        <time>2012-09-28T10:18:30.241Z</time>
      </trkpt>
      <trkpt lat="45.6056" lon="4.79147">
        <ele>161</ele>
        <time>2012-09-28T10:18:34.241Z</time>
      </trkpt>
      <trkpt lat="45.60556" lon="4.79147">
        <ele>161</ele>
        <time>2012-09-28T10:18:37.241Z</time>
      </trkpt>
      <trkpt lat="45.6055" lon="4.79146">
        <ele>161</ele>
        <time>2012-09-28T10:18:41.241Z</time>
      </trkpt>
      <trkpt lat="45.60546" lon="4.79149">
        <ele>161</ele>
        <time>2012-09-28T10:19:18.241Z</time>
      </trkpt>
      <trkpt lat="45.60543" lon="4.79158">
        <ele>161</ele>
        <time>2012-09-28T10:19:21.241Z</time>
      </trkpt>
      <trkpt lat="45.60545" lon="4.79166">
        <ele>161</ele>
        <time>2012-09-28T10:19:23.241Z</time>
      </trkpt>
      <trkpt lat="45.60548" lon="4.79175">
        <ele>160</ele>
        <time>2012-09-28T10:19:25.241Z</time>
      </trkpt>
      <trkpt lat="45.60546" lon="4.79185">
        <ele>160</ele>
        <time>2012-09-28T10:19:27.241Z</time>
      </trkpt>
      <trkpt lat="45.60542" lon="4.79194">
        <ele>160</ele>
        <time>2012-09-28T10:19:29.241Z</time>
      </trkpt>
      <trkpt lat="45.60538" lon="4.79201">
        <ele>160</ele>
        <time>2012-09-28T10:19:31.241Z</time>
      </trkpt>
      <trkpt lat="45.60533" lon="4.79208">
        <ele>160</ele>
        <time>2012-09-28T10:19:33.241Z</time>
      </trkpt>
      <trkpt lat="45.60528" lon="4.79214">
        <ele>160</ele>
        <time>2012-09-28T10:19:35.241Z</time>
      </trkpt>
      <trkpt lat="45.60523" lon="4.79215">
        <ele>160</ele>
        <time>2012-09-28T10:19:37.241Z</time>
      </trkpt>
      <trkpt lat="45.60517" lon="4.79214">
        <ele>160</ele>
        <time>2012-09-28T10:19:39.241Z</time>
      </trkpt>
      <trkpt lat="45.60512" lon="4.79209">
        <ele>160</ele>
        <time>2012-09-28T10:19:41.241Z</time>
      </trkpt>
      <trkpt lat="45.60511" lon="4.79199">
        <ele>160</ele>
        <time>2012-09-28T10:19:43.241Z</time>
      </trkpt>
      <trkpt lat="45.6051" lon="4.79189">
        <ele>161</ele>
        <time>2012-09-28T10:19:45.241Z</time>
      </trkpt>
      <trkpt lat="45.60509" lon="4.7918">
        <ele>161</ele>
        <time>2012-09-28T10:19:47.241Z</time>
      </trkpt>
      <trkpt lat="45.60508" lon="4.79171">
        <ele>161</ele>
        <time>2012-09-28T10:19:49.241Z</time>
      </trkpt>
      <trkpt lat="45.60508" lon="4.79162">
        <ele>162</ele>
        <time>2012-09-28T10:19:51.241Z</time>
      </trkpt>
      <trkpt lat="45.60507" lon="4.79153">
        <ele>162</ele>
        <time>2012-09-28T10:19:53.241Z</time>
      </trkpt>
      <trkpt lat="45.60506" lon="4.79144">
        <ele>161</ele>
        <time>2012-09-28T10:19:55.241Z</time>
      </trkpt>
      <trkpt lat="45.60506" lon="4.79136">
        <ele>161</ele>
        <time>2012-09-28T10:19:57.241Z</time>
      </trkpt>
      <trkpt lat="45.60505" lon="4.79129">
        <ele>161</ele>
        <time>2012-09-28T10:19:59.241Z</time>
      </trkpt>
      <trkpt lat="45.60505" lon="4.7912">
        <ele>161</ele>
        <time>2012-09-28T10:20:02.241Z</time>
      </trkpt>
      <trkpt lat="45.60506" lon="4.79114">
        <ele>161</ele>
        <time>2012-09-28T10:20:04.241Z</time>
      </trkpt>
      <trkpt lat="45.6051" lon="4.79104">
        <ele>161</ele>
        <time>2012-09-28T10:20:06.241Z</time>
      </trkpt>
      <trkpt lat="45.60514" lon="4.79099">
        <ele>161</ele>
        <time>2012-09-28T10:20:07.241Z</time>
      </trkpt>
      <trkpt lat="45.60518" lon="4.79094">
        <ele>161</ele>
        <time>2012-09-28T10:20:08.241Z</time>
      </trkpt>
      <trkpt lat="45.60522" lon="4.79088">
        <ele>161</ele>
        <time>2012-09-28T10:20:09.241Z</time>
      </trkpt>
      <trkpt lat="45.60526" lon="4.7908">
        <ele>161</ele>
        <time>2012-09-28T10:20:10.241Z</time>
      </trkpt>
      <trkpt lat="45.60613" lon="4.7889">
        <ele>166</ele>
        <time>2012-09-28T10:20:41.121Z</time>
      </trkpt>
      <trkpt lat="45.60611" lon="4.78882">
        <ele>166</ele>
        <time>2012-09-28T10:20:42.121Z</time>
      </trkpt>
      <trkpt lat="45.60607" lon="4.78874">
        <ele>166</ele>
        <time>2012-09-28T10:20:43.121Z</time>
      </trkpt>
      <trkpt lat="45.60605" lon="4.78866">
        <ele>166</ele>
        <time>2012-09-28T10:20:44.121Z</time>
      </trkpt>
      <trkpt lat="45.60603" lon="4.78859">
        <ele>166</ele>
        <time>2012-09-28T10:20:45.121Z</time>
      </trkpt>
      <trkpt lat="45.60601" lon="4.78851">
        <ele>166</ele>
        <time>2012-09-28T10:20:46.121Z</time>
      </trkpt>
      <trkpt lat="45.60598" lon="4.78844">
        <ele>165</ele>
        <time>2012-09-28T10:20:47.121Z</time>
      </trkpt>
      <trkpt lat="45.60596" lon="4.78836">
        <ele>165</ele>
        <time>2012-09-28T10:20:48.121Z</time>
      </trkpt>
      <trkpt lat="45.60595" lon="4.78829">
        <ele>167</ele>
        <time>2012-09-28T10:20:49.121Z</time>
      </trkpt>
      <trkpt lat="45.60593" lon="4.78822">
        <ele>168</ele>
        <time>2012-09-28T10:20:50.121Z</time>
      </trkpt>
      <trkpt lat="45.60591" lon="4.78816">
        <ele>168</ele>
        <time>2012-09-28T10:20:51.121Z</time>
      </trkpt>
      <trkpt lat="45.60589" lon="4.78808">
        <ele>170</ele>
        <time>2012-09-28T10:20:52.121Z</time>
      </trkpt>
      <trkpt lat="45.60587" lon="4.78801">
        <ele>171</ele>
        <time>2012-09-28T10:20:53.121Z</time>
      </trkpt>
      <trkpt lat="45.60586" lon="4.78794">
        <ele>171</ele>
        <time>2012-09-28T10:20:54.121Z</time>
      </trkpt>
      <trkpt lat="45.60583" lon="4.78787">
        <ele>164</ele>
        <time>2012-09-28T10:20:55.121Z</time>
      </trkpt>
      <trkpt lat="45.60581" lon="4.7878">
        <ele>165</ele>
        <time>2012-09-28T10:20:56.121Z</time>
      </trkpt>
      <trkpt lat="45.6058" lon="4.78773">
        <ele>166</ele>
        <time>2012-09-28T10:20:57.121Z</time>
      </trkpt>
      <trkpt lat="45.60578" lon="4.78766">
        <ele>167</ele>
        <time>2012-09-28T10:20:58.121Z</time>
      </trkpt>
      <trkpt lat="45.60576" lon="4.78759">
        <ele>168</ele>
        <time>2012-09-28T10:20:59.121Z</time>
      </trkpt>
      <trkpt lat="45.60574" lon="4.78753">
        <ele>168</ele>
        <time>2012-09-28T10:21:00.121Z</time>
      </trkpt>
      <trkpt lat="45.60573" lon="4.78746">
        <ele>170</ele>
        <time>2012-09-28T10:21:01.121Z</time>
      </trkpt>
      <trkpt lat="45.60571" lon="4.7874">
        <ele>169</ele>
        <time>2012-09-28T10:21:02.121Z</time>
      </trkpt>
      <trkpt lat="45.60569" lon="4.78733">
        <ele>169</ele>
        <time>2012-09-28T10:21:03.121Z</time>
      </trkpt>
      <trkpt lat="45.60567" lon="4.78726">
        <ele>169</ele>
        <time>2012-09-28T10:21:04.121Z</time>
      </trkpt>
      <trkpt lat="45.60566" lon="4.7872">
        <ele>168</ele>
        <time>2012-09-28T10:21:05.121Z</time>
      </trkpt>
      <trkpt lat="45.60564" lon="4.78713">
        <ele>168</ele>
        <time>2012-09-28T10:21:06.121Z</time>
      </trkpt>
      <trkpt lat="45.60562" lon="4.78706">
        <ele>169</ele>
        <time>2012-09-28T10:21:07.121Z</time>
      </trkpt>
      <trkpt lat="45.6056" lon="4.787">
        <ele>169</ele>
        <time>2012-09-28T10:21:08.121Z</time>
      </trkpt>
      <trkpt lat="45.60559" lon="4.78692">
        <ele>169</ele>
        <time>2012-09-28T10:21:09.121Z</time>
      </trkpt>
      <trkpt lat="45.60555" lon="4.78679">
        <ele>169</ele>
        <time>2012-09-28T10:21:11.089Z</time>
      </trkpt>
      <trkpt lat="45.60552" lon="4.78663">
        <ele>171</ele>
        <time>2012-09-28T10:21:13.089Z</time>
      </trkpt>
      <trkpt lat="45.60551" lon="4.78657">
        <ele>171</ele>
        <time>2012-09-28T10:21:14.089Z</time>
      </trkpt>
      <trkpt lat="45.60547" lon="4.78645">
        <ele>170</ele>
        <time>2012-09-28T10:21:16.089Z</time>
      </trkpt>
      <trkpt lat="45.60545" lon="4.78639">
        <ele>170</ele>
        <time>2012-09-28T10:21:17.089Z</time>
      </trkpt>
      <trkpt lat="45.60544" lon="4.78632">
        <ele>169</ele>
        <time>2012-09-28T10:21:18.089Z</time>
      </trkpt>
      <trkpt lat="45.60542" lon="4.78626">
        <ele>169</ele>
        <time>2012-09-28T10:21:19.089Z</time>
      </trkpt>
      <trkpt lat="45.60541" lon="4.78619">
        <ele>169</ele>
        <time>2012-09-28T10:21:20.089Z</time>
      </trkpt>
      <trkpt lat="45.60539" lon="4.78612">
        <ele>169</ele>
        <time>2012-09-28T10:21:21.089Z</time>
      </trkpt>
      <trkpt lat="45.60538" lon="4.78605">
        <ele>169</ele>
        <time>2012-09-28T10:21:22.089Z</time>
      </trkpt>
      <trkpt lat="45.60537" lon="4.78598">
        <ele>169</ele>
        <time>2012-09-28T10:21:23.089Z</time>
      </trkpt>
      <trkpt lat="45.60536" lon="4.78592">
        <ele>169</ele>
        <time>2012-09-28T10:21:24.089Z</time>
      </trkpt>
      <trkpt lat="45.60534" lon="4.78585">
        <ele>169</ele>
        <time>2012-09-28T10:21:25.089Z</time>
      </trkpt>
      <trkpt lat="45.60532" lon="4.78578">
        <ele>169</ele>
        <time>2012-09-28T10:21:26.089Z</time>
      </trkpt>
      <trkpt lat="45.60531" lon="4.7857">
        <ele>169</ele>
        <time>2012-09-28T10:21:27.089Z</time>
      </trkpt>
      <trkpt lat="45.60529" lon="4.78562">
        <ele>169</ele>
        <time>2012-09-28T10:21:28.089Z</time>
      </trkpt>
      <trkpt lat="45.60528" lon="4.78556">
        <ele>169</ele>
        <time>2012-09-28T10:21:29.089Z</time>
      </trkpt>
      <trkpt lat="45.60526" lon="4.78548">
        <ele>169</ele>
        <time>2012-09-28T10:21:30.089Z</time>
      </trkpt>
      <trkpt lat="45.60524" lon="4.78541">
        <ele>169</ele>
        <time>2012-09-28T10:21:31.089Z</time>
      </trkpt>
      <trkpt lat="45.60522" lon="4.78534">
        <ele>169</ele>
        <time>2012-09-28T10:21:32.089Z</time>
      </trkpt>
      <trkpt lat="45.60521" lon="4.78526">
        <ele>169</ele>
        <time>2012-09-28T10:21:33.089Z</time>
      </trkpt>
      <trkpt lat="45.60519" lon="4.78519">
        <ele>169</ele>
        <time>2012-09-28T10:21:34.089Z</time>
      </trkpt>
      <trkpt lat="45.60518" lon="4.78511">
        <ele>169</ele>
        <time>2012-09-28T10:21:35.089Z</time>
      </trkpt>
      <trkpt lat="45.60516" lon="4.78504">
        <ele>168</ele>
        <time>2012-09-28T10:21:36.089Z</time>
      </trkpt>
      <trkpt lat="45.60514" lon="4.78496">
        <ele>168</ele>
        <time>2012-09-28T10:21:37.089Z</time>
      </trkpt>
      <trkpt lat="45.60512" lon="4.78487">
        <ele>169</ele>
        <time>2012-09-28T10:21:38.089Z</time>
      </trkpt>
      <trkpt lat="45.60509" lon="4.78478">
        <ele>169</ele>
        <time>2012-09-28T10:21:39.089Z</time>
      </trkpt>
      <trkpt lat="45.60506" lon="4.7847">
        <ele>169</ele>
        <time>2012-09-28T10:21:40.089Z</time>
      </trkpt>
      <trkpt lat="45.60503" lon="4.78461">
        <ele>169</ele>
        <time>2012-09-28T10:21:41.089Z</time>
      </trkpt>
      <trkpt lat="45.605" lon="4.78452">
        <ele>163</ele>
        <time>2012-09-28T10:21:42.089Z</time>
      </trkpt>
      <trkpt lat="45.60497" lon="4.78443">
        <ele>164</ele>
        <time>2012-09-28T10:21:43.089Z</time>
      </trkpt>
      <trkpt lat="45.60493" lon="4.78432">
        <ele>164</ele>
        <time>2012-09-28T10:21:44.089Z</time>
      </trkpt>
      <trkpt lat="45.6049" lon="4.78423">
        <ele>164</ele>
        <time>2012-09-28T10:21:45.089Z</time>
      </trkpt>
      <trkpt lat="45.60487" lon="4.78412">
        <ele>164</ele>
        <time>2012-09-28T10:21:46.089Z</time>
      </trkpt>
      <trkpt lat="45.60483" lon="4.78402">
        <ele>163</ele>
        <time>2012-09-28T10:21:47.089Z</time>
      </trkpt>
      <trkpt lat="45.6048" lon="4.78391">
        <ele>163</ele>
        <time>2012-09-28T10:21:48.089Z</time>
      </trkpt>
      <trkpt lat="45.60477" lon="4.7838">
        <ele>163</ele>
        <time>2012-09-28T10:21:49.089Z</time>
      </trkpt>
      <trkpt lat="45.60474" lon="4.7837">
        <ele>163</ele>
        <time>2012-09-28T10:21:50.089Z</time>
      </trkpt>
      <trkpt lat="45.60472" lon="4.78359">
        <ele>163</ele>
        <time>2012-09-28T10:21:51.089Z</time>
      </trkpt>
      <trkpt lat="45.60469" lon="4.78349">
        <ele>163</ele>
        <time>2012-09-28T10:21:52.089Z</time>
      </trkpt>
      <trkpt lat="45.60467" lon="4.78339">
        <ele>163</ele>
        <time>2012-09-28T10:21:53.089Z</time>
      </trkpt>
      <trkpt lat="45.60465" lon="4.7833">
        <ele>163</ele>
        <time>2012-09-28T10:21:54.089Z</time>
      </trkpt>
      <trkpt lat="45.60463" lon="4.7832">
        <ele>163</ele>
        <time>2012-09-28T10:21:55.089Z</time>
      </trkpt>
      <trkpt lat="45.60462" lon="4.78311">
        <ele>163</ele>
        <time>2012-09-28T10:21:56.089Z</time>
      </trkpt>
      <trkpt lat="45.60461" lon="4.78304">
        <ele>163</ele>
        <time>2012-09-28T10:21:57.089Z</time>
      </trkpt>
      <trkpt lat="45.6046" lon="4.78293">
        <ele>163</ele>
        <time>2012-09-28T10:21:59.089Z</time>
      </trkpt>
      <trkpt lat="45.60459" lon="4.78285">
        <ele>163</ele>
        <time>2012-09-28T10:22:01.089Z</time>
      </trkpt>
      <trkpt lat="45.60459" lon="4.78278">
        <ele>163</ele>
        <time>2012-09-28T10:22:04.089Z</time>
      </trkpt>
      <trkpt lat="45.60458" lon="4.78268">
        <ele>163</ele>
        <time>2012-09-28T10:22:09.089Z</time>
      </trkpt>
      <trkpt lat="45.60458" lon="4.78259">
        <ele>163</ele>
        <time>2012-09-28T10:22:11.066Z</time>
      </trkpt>
      <trkpt lat="45.60457" lon="4.78245">
        <ele>164</ele>
        <time>2012-09-28T10:22:13.066Z</time>
      </trkpt>
      <trkpt lat="45.60457" lon="4.78238">
        <ele>164</ele>
        <time>2012-09-28T10:22:14.066Z</time>
      </trkpt>
      <trkpt lat="45.60457" lon="4.78231">
        <ele>164</ele>
        <time>2012-09-28T10:22:15.066Z</time>
      </trkpt>
      <trkpt lat="45.60458" lon="4.78223">
        <ele>164</ele>
        <time>2012-09-28T10:22:16.066Z</time>
      </trkpt>
      <trkpt lat="45.60458" lon="4.78216">
        <ele>164</ele>
        <time>2012-09-28T10:22:17.066Z</time>
      </trkpt>
      <trkpt lat="45.60458" lon="4.78208">
        <ele>164</ele>
        <time>2012-09-28T10:22:18.066Z</time>
      </trkpt>
      <trkpt lat="45.60458" lon="4.782">
        <ele>164</ele>
        <time>2012-09-28T10:22:19.066Z</time>
      </trkpt>
      <trkpt lat="45.6046" lon="4.78192">
        <ele>164</ele>
        <time>2012-09-28T10:22:20.066Z</time>
      </trkpt>
      <trkpt lat="45.60461" lon="4.78184">
        <ele>164</ele>
        <time>2012-09-28T10:22:21.066Z</time>
      </trkpt>
      <trkpt lat="45.60462" lon="4.78176">
        <ele>164</ele>
        <time>2012-09-28T10:22:22.066Z</time>
      </trkpt>
      <trkpt lat="45.60464" lon="4.78169">
        <ele>165</ele>
        <time>2012-09-28T10:22:23.066Z</time>
      </trkpt>
      <trkpt lat="45.60465" lon="4.78161">
        <ele>165</ele>
        <time>2012-09-28T10:22:24.066Z</time>
      </trkpt>
      <trkpt lat="45.60466" lon="4.78153">
        <ele>165</ele>
        <time>2012-09-28T10:22:25.066Z</time>
      </trkpt>
      <trkpt lat="45.60468" lon="4.78145">
        <ele>165</ele>
        <time>2012-09-28T10:22:26.066Z</time>
      </trkpt>
      <trkpt lat="45.6047" lon="4.78138">
        <ele>165</ele>
        <time>2012-09-28T10:22:27.066Z</time>
      </trkpt>
      <trkpt lat="45.60471" lon="4.7813">
        <ele>165</ele>
        <time>2012-09-28T10:22:28.066Z</time>
      </trkpt>
      <trkpt lat="45.60473" lon="4.78122">
        <ele>165</ele>
        <time>2012-09-28T10:22:29.066Z</time>
      </trkpt>
      <trkpt lat="45.60475" lon="4.78113">
        <ele>165</ele>
        <time>2012-09-28T10:22:30.066Z</time>
      </trkpt>
      <trkpt lat="45.60477" lon="4.78105">
        <ele>165</ele>
        <time>2012-09-28T10:22:31.066Z</time>
      </trkpt>
      <trkpt lat="45.60479" lon="4.78097">
        <ele>165</ele>
        <time>2012-09-28T10:22:32.066Z</time>
      </trkpt>
      <trkpt lat="45.60481" lon="4.7809">
        <ele>165</ele>
        <time>2012-09-28T10:22:33.066Z</time>
      </trkpt>
      <trkpt lat="45.60483" lon="4.78082">
        <ele>165</ele>
        <time>2012-09-28T10:22:34.066Z</time>
      </trkpt>
      <trkpt lat="45.60485" lon="4.78074">
        <ele>165</ele>
        <time>2012-09-28T10:22:35.066Z</time>
      </trkpt>
      <trkpt lat="45.60487" lon="4.78066">
        <ele>165</ele>
        <time>2012-09-28T10:22:36.066Z</time>
      </trkpt>
      <trkpt lat="45.60489" lon="4.78058">
        <ele>165</ele>
        <time>2012-09-28T10:22:37.066Z</time>
      </trkpt>
      <trkpt lat="45.60491" lon="4.7805">
        <ele>164</ele>
        <time>2012-09-28T10:22:38.066Z</time>
      </trkpt>
      <trkpt lat="45.60493" lon="4.78042">
        <ele>164</ele>
        <time>2012-09-28T10:22:39.066Z</time>
      </trkpt>
      <trkpt lat="45.60495" lon="4.78033">
        <ele>164</ele>
        <time>2012-09-28T10:22:40.066Z</time>
      </trkpt>
      <trkpt lat="45.60496" lon="4.78025">
        <ele>163</ele>
        <time>2012-09-28T10:22:41.066Z</time>
      </trkpt>
      <trkpt lat="45.60499" lon="4.78017">
        <ele>163</ele>
        <time>2012-09-28T10:22:42.066Z</time>
      </trkpt>
      <trkpt lat="45.60501" lon="4.78009">
        <ele>163</ele>
        <time>2012-09-28T10:22:43.066Z</time>
      </trkpt>
      <trkpt lat="45.60503" lon="4.78">
        <ele>162</ele>
        <time>2012-09-28T10:22:44.066Z</time>
      </trkpt>
      <trkpt lat="45.60505" lon="4.77993">
        <ele>162</ele>
        <time>2012-09-28T10:22:45.066Z</time>
      </trkpt>
      <trkpt lat="45.60507" lon="4.77984">
        <ele>162</ele>
        <time>2012-09-28T10:22:46.066Z</time>
      </trkpt>
      <trkpt lat="45.60509" lon="4.77976">
        <ele>162</ele>
        <time>2012-09-28T10:22:47.066Z</time>
      </trkpt>
      <trkpt lat="45.6051" lon="4.77968">
        <ele>162</ele>
        <time>2012-09-28T10:22:48.066Z</time>
      </trkpt>
      <trkpt lat="45.60512" lon="4.77961">
        <ele>162</ele>
        <time>2012-09-28T10:22:49.066Z</time>
      </trkpt>
      <trkpt lat="45.60514" lon="4.77953">
        <ele>162</ele>
        <time>2012-09-28T10:22:50.066Z</time>
      </trkpt>
      <trkpt lat="45.60516" lon="4.77946">
        <ele>162</ele>
        <time>2012-09-28T10:22:51.066Z</time>
      </trkpt>
      <trkpt lat="45.60518" lon="4.77938">
        <ele>162</ele>
        <time>2012-09-28T10:22:52.066Z</time>
      </trkpt>
      <trkpt lat="45.6052" lon="4.7793">
        <ele>162</ele>
        <time>2012-09-28T10:22:53.066Z</time>
      </trkpt>
      <trkpt lat="45.60522" lon="4.77922">
        <ele>162</ele>
        <time>2012-09-28T10:22:54.066Z</time>
      </trkpt>
      <trkpt lat="45.60525" lon="4.77914">
        <ele>161</ele>
        <time>2012-09-28T10:22:55.066Z</time>
      </trkpt>
      <trkpt lat="45.60528" lon="4.77906">
        <ele>161</ele>
        <time>2012-09-28T10:22:56.066Z</time>
      </trkpt>
      <trkpt lat="45.6053" lon="4.77898">
        <ele>161</ele>
        <time>2012-09-28T10:22:57.066Z</time>
      </trkpt>
      <trkpt lat="45.60533" lon="4.7789">
        <ele>161</ele>
        <time>2012-09-28T10:22:58.066Z</time>
      </trkpt>
      <trkpt lat="45.60536" lon="4.77882">
        <ele>161</ele>
        <time>2012-09-28T10:22:59.066Z</time>
      </trkpt>
      <trkpt lat="45.60538" lon="4.77874">
        <ele>161</ele>
        <time>2012-09-28T10:23:00.066Z</time>
      </trkpt>
      <trkpt lat="45.60541" lon="4.77867">
        <ele>161</ele>
        <time>2012-09-28T10:23:01.066Z</time>
      </trkpt>
      <trkpt lat="45.60544" lon="4.77859">
        <ele>161</ele>
        <time>2012-09-28T10:23:02.066Z</time>
      </trkpt>
      <trkpt lat="45.60548" lon="4.77851">
        <ele>161</ele>
        <time>2012-09-28T10:23:03.066Z</time>
      </trkpt>
      <trkpt lat="45.60551" lon="4.77843">
        <ele>161</ele>
        <time>2012-09-28T10:23:04.066Z</time>
      </trkpt>
      <trkpt lat="45.60554" lon="4.77836">
        <ele>161</ele>
        <time>2012-09-28T10:23:05.066Z</time>
      </trkpt>
      <trkpt lat="45.60557" lon="4.77828">
        <ele>161</ele>
        <time>2012-09-28T10:23:06.066Z</time>
      </trkpt>
      <trkpt lat="45.6056" lon="4.77821">
        <ele>161</ele>
        <time>2012-09-28T10:23:07.066Z</time>
      </trkpt>
      <trkpt lat="45.60563" lon="4.77814">
        <ele>161</ele>
        <time>2012-09-28T10:23:08.066Z</time>
      </trkpt>
      <trkpt lat="45.60566" lon="4.77807">
        <ele>161</ele>
        <time>2012-09-28T10:23:09.066Z</time>
      </trkpt>
      <trkpt lat="45.60573" lon="4.77794">
        <ele>161</ele>
        <time>2012-09-28T10:23:11.059Z</time>
      </trkpt>
      <trkpt lat="45.60576" lon="4.77788">
        <ele>161</ele>
        <time>2012-09-28T10:23:12.059Z</time>
      </trkpt>
      <trkpt lat="45.60579" lon="4.77781">
        <ele>161</ele>
        <time>2012-09-28T10:23:13.059Z</time>
      </trkpt>
      <trkpt lat="45.60582" lon="4.77774">
        <ele>161</ele>
        <time>2012-09-28T10:23:14.059Z</time>
      </trkpt>
      <trkpt lat="45.60585" lon="4.77766">
        <ele>161</ele>
        <time>2012-09-28T10:23:15.059Z</time>
      </trkpt>
      <trkpt lat="45.60588" lon="4.7776">
        <ele>160</ele>
        <time>2012-09-28T10:23:16.059Z</time>
      </trkpt>
      <trkpt lat="45.6059" lon="4.77753">
        <ele>160</ele>
        <time>2012-09-28T10:23:17.059Z</time>
      </trkpt>
      <trkpt lat="45.60593" lon="4.77746">
        <ele>160</ele>
        <time>2012-09-28T10:23:18.059Z</time>
      </trkpt>
      <trkpt lat="45.60596" lon="4.77739">
        <ele>161</ele>
        <time>2012-09-28T10:23:19.059Z</time>
      </trkpt>
      <trkpt lat="45.60599" lon="4.77732">
        <ele>161</ele>
        <time>2012-09-28T10:23:20.059Z</time>
      </trkpt>
      <trkpt lat="45.60602" lon="4.77726">
        <ele>161</ele>
        <time>2012-09-28T10:23:21.059Z</time>
      </trkpt>
      <trkpt lat="45.60604" lon="4.7772">
        <ele>161</ele>
        <time>2012-09-28T10:23:22.059Z</time>
      </trkpt>
      <trkpt lat="45.60607" lon="4.77713">
        <ele>161</ele>
        <time>2012-09-28T10:23:23.059Z</time>
      </trkpt>
      <trkpt lat="45.6061" lon="4.77707">
        <ele>161</ele>
        <time>2012-09-28T10:23:24.059Z</time>
      </trkpt>
      <trkpt lat="45.60612" lon="4.77701">
        <ele>161</ele>
        <time>2012-09-28T10:23:25.059Z</time>
      </trkpt>
      <trkpt lat="45.60615" lon="4.77695">
        <ele>162</ele>
        <time>2012-09-28T10:23:26.059Z</time>
      </trkpt>
      <trkpt lat="45.60619" lon="4.77689">
        <ele>162</ele>
        <time>2012-09-28T10:23:27.059Z</time>
      </trkpt>
      <trkpt lat="45.60622" lon="4.77682">
        <ele>162</ele>
        <time>2012-09-28T10:23:28.059Z</time>
      </trkpt>
      <trkpt lat="45.60625" lon="4.77676">
        <ele>162</ele>
        <time>2012-09-28T10:23:29.059Z</time>
      </trkpt>
      <trkpt lat="45.60628" lon="4.7767">
        <ele>162</ele>
        <time>2012-09-28T10:23:30.059Z</time>
      </trkpt>
      <trkpt lat="45.60631" lon="4.77664">
        <ele>163</ele>
        <time>2012-09-28T10:23:31.059Z</time>
      </trkpt>
      <trkpt lat="45.60634" lon="4.77658">
        <ele>163</ele>
        <time>2012-09-28T10:23:32.059Z</time>
      </trkpt>
      <trkpt lat="45.60638" lon="4.77652">
        <ele>163</ele>
        <time>2012-09-28T10:23:33.059Z</time>
      </trkpt>
      <trkpt lat="45.6064" lon="4.77646">
        <ele>163</ele>
        <time>2012-09-28T10:23:34.059Z</time>
      </trkpt>
      <trkpt lat="45.60644" lon="4.7764">
        <ele>163</ele>
        <time>2012-09-28T10:23:35.059Z</time>
      </trkpt>
      <trkpt lat="45.60646" lon="4.77633">
        <ele>163</ele>
        <time>2012-09-28T10:23:36.059Z</time>
      </trkpt>
      <trkpt lat="45.6065" lon="4.77627">
        <ele>163</ele>
        <time>2012-09-28T10:23:37.059Z</time>
      </trkpt>
      <trkpt lat="45.60653" lon="4.77621">
        <ele>163</ele>
        <time>2012-09-28T10:23:38.059Z</time>
      </trkpt>
      <trkpt lat="45.60656" lon="4.77614">
        <ele>163</ele>
        <time>2012-09-28T10:23:39.059Z</time>
      </trkpt>
      <trkpt lat="45.60659" lon="4.77608">
        <ele>163</ele>
        <time>2012-09-28T10:23:40.059Z</time>
      </trkpt>
      <trkpt lat="45.60663" lon="4.77602">
        <ele>164</ele>
        <time>2012-09-28T10:23:41.059Z</time>
      </trkpt>
      <trkpt lat="45.60666" lon="4.77595">
        <ele>164</ele>
        <time>2012-09-28T10:23:42.059Z</time>
      </trkpt>
      <trkpt lat="45.60669" lon="4.77589">
        <ele>164</ele>
        <time>2012-09-28T10:23:43.059Z</time>
      </trkpt>
      <trkpt lat="45.60672" lon="4.77583">
        <ele>164</ele>
        <time>2012-09-28T10:23:44.059Z</time>
      </trkpt>
      <trkpt lat="45.60676" lon="4.77577">
        <ele>164</ele>
        <time>2012-09-28T10:23:45.059Z</time>
      </trkpt>
      <trkpt lat="45.60678" lon="4.77571">
        <ele>164</ele>
        <time>2012-09-28T10:23:46.059Z</time>
      </trkpt>
      <trkpt lat="45.60682" lon="4.77564">
        <ele>164</ele>
        <time>2012-09-28T10:23:47.059Z</time>
      </trkpt>
      <trkpt lat="45.60685" lon="4.77558">
        <ele>164</ele>
        <time>2012-09-28T10:23:48.059Z</time>
      </trkpt>
      <trkpt lat="45.60688" lon="4.77552">
        <ele>164</ele>
        <time>2012-09-28T10:23:49.059Z</time>
      </trkpt>
      <trkpt lat="45.60691" lon="4.77546">
        <ele>164</ele>
        <time>2012-09-28T10:23:50.059Z</time>
      </trkpt>
      <trkpt lat="45.60694" lon="4.7754">
        <ele>164</ele>
        <time>2012-09-28T10:23:51.059Z</time>
      </trkpt>
      <trkpt lat="45.60696" lon="4.77535">
        <ele>164</ele>
        <time>2012-09-28T10:23:52.059Z</time>
      </trkpt>
      <trkpt lat="45.60699" lon="4.77529">
        <ele>164</ele>
        <time>2012-09-28T10:23:53.059Z</time>
      </trkpt>
      <trkpt lat="45.60704" lon="4.77519">
        <ele>164</ele>
        <time>2012-09-28T10:23:55.059Z</time>
      </trkpt>
      <trkpt lat="45.60708" lon="4.77509">
        <ele>163</ele>
        <time>2012-09-28T10:23:57.059Z</time>
      </trkpt>
      <trkpt lat="45.60712" lon="4.77498">
        <ele>163</ele>
        <time>2012-09-28T10:23:59.059Z</time>
      </trkpt>
      <trkpt lat="45.60715" lon="4.77487">
        <ele>163</ele>
        <time>2012-09-28T10:24:01.059Z</time>
      </trkpt>
      <trkpt lat="45.60719" lon="4.77477">
        <ele>163</ele>
        <time>2012-09-28T10:24:03.059Z</time>
      </trkpt>
      <trkpt lat="45.60721" lon="4.77467">
        <ele>163</ele>
        <time>2012-09-28T10:24:05.059Z</time>
      </trkpt>
      <trkpt lat="45.60724" lon="4.77457">
        <ele>164</ele>
        <time>2012-09-28T10:24:07.059Z</time>
      </trkpt>
      <trkpt lat="45.60726" lon="4.77448">
        <ele>164</ele>
        <time>2012-09-28T10:24:09.059Z</time>
      </trkpt>
      <trkpt lat="45.60727" lon="4.77439">
        <ele>164</ele>
        <time>2012-09-28T10:24:11.059Z</time>
      </trkpt>
      <trkpt lat="45.60728" lon="4.7743">
        <ele>164</ele>
        <time>2012-09-28T10:24:13.059Z</time>
      </trkpt>
      <trkpt lat="45.60729" lon="4.7742">
        <ele>164</ele>
        <time>2012-09-28T10:24:15.059Z</time>
      </trkpt>
      <trkpt lat="45.60729" lon="4.77408">
        <ele>164</ele>
        <time>2012-09-28T10:24:17.059Z</time>
      </trkpt>
      <trkpt lat="45.6073" lon="4.77396">
        <ele>164</ele>
        <time>2012-09-28T10:24:19.059Z</time>
      </trkpt>
      <trkpt lat="45.60731" lon="4.77383">
        <ele>164</ele>
        <time>2012-09-28T10:24:21.059Z</time>
      </trkpt>
      <trkpt lat="45.60731" lon="4.77376">
        <ele>164</ele>
        <time>2012-09-28T10:24:22.059Z</time>
      </trkpt>
      <trkpt lat="45.6073" lon="4.77368">
        <ele>164</ele>
        <time>2012-09-28T10:24:23.059Z</time>
      </trkpt>
      <trkpt lat="45.60731" lon="4.7736">
        <ele>164</ele>
        <time>2012-09-28T10:24:24.059Z</time>
      </trkpt>
      <trkpt lat="45.60731" lon="4.77352">
        <ele>164</ele>
        <time>2012-09-28T10:24:25.059Z</time>
      </trkpt>
      <trkpt lat="45.60731" lon="4.77343">
        <ele>164</ele>
        <time>2012-09-28T10:24:26.059Z</time>
      </trkpt>
      <trkpt lat="45.60731" lon="4.77335">
        <ele>164</ele>
        <time>2012-09-28T10:24:27.059Z</time>
      </trkpt>
      <trkpt lat="45.60732" lon="4.77328">
        <ele>163</ele>
        <time>2012-09-28T10:24:28.059Z</time>
      </trkpt>
      <trkpt lat="45.60732" lon="4.77318">
        <ele>163</ele>
        <time>2012-09-28T10:24:30.059Z</time>
      </trkpt>
      <trkpt lat="45.60732" lon="4.7731">
        <ele>163</ele>
        <time>2012-09-28T10:24:33.059Z</time>
      </trkpt>
      <trkpt lat="45.60733" lon="4.77302">
        <ele>163</ele>
        <time>2012-09-28T10:24:36.059Z</time>
      </trkpt>
      <trkpt lat="45.60737" lon="4.77295">
        <ele>163</ele>
        <time>2012-09-28T10:24:38.059Z</time>
      </trkpt>
      <trkpt lat="45.60741" lon="4.77291">
        <ele>163</ele>
        <time>2012-09-28T10:24:39.059Z</time>
      </trkpt>
      <trkpt lat="45.60746" lon="4.77286">
        <ele>163</ele>
        <time>2012-09-28T10:24:40.059Z</time>
      </trkpt>
      <trkpt lat="45.60751" lon="4.77281">
        <ele>163</ele>
        <time>2012-09-28T10:24:41.059Z</time>
      </trkpt>
      <trkpt lat="45.60756" lon="4.77276">
        <ele>163</ele>
        <time>2012-09-28T10:24:42.059Z</time>
      </trkpt>
      <trkpt lat="45.60762" lon="4.77272">
        <ele>163</ele>
        <time>2012-09-28T10:24:43.059Z</time>
      </trkpt>
      <trkpt lat="45.60768" lon="4.77269">
        <ele>164</ele>
        <time>2012-09-28T10:24:44.059Z</time>
      </trkpt>
      <trkpt lat="45.60774" lon="4.77267">
        <ele>164</ele>
        <time>2012-09-28T10:24:45.059Z</time>
      </trkpt>
      <trkpt lat="45.60781" lon="4.77264">
        <ele>164</ele>
        <time>2012-09-28T10:24:46.059Z</time>
      </trkpt>
      <trkpt lat="45.60789" lon="4.77262">
        <ele>164</ele>
        <time>2012-09-28T10:24:47.059Z</time>
      </trkpt>
      <trkpt lat="45.60795" lon="4.77259">
        <ele>164</ele>
        <time>2012-09-28T10:24:48.059Z</time>
      </trkpt>
      <trkpt lat="45.60802" lon="4.77255">
        <ele>164</ele>
        <time>2012-09-28T10:24:49.059Z</time>
      </trkpt>
      <trkpt lat="45.6081" lon="4.77253">
        <ele>164</ele>
        <time>2012-09-28T10:24:50.059Z</time>
      </trkpt>
      <trkpt lat="45.60818" lon="4.7725">
        <ele>165</ele>
        <time>2012-09-28T10:24:51.059Z</time>
      </trkpt>
      <trkpt lat="45.60826" lon="4.77247">
        <ele>165</ele>
        <time>2012-09-28T10:24:52.059Z</time>
      </trkpt>
      <trkpt lat="45.60834" lon="4.77244">
        <ele>165</ele>
        <time>2012-09-28T10:24:53.059Z</time>
      </trkpt>
      <trkpt lat="45.6084" lon="4.77239">
        <ele>165</ele>
        <time>2012-09-28T10:24:54.059Z</time>
      </trkpt>
      <trkpt lat="45.60848" lon="4.77234">
        <ele>165</ele>
        <time>2012-09-28T10:24:55.059Z</time>
      </trkpt>
      <trkpt lat="45.60855" lon="4.7723">
        <ele>165</ele>
        <time>2012-09-28T10:24:56.059Z</time>
      </trkpt>
      <trkpt lat="45.60862" lon="4.77226">
        <ele>165</ele>
        <time>2012-09-28T10:24:57.059Z</time>
      </trkpt>
      <trkpt lat="45.60869" lon="4.77222">
        <ele>165</ele>
        <time>2012-09-28T10:24:58.059Z</time>
      </trkpt>
      <trkpt lat="45.60876" lon="4.77218">
        <ele>165</ele>
        <time>2012-09-28T10:24:59.059Z</time>
      </trkpt>
      <trkpt lat="45.60883" lon="4.77215">
        <ele>165</ele>
        <time>2012-09-28T10:25:00.059Z</time>
      </trkpt>
      <trkpt lat="45.6089" lon="4.77211">
        <ele>165</ele>
        <time>2012-09-28T10:25:01.059Z</time>
      </trkpt>
      <trkpt lat="45.60897" lon="4.77208">
        <ele>165</ele>
        <time>2012-09-28T10:25:02.059Z</time>
      </trkpt>
      <trkpt lat="45.60904" lon="4.77204">
        <ele>165</ele>
        <time>2012-09-28T10:25:03.059Z</time>
      </trkpt>
      <trkpt lat="45.60911" lon="4.772">
        <ele>165</ele>
        <time>2012-09-28T10:25:04.059Z</time>
      </trkpt>
      <trkpt lat="45.60918" lon="4.77197">
        <ele>165</ele>
        <time>2012-09-28T10:25:05.059Z</time>
      </trkpt>
      <trkpt lat="45.60925" lon="4.77193">
        <ele>165</ele>
        <time>2012-09-28T10:25:06.059Z</time>
      </trkpt>
      <trkpt lat="45.60932" lon="4.77189">
        <ele>165</ele>
        <time>2012-09-28T10:25:07.059Z</time>
      </trkpt>
      <trkpt lat="45.60938" lon="4.77186">
        <ele>165</ele>
        <time>2012-09-28T10:25:08.059Z</time>
      </trkpt>
      <trkpt lat="45.60944" lon="4.77181">
        <ele>165</ele>
        <time>2012-09-28T10:25:09.059Z</time>
      </trkpt>
      <trkpt lat="45.60956" lon="4.77173">
        <ele>165</ele>
        <time>2012-09-28T10:25:11.060Z</time>
      </trkpt>
      <trkpt lat="45.60976" lon="4.77108">
        <ele>169</ele>
        <time>2012-09-28T10:25:41.180Z</time>
      </trkpt>
      <trkpt lat="45.60974" lon="4.77101">
        <ele>169</ele>
        <time>2012-09-28T10:25:45.180Z</time>
      </trkpt>
      <trkpt lat="45.60972" lon="4.77094">
        <ele>169</ele>
        <time>2012-09-28T10:25:48.180Z</time>
      </trkpt>
      <trkpt lat="45.60973" lon="4.77088">
        <ele>169</ele>
        <time>2012-09-28T10:25:51.180Z</time>
      </trkpt>
      <trkpt lat="45.60973" lon="4.77081">
        <ele>175</ele>
        <time>2012-09-28T10:25:54.180Z</time>
      </trkpt>
      <trkpt lat="45.60976" lon="4.77074">
        <ele>175</ele>
        <time>2012-09-28T10:25:58.180Z</time>
      </trkpt>
      <trkpt lat="45.60978" lon="4.77068">
        <ele>175</ele>
        <time>2012-09-28T10:26:01.180Z</time>
      </trkpt>
      <trkpt lat="45.60982" lon="4.77063">
        <ele>175</ele>
        <time>2012-09-28T10:26:04.180Z</time>
      </trkpt>
      <trkpt lat="45.60986" lon="4.77057">
        <ele>176</ele>
        <time>2012-09-28T10:26:08.180Z</time>
      </trkpt>
      <trkpt lat="45.60989" lon="4.77051">
        <ele>176</ele>
        <time>2012-09-28T10:26:12.065Z</time>
      </trkpt>
      <trkpt lat="45.60992" lon="4.77045">
        <ele>177</ele>
        <time>2012-09-28T10:26:15.065Z</time>
      </trkpt>
      <trkpt lat="45.60995" lon="4.77038">
        <ele>178</ele>
        <time>2012-09-28T10:26:19.065Z</time>
      </trkpt>
      <trkpt lat="45.60998" lon="4.77031">
        <ele>179</ele>
        <time>2012-09-28T10:26:23.065Z</time>
      </trkpt>
      <trkpt lat="45.61002" lon="4.77026">
        <ele>178</ele>
        <time>2012-09-28T10:26:27.065Z</time>
      </trkpt>
      <trkpt lat="45.61006" lon="4.77021">
        <ele>179</ele>
        <time>2012-09-28T10:26:31.065Z</time>
      </trkpt>
      <trkpt lat="45.6101" lon="4.77018">
        <ele>179</ele>
        <time>2012-09-28T10:26:35.065Z</time>
      </trkpt>
      <trkpt lat="45.61015" lon="4.77014">
        <ele>179</ele>
        <time>2012-09-28T10:26:39.065Z</time>
      </trkpt>
      <trkpt lat="45.61019" lon="4.77012">
        <ele>179</ele>
        <time>2012-09-28T10:26:42.065Z</time>
      </trkpt>
      <trkpt lat="45.61024" lon="4.77008">
        <ele>179</ele>
        <time>2012-09-28T10:26:46.065Z</time>
      </trkpt>
      <trkpt lat="45.61027" lon="4.77003">
        <ele>179</ele>
        <time>2012-09-28T10:26:51.065Z</time>
      </trkpt>
      <trkpt lat="45.61031" lon="4.76998">
        <ele>185</ele>
        <time>2012-09-28T10:27:08.065Z</time>
      </trkpt>
      <trkpt lat="45.61036" lon="4.76995">
        <ele>185</ele>
        <time>2012-09-28T10:27:12.065Z</time>
      </trkpt>
      <trkpt lat="45.6104" lon="4.76991">
        <ele>185</ele>
        <time>2012-09-28T10:27:16.065Z</time>
      </trkpt>
      <trkpt lat="45.61044" lon="4.76987">
        <ele>185</ele>
        <time>2012-09-28T10:27:20.065Z</time>
      </trkpt>
      <trkpt lat="45.61048" lon="4.76983">
        <ele>185</ele>
        <time>2012-09-28T10:27:25.065Z</time>
      </trkpt>
      <trkpt lat="45.61053" lon="4.76978">
        <ele>186</ele>
        <time>2012-09-28T10:27:30.065Z</time>
      </trkpt>
      <trkpt lat="45.61056" lon="4.76975">
        <ele>186</ele>
        <time>2012-09-28T10:27:34.065Z</time>
      </trkpt>
      <trkpt lat="45.61061" lon="4.76971">
        <ele>186</ele>
        <time>2012-09-28T10:27:38.065Z</time>
      </trkpt>
      <trkpt lat="45.61065" lon="4.76967">
        <ele>186</ele>
        <time>2012-09-28T10:27:42.065Z</time>
      </trkpt>
      <trkpt lat="45.61069" lon="4.76962">
        <ele>186</ele>
        <time>2012-09-28T10:27:46.065Z</time>
      </trkpt>
      <trkpt lat="45.61072" lon="4.76957">
        <ele>187</ele>
        <time>2012-09-28T10:27:50.065Z</time>
      </trkpt>
      <trkpt lat="45.61075" lon="4.76951">
        <ele>188</ele>
        <time>2012-09-28T10:27:54.065Z</time>
      </trkpt>
      <trkpt lat="45.61076" lon="4.76943">
        <ele>188</ele>
        <time>2012-09-28T10:27:59.065Z</time>
      </trkpt>
      <trkpt lat="45.61074" lon="4.76936">
        <ele>189</ele>
        <time>2012-09-28T10:28:03.065Z</time>
      </trkpt>
      <trkpt lat="45.61074" lon="4.76928">
        <ele>190</ele>
        <time>2012-09-28T10:28:07.065Z</time>
      </trkpt>
      <trkpt lat="45.61073" lon="4.7692">
        <ele>191</ele>
        <time>2012-09-28T10:28:11.225Z</time>
      </trkpt>
      <trkpt lat="45.61073" lon="4.76912">
        <ele>193</ele>
        <time>2012-09-28T10:28:15.225Z</time>
      </trkpt>
      <trkpt lat="45.61072" lon="4.76905">
        <ele>193</ele>
        <time>2012-09-28T10:28:18.225Z</time>
      </trkpt>
      <trkpt lat="45.61071" lon="4.76898">
        <ele>193</ele>
        <time>2012-09-28T10:28:21.225Z</time>
      </trkpt>
      <trkpt lat="45.6107" lon="4.7689">
        <ele>193</ele>
        <time>2012-09-28T10:28:24.225Z</time>
      </trkpt>
      <trkpt lat="45.61069" lon="4.76883">
        <ele>193</ele>
        <time>2012-09-28T10:28:27.225Z</time>
      </trkpt>
      <trkpt lat="45.61069" lon="4.76876">
        <ele>193</ele>
        <time>2012-09-28T10:28:30.225Z</time>
      </trkpt>
      <trkpt lat="45.61068" lon="4.76869">
        <ele>194</ele>
        <time>2012-09-28T10:28:33.225Z</time>
      </trkpt>
      <trkpt lat="45.61067" lon="4.76862">
        <ele>194</ele>
        <time>2012-09-28T10:28:36.225Z</time>
      </trkpt>
      <trkpt lat="45.61066" lon="4.76852">
        <ele>194</ele>
        <time>2012-09-28T10:28:39.225Z</time>
      </trkpt>
      <trkpt lat="45.61065" lon="4.76843">
        <ele>195</ele>
        <time>2012-09-28T10:28:42.225Z</time>
      </trkpt>
      <trkpt lat="45.61063" lon="4.76835">
        <ele>195</ele>
        <time>2012-09-28T10:28:45.225Z</time>
      </trkpt>
      <trkpt lat="45.61063" lon="4.76828">
        <ele>196</ele>
        <time>2012-09-28T10:28:47.225Z</time>
      </trkpt>
      <trkpt lat="45.61062" lon="4.76821">
        <ele>196</ele>
        <time>2012-09-28T10:28:49.225Z</time>
      </trkpt>
      <trkpt lat="45.61061" lon="4.76813">
        <ele>195</ele>
        <time>2012-09-28T10:28:51.225Z</time>
      </trkpt>
      <trkpt lat="45.61059" lon="4.76806">
        <ele>195</ele>
        <time>2012-09-28T10:28:53.225Z</time>
      </trkpt>
      <trkpt lat="45.61058" lon="4.76798">
        <ele>195</ele>
        <time>2012-09-28T10:28:55.225Z</time>
      </trkpt>
      <trkpt lat="45.61057" lon="4.7679">
        <ele>195</ele>
        <time>2012-09-28T10:28:57.225Z</time>
      </trkpt>
      <trkpt lat="45.61057" lon="4.76783">
        <ele>195</ele>
        <time>2012-09-28T10:28:59.225Z</time>
      </trkpt>
      <trkpt lat="45.61056" lon="4.76776">
        <ele>195</ele>
        <time>2012-09-28T10:29:01.225Z</time>
      </trkpt>
      <trkpt lat="45.61056" lon="4.76768">
        <ele>196</ele>
        <time>2012-09-28T10:29:03.225Z</time>
      </trkpt>
      <trkpt lat="45.61054" lon="4.7676">
        <ele>196</ele>
        <time>2012-09-28T10:29:05.225Z</time>
      </trkpt>
      <trkpt lat="45.61052" lon="4.76751">
        <ele>195</ele>
        <time>2012-09-28T10:29:07.225Z</time>
      </trkpt>
      <trkpt lat="45.6105" lon="4.76742">
        <ele>196</ele>
        <time>2012-09-28T10:29:09.225Z</time>
      </trkpt>
      <trkpt lat="45.61048" lon="4.76734">
        <ele>196</ele>
        <time>2012-09-28T10:29:10.985Z</time>
      </trkpt>
      <trkpt lat="45.61047" lon="4.76726">
        <ele>196</ele>
        <time>2012-09-28T10:29:12.985Z</time>
      </trkpt>
      <trkpt lat="45.61046" lon="4.76717">
        <ele>196</ele>
        <time>2012-09-28T10:29:14.985Z</time>
      </trkpt>
      <trkpt lat="45.61044" lon="4.76709">
        <ele>196</ele>
        <time>2012-09-28T10:29:16.985Z</time>
      </trkpt>
      <trkpt lat="45.61043" lon="4.76702">
        <ele>196</ele>
        <time>2012-09-28T10:29:18.985Z</time>
      </trkpt>
      <trkpt lat="45.61043" lon="4.76696">
        <ele>196</ele>
        <time>2012-09-28T10:29:20.985Z</time>
      </trkpt>
      <trkpt lat="45.61042" lon="4.76686">
        <ele>196</ele>
        <time>2012-09-28T10:29:22.985Z</time>
      </trkpt>
      <trkpt lat="45.61041" lon="4.76677">
        <ele>196</ele>
        <time>2012-09-28T10:29:24.985Z</time>
      </trkpt>
      <trkpt lat="45.6104" lon="4.76668">
        <ele>196</ele>
        <time>2012-09-28T10:29:26.985Z</time>
      </trkpt>
      <trkpt lat="45.61039" lon="4.76656">
        <ele>195</ele>
        <time>2012-09-28T10:29:28.985Z</time>
      </trkpt>
      <trkpt lat="45.61038" lon="4.76646">
        <ele>195</ele>
        <time>2012-09-28T10:29:30.985Z</time>
      </trkpt>
      <trkpt lat="45.61034" lon="4.76638">
        <ele>195</ele>
        <time>2012-09-28T10:29:32.985Z</time>
      </trkpt>
      <trkpt lat="45.61029" lon="4.76636">
        <ele>194</ele>
        <time>2012-09-28T10:29:34.985Z</time>
      </trkpt>
      <trkpt lat="45.61029" lon="4.76627">
        <ele>194</ele>
        <time>2012-09-28T10:29:36.985Z</time>
      </trkpt>
      <trkpt lat="45.61031" lon="4.76617">
        <ele>194</ele>
        <time>2012-09-28T10:29:38.985Z</time>
      </trkpt>
      <trkpt lat="45.61034" lon="4.76605">
        <ele>194</ele>
        <time>2012-09-28T10:29:40.985Z</time>
      </trkpt>
      <trkpt lat="45.61036" lon="4.76598">
        <ele>194</ele>
        <time>2012-09-28T10:29:41.985Z</time>
      </trkpt>
      <trkpt lat="45.61038" lon="4.7659">
        <ele>194</ele>
        <time>2012-09-28T10:29:42.985Z</time>
      </trkpt>
      <trkpt lat="45.61038" lon="4.76583">
        <ele>191</ele>
        <time>2012-09-28T10:29:43.985Z</time>
      </trkpt>
      <trkpt lat="45.6104" lon="4.76575">
        <ele>191</ele>
        <time>2012-09-28T10:29:44.985Z</time>
      </trkpt>
      <trkpt lat="45.61042" lon="4.76569">
        <ele>191</ele>
        <time>2012-09-28T10:29:45.985Z</time>
      </trkpt>
      <trkpt lat="45.61046" lon="4.76557">
        <ele>191</ele>
        <time>2012-09-28T10:29:47.985Z</time>
      </trkpt>
      <trkpt lat="45.61046" lon="4.76547">
        <ele>190</ele>
        <time>2012-09-28T10:29:49.985Z</time>
      </trkpt>
      <trkpt lat="45.61045" lon="4.76536">
        <ele>190</ele>
        <time>2012-09-28T10:29:51.985Z</time>
      </trkpt>
      <trkpt lat="45.61045" lon="4.76526">
        <ele>190</ele>
        <time>2012-09-28T10:29:53.985Z</time>
      </trkpt>
      <trkpt lat="45.61048" lon="4.76515">
        <ele>189</ele>
        <time>2012-09-28T10:29:55.985Z</time>
      </trkpt>
      <trkpt lat="45.61047" lon="4.76508">
        <ele>189</ele>
        <time>2012-09-28T10:29:56.985Z</time>
      </trkpt>
      <trkpt lat="45.61046" lon="4.76497">
        <ele>185</ele>
        <time>2012-09-28T10:29:58.985Z</time>
      </trkpt>
      <trkpt lat="45.61049" lon="4.76492">
        <ele>185</ele>
        <time>2012-09-28T10:30:01.985Z</time>
      </trkpt>
      <trkpt lat="45.61049" lon="4.76483">
        <ele>185</ele>
        <time>2012-09-28T10:30:04.985Z</time>
      </trkpt>
      <trkpt lat="45.61052" lon="4.76475">
        <ele>185</ele>
        <time>2012-09-28T10:30:05.985Z</time>
      </trkpt>
      <trkpt lat="45.61057" lon="4.76465">
        <ele>184</ele>
        <time>2012-09-28T10:30:07.985Z</time>
      </trkpt>
      <trkpt lat="45.61066" lon="4.76456">
        <ele>184</ele>
        <time>2012-09-28T10:30:11.093Z</time>
      </trkpt>
      <trkpt lat="45.61211" lon="4.76319">
        <ele>179</ele>
        <time>2012-09-28T10:30:42.213Z</time>
      </trkpt>
      <trkpt lat="45.61209" lon="4.76307">
        <ele>179</ele>
        <time>2012-09-28T10:30:44.213Z</time>
      </trkpt>
      <trkpt lat="45.61205" lon="4.76302">
        <ele>179</ele>
        <time>2012-09-28T10:30:45.213Z</time>
      </trkpt>
      <trkpt lat="45.61202" lon="4.76294">
        <ele>178</ele>
        <time>2012-09-28T10:30:46.213Z</time>
      </trkpt>
      <trkpt lat="45.612" lon="4.76286">
        <ele>178</ele>
        <time>2012-09-28T10:30:47.213Z</time>
      </trkpt>
      <trkpt lat="45.61196" lon="4.76277">
        <ele>177</ele>
        <time>2012-09-28T10:30:48.213Z</time>
      </trkpt>
      <trkpt lat="45.61194" lon="4.76267">
        <ele>177</ele>
        <time>2012-09-28T10:30:49.213Z</time>
      </trkpt>
      <trkpt lat="45.61191" lon="4.76258">
        <ele>176</ele>
        <time>2012-09-28T10:30:50.213Z</time>
      </trkpt>
      <trkpt lat="45.61188" lon="4.76248">
        <ele>174</ele>
        <time>2012-09-28T10:30:51.213Z</time>
      </trkpt>
      <trkpt lat="45.61184" lon="4.76238">
        <ele>174</ele>
        <time>2012-09-28T10:30:52.213Z</time>
      </trkpt>
      <trkpt lat="45.61181" lon="4.76228">
        <ele>174</ele>
        <time>2012-09-28T10:30:53.213Z</time>
      </trkpt>
      <trkpt lat="45.61181" lon="4.76219">
        <ele>174</ele>
        <time>2012-09-28T10:30:54.213Z</time>
      </trkpt>
      <trkpt lat="45.61182" lon="4.7621">
        <ele>174</ele>
        <time>2012-09-28T10:30:55.213Z</time>
      </trkpt>
      <trkpt lat="45.61185" lon="4.76202">
        <ele>174</ele>
        <time>2012-09-28T10:30:56.213Z</time>
      </trkpt>
      <trkpt lat="45.61187" lon="4.76195">
        <ele>174</ele>
        <time>2012-09-28T10:30:57.213Z</time>
      </trkpt>
      <trkpt lat="45.6119" lon="4.7619">
        <ele>174</ele>
        <time>2012-09-28T10:30:58.213Z</time>
      </trkpt>
      <trkpt lat="45.61193" lon="4.76185">
        <ele>174</ele>
        <time>2012-09-28T10:30:59.213Z</time>
      </trkpt>
      <trkpt lat="45.61198" lon="4.76176">
        <ele>174</ele>
        <time>2012-09-28T10:31:01.213Z</time>
      </trkpt>
      <trkpt lat="45.61201" lon="4.76168">
        <ele>174</ele>
        <time>2012-09-28T10:31:03.213Z</time>
      </trkpt>
      <trkpt lat="45.61206" lon="4.76162">
        <ele>177</ele>
        <time>2012-09-28T10:31:05.213Z</time>
      </trkpt>
      <trkpt lat="45.61211" lon="4.76158">
        <ele>177</ele>
        <time>2012-09-28T10:31:07.213Z</time>
      </trkpt>
      <trkpt lat="45.61216" lon="4.76154">
        <ele>178</ele>
        <time>2012-09-28T10:31:09.213Z</time>
      </trkpt>
      <trkpt lat="45.61222" lon="4.76151">
        <ele>178</ele>
        <time>2012-09-28T10:31:12.064Z</time>
      </trkpt>
      <trkpt lat="45.61226" lon="4.76146">
        <ele>178</ele>
        <time>2012-09-28T10:31:16.064Z</time>
      </trkpt>
      <trkpt lat="45.61227" lon="4.76139">
        <ele>179</ele>
        <time>2012-09-28T10:31:19.064Z</time>
      </trkpt>
      <trkpt lat="45.61229" lon="4.76132">
        <ele>179</ele>
        <time>2012-09-28T10:31:22.064Z</time>
      </trkpt>
      <trkpt lat="45.6123" lon="4.76126">
        <ele>179</ele>
        <time>2012-09-28T10:31:25.064Z</time>
      </trkpt>
      <trkpt lat="45.61231" lon="4.76118">
        <ele>180</ele>
        <time>2012-09-28T10:31:29.064Z</time>
      </trkpt>
      <trkpt lat="45.61235" lon="4.76112">
        <ele>180</ele>
        <time>2012-09-28T10:31:32.064Z</time>
      </trkpt>
      <trkpt lat="45.6124" lon="4.76109">
        <ele>181</ele>
        <time>2012-09-28T10:31:35.064Z</time>
      </trkpt>
      <trkpt lat="45.61246" lon="4.76108">
        <ele>181</ele>
        <time>2012-09-28T10:31:38.064Z</time>
      </trkpt>
      <trkpt lat="45.61251" lon="4.76108">
        <ele>186</ele>
        <time>2012-09-28T10:31:40.064Z</time>
      </trkpt>
      <trkpt lat="45.61255" lon="4.76109">
        <ele>186</ele>
        <time>2012-09-28T10:31:42.064Z</time>
      </trkpt>
      <trkpt lat="45.61262" lon="4.76108">
        <ele>186</ele>
        <time>2012-09-28T10:31:45.064Z</time>
      </trkpt>
      <trkpt lat="45.61268" lon="4.76109">
        <ele>186</ele>
        <time>2012-09-28T10:31:48.064Z</time>
      </trkpt>
      <trkpt lat="45.61272" lon="4.7611">
        <ele>186</ele>
        <time>2012-09-28T10:31:50.064Z</time>
      </trkpt>
      <trkpt lat="45.61277" lon="4.7611">
        <ele>186</ele>
        <time>2012-09-28T10:31:52.064Z</time>
      </trkpt>
      <trkpt lat="45.61282" lon="4.7611">
        <ele>187</ele>
        <time>2012-09-28T10:31:54.064Z</time>
      </trkpt>
      <trkpt lat="45.61288" lon="4.76109">
        <ele>187</ele>
        <time>2012-09-28T10:31:57.064Z</time>
      </trkpt>
      <trkpt lat="45.61292" lon="4.76108">
        <ele>187</ele>
        <time>2012-09-28T10:31:59.064Z</time>
      </trkpt>
      <trkpt lat="45.61298" lon="4.76108">
        <ele>187</ele>
        <time>2012-09-28T10:32:02.064Z</time>
      </trkpt>
      <trkpt lat="45.61303" lon="4.76109">
        <ele>188</ele>
        <time>2012-09-28T10:32:04.064Z</time>
      </trkpt>
      <trkpt lat="45.61308" lon="4.76109">
        <ele>188</ele>
        <time>2012-09-28T10:32:06.064Z</time>
      </trkpt>
      <trkpt lat="45.61312" lon="4.7611">
        <ele>188</ele>
        <time>2012-09-28T10:32:08.064Z</time>
      </trkpt>
      <trkpt lat="45.61318" lon="4.76111">
        <ele>188</ele>
        <time>2012-09-28T10:32:11.058Z</time>
      </trkpt>
      <trkpt lat="45.61323" lon="4.76113">
        <ele>188</ele>
        <time>2012-09-28T10:32:13.058Z</time>
      </trkpt>
      <trkpt lat="45.6133" lon="4.76115">
        <ele>189</ele>
        <time>2012-09-28T10:32:16.058Z</time>
      </trkpt>
      <trkpt lat="45.61336" lon="4.76118">
        <ele>190</ele>
        <time>2012-09-28T10:32:19.058Z</time>
      </trkpt>
      <trkpt lat="45.61342" lon="4.76119">
        <ele>190</ele>
        <time>2012-09-28T10:32:21.058Z</time>
      </trkpt>
      <trkpt lat="45.61346" lon="4.7612">
        <ele>190</ele>
        <time>2012-09-28T10:32:23.058Z</time>
      </trkpt>
      <trkpt lat="45.61352" lon="4.76121">
        <ele>190</ele>
        <time>2012-09-28T10:32:26.058Z</time>
      </trkpt>
      <trkpt lat="45.61357" lon="4.76123">
        <ele>190</ele>
        <time>2012-09-28T10:32:29.058Z</time>
      </trkpt>
      <trkpt lat="45.61362" lon="4.76123">
        <ele>190</ele>
        <time>2012-09-28T10:32:31.058Z</time>
      </trkpt>
      <trkpt lat="45.61367" lon="4.76124">
        <ele>189</ele>
        <time>2012-09-28T10:32:33.058Z</time>
      </trkpt>
      <trkpt lat="45.61372" lon="4.76124">
        <ele>189</ele>
        <time>2012-09-28T10:32:36.058Z</time>
      </trkpt>
      <trkpt lat="45.61377" lon="4.76121">
        <ele>189</ele>
        <time>2012-09-28T10:32:38.058Z</time>
      </trkpt>
      <trkpt lat="45.61382" lon="4.76119">
        <ele>189</ele>
        <time>2012-09-28T10:32:40.058Z</time>
      </trkpt>
      <trkpt lat="45.61386" lon="4.76117">
        <ele>189</ele>
        <time>2012-09-28T10:32:42.058Z</time>
      </trkpt>
      <trkpt lat="45.61391" lon="4.76117">
        <ele>189</ele>
        <time>2012-09-28T10:32:45.058Z</time>
      </trkpt>
      <trkpt lat="45.61396" lon="4.76115">
        <ele>189</ele>
        <time>2012-09-28T10:32:48.058Z</time>
      </trkpt>
      <trkpt lat="45.61401" lon="4.76114">
        <ele>189</ele>
        <time>2012-09-28T10:32:51.058Z</time>
      </trkpt>
      <trkpt lat="45.61405" lon="4.7611">
        <ele>190</ele>
        <time>2012-09-28T10:32:54.058Z</time>
      </trkpt>
      <trkpt lat="45.61411" lon="4.76106">
        <ele>190</ele>
        <time>2012-09-28T10:32:57.058Z</time>
      </trkpt>
      <trkpt lat="45.61417" lon="4.76101">
        <ele>189</ele>
        <time>2012-09-28T10:33:01.058Z</time>
      </trkpt>
      <trkpt lat="45.61421" lon="4.76098">
        <ele>189</ele>
        <time>2012-09-28T10:33:03.058Z</time>
      </trkpt>
      <trkpt lat="45.61426" lon="4.76094">
        <ele>189</ele>
        <time>2012-09-28T10:33:06.058Z</time>
      </trkpt>
      <trkpt lat="45.6143" lon="4.76091">
        <ele>189</ele>
        <time>2012-09-28T10:33:08.058Z</time>
      </trkpt>
      <trkpt lat="45.61434" lon="4.76087">
        <ele>189</ele>
        <time>2012-09-28T10:33:11.061Z</time>
      </trkpt>
      <trkpt lat="45.61439" lon="4.76083">
        <ele>195</ele>
        <time>2012-09-28T10:33:14.061Z</time>
      </trkpt>
      <trkpt lat="45.61443" lon="4.7608">
        <ele>195</ele>
        <time>2012-09-28T10:33:16.061Z</time>
      </trkpt>
      <trkpt lat="45.61447" lon="4.76077">
        <ele>195</ele>
        <time>2012-09-28T10:33:18.061Z</time>
      </trkpt>
      <trkpt lat="45.61451" lon="4.76073">
        <ele>196</ele>
        <time>2012-09-28T10:33:20.061Z</time>
      </trkpt>
      <trkpt lat="45.61456" lon="4.7607">
        <ele>196</ele>
        <time>2012-09-28T10:33:23.061Z</time>
      </trkpt>
      <trkpt lat="45.61461" lon="4.76064">
        <ele>196</ele>
        <time>2012-09-28T10:33:26.061Z</time>
      </trkpt>
      <trkpt lat="45.61465" lon="4.76062">
        <ele>196</ele>
        <time>2012-09-28T10:33:28.061Z</time>
      </trkpt>
      <trkpt lat="45.61469" lon="4.76058">
        <ele>196</ele>
        <time>2012-09-28T10:33:30.061Z</time>
      </trkpt>
      <trkpt lat="45.61473" lon="4.76054">
        <ele>196</ele>
        <time>2012-09-28T10:33:32.061Z</time>
      </trkpt>
      <trkpt lat="45.61476" lon="4.76047">
        <ele>197</ele>
        <time>2012-09-28T10:33:35.061Z</time>
      </trkpt>
      <trkpt lat="45.61479" lon="4.7604">
        <ele>198</ele>
        <time>2012-09-28T10:33:38.061Z</time>
      </trkpt>
      <trkpt lat="45.61486" lon="4.76037">
        <ele>198</ele>
        <time>2012-09-28T10:33:41.061Z</time>
      </trkpt>
      <trkpt lat="45.61491" lon="4.76034">
        <ele>198</ele>
        <time>2012-09-28T10:33:43.061Z</time>
      </trkpt>
      <trkpt lat="45.61495" lon="4.76032">
        <ele>199</ele>
        <time>2012-09-28T10:33:45.061Z</time>
      </trkpt>
      <trkpt lat="45.61499" lon="4.7603">
        <ele>199</ele>
        <time>2012-09-28T10:33:47.061Z</time>
      </trkpt>
      <trkpt lat="45.61504" lon="4.76029">
        <ele>195</ele>
        <time>2012-09-28T10:33:49.061Z</time>
      </trkpt>
      <trkpt lat="45.61509" lon="4.76027">
        <ele>195</ele>
        <time>2012-09-28T10:33:51.061Z</time>
      </trkpt>
      <trkpt lat="45.61515" lon="4.76025">
        <ele>195</ele>
        <time>2012-09-28T10:33:54.061Z</time>
      </trkpt>
      <trkpt lat="45.61519" lon="4.76025">
        <ele>195</ele>
        <time>2012-09-28T10:33:56.061Z</time>
      </trkpt>
      <trkpt lat="45.61525" lon="4.76024">
        <ele>194</ele>
        <time>2012-09-28T10:33:58.061Z</time>
      </trkpt>
      <trkpt lat="45.61532" lon="4.76023">
        <ele>194</ele>
        <time>2012-09-28T10:34:00.061Z</time>
      </trkpt>
      <trkpt lat="45.61537" lon="4.76022">
        <ele>194</ele>
        <time>2012-09-28T10:34:02.061Z</time>
      </trkpt>
      <trkpt lat="45.61543" lon="4.76022">
        <ele>194</ele>
        <time>2012-09-28T10:34:04.061Z</time>
      </trkpt>
      <trkpt lat="45.61548" lon="4.76022">
        <ele>193</ele>
        <time>2012-09-28T10:34:06.061Z</time>
      </trkpt>
      <trkpt lat="45.61553" lon="4.76019">
        <ele>193</ele>
        <time>2012-09-28T10:34:08.061Z</time>
      </trkpt>
      <trkpt lat="45.61561" lon="4.76018">
        <ele>193</ele>
        <time>2012-09-28T10:34:11.089Z</time>
      </trkpt>
      <trkpt lat="45.61567" lon="4.76018">
        <ele>193</ele>
        <time>2012-09-28T10:34:13.089Z</time>
      </trkpt>
      <trkpt lat="45.61573" lon="4.76016">
        <ele>194</ele>
        <time>2012-09-28T10:34:15.089Z</time>
      </trkpt>
      <trkpt lat="45.6158" lon="4.76016">
        <ele>194</ele>
        <time>2012-09-28T10:34:18.089Z</time>
      </trkpt>
      <trkpt lat="45.61585" lon="4.76016">
        <ele>193</ele>
        <time>2012-09-28T10:34:20.089Z</time>
      </trkpt>
      <trkpt lat="45.61591" lon="4.76018">
        <ele>193</ele>
        <time>2012-09-28T10:34:22.089Z</time>
      </trkpt>
      <trkpt lat="45.61596" lon="4.7602">
        <ele>193</ele>
        <time>2012-09-28T10:34:24.089Z</time>
      </trkpt>
      <trkpt lat="45.61602" lon="4.7602">
        <ele>193</ele>
        <time>2012-09-28T10:34:27.089Z</time>
      </trkpt>
      <trkpt lat="45.61606" lon="4.76019">
        <ele>193</ele>
        <time>2012-09-28T10:34:29.089Z</time>
      </trkpt>
      <trkpt lat="45.61611" lon="4.76018">
        <ele>193</ele>
        <time>2012-09-28T10:34:31.089Z</time>
      </trkpt>
      <trkpt lat="45.61617" lon="4.76017">
        <ele>193</ele>
        <time>2012-09-28T10:34:33.089Z</time>
      </trkpt>
      <trkpt lat="45.61621" lon="4.76016">
        <ele>193</ele>
        <time>2012-09-28T10:34:35.089Z</time>
      </trkpt>
      <trkpt lat="45.61626" lon="4.76015">
        <ele>193</ele>
        <time>2012-09-28T10:34:37.089Z</time>
      </trkpt>
      <trkpt lat="45.6163" lon="4.76013">
        <ele>193</ele>
        <time>2012-09-28T10:34:39.089Z</time>
      </trkpt>
      <trkpt lat="45.61636" lon="4.76009">
        <ele>193</ele>
        <time>2012-09-28T10:34:42.089Z</time>
      </trkpt>
      <trkpt lat="45.6164" lon="4.76006">
        <ele>194</ele>
        <time>2012-09-28T10:34:45.089Z</time>
      </trkpt>
      <trkpt lat="45.61645" lon="4.76003">
        <ele>194</ele>
        <time>2012-09-28T10:34:48.089Z</time>
      </trkpt>
      <trkpt lat="45.6165" lon="4.76001">
        <ele>194</ele>
        <time>2012-09-28T10:34:51.089Z</time>
      </trkpt>
      <trkpt lat="45.61655" lon="4.75998">
        <ele>199</ele>
        <time>2012-09-28T10:34:54.089Z</time>
      </trkpt>
      <trkpt lat="45.61661" lon="4.75998">
        <ele>198</ele>
        <time>2012-09-28T10:34:57.089Z</time>
      </trkpt>
      <trkpt lat="45.61667" lon="4.75994">
        <ele>198</ele>
        <time>2012-09-28T10:35:01.089Z</time>
      </trkpt>
      <trkpt lat="45.61673" lon="4.75992">
        <ele>198</ele>
        <time>2012-09-28T10:35:05.089Z</time>
      </trkpt>
      <trkpt lat="45.61677" lon="4.75991">
        <ele>199</ele>
        <time>2012-09-28T10:35:08.089Z</time>
      </trkpt>
      <trkpt lat="45.61684" lon="4.75988">
        <ele>200</ele>
        <time>2012-09-28T10:35:13.063Z</time>
      </trkpt>
      <trkpt lat="45.61689" lon="4.75988">
        <ele>200</ele>
        <time>2012-09-28T10:35:17.063Z</time>
      </trkpt>
      <trkpt lat="45.61694" lon="4.75986">
        <ele>201</ele>
        <time>2012-09-28T10:35:20.063Z</time>
      </trkpt>
      <trkpt lat="45.61699" lon="4.75984">
        <ele>201</ele>
        <time>2012-09-28T10:35:24.063Z</time>
      </trkpt>
      <trkpt lat="45.61704" lon="4.75981">
        <ele>201</ele>
        <time>2012-09-28T10:35:27.063Z</time>
      </trkpt>
      <trkpt lat="45.61709" lon="4.75978">
        <ele>202</ele>
        <time>2012-09-28T10:35:31.063Z</time>
      </trkpt>
      <trkpt lat="45.61716" lon="4.75972">
        <ele>202</ele>
        <time>2012-09-28T10:35:35.063Z</time>
      </trkpt>
      <trkpt lat="45.6172" lon="4.75968">
        <ele>202</ele>
        <time>2012-09-28T10:35:39.063Z</time>
      </trkpt>
      <trkpt lat="45.61724" lon="4.75965">
        <ele>202</ele>
        <time>2012-09-28T10:35:44.063Z</time>
      </trkpt>
      <trkpt lat="45.61722" lon="4.75959">
        <ele>203</ele>
        <time>2012-09-28T10:35:49.063Z</time>
      </trkpt>
      <trkpt lat="45.61721" lon="4.75952">
        <ele>203</ele>
        <time>2012-09-28T10:35:54.063Z</time>
      </trkpt>
      <trkpt lat="45.61721" lon="4.75944">
        <ele>204</ele>
        <time>2012-09-28T10:35:59.063Z</time>
      </trkpt>
      <trkpt lat="45.61721" lon="4.75936">
        <ele>205</ele>
        <time>2012-09-28T10:36:03.063Z</time>
      </trkpt>
      <trkpt lat="45.61721" lon="4.75929">
        <ele>205</ele>
        <time>2012-09-28T10:36:07.063Z</time>
      </trkpt>
      <trkpt lat="45.61722" lon="4.75922">
        <ele>205</ele>
        <time>2012-09-28T10:36:11.061Z</time>
      </trkpt>
      <trkpt lat="45.61721" lon="4.75914">
        <ele>213</ele>
        <time>2012-09-28T10:36:15.061Z</time>
      </trkpt>
      <trkpt lat="45.61722" lon="4.75907">
        <ele>213</ele>
        <time>2012-09-28T10:36:19.061Z</time>
      </trkpt>
      <trkpt lat="45.61722" lon="4.759">
        <ele>213</ele>
        <time>2012-09-28T10:36:23.061Z</time>
      </trkpt>
      <trkpt lat="45.61721" lon="4.75893">
        <ele>214</ele>
        <time>2012-09-28T10:36:27.061Z</time>
      </trkpt>
      <trkpt lat="45.6172" lon="4.75885">
        <ele>214</ele>
        <time>2012-09-28T10:36:32.061Z</time>
      </trkpt>
      <trkpt lat="45.61721" lon="4.75877">
        <ele>215</ele>
        <time>2012-09-28T10:36:37.061Z</time>
      </trkpt>
      <trkpt lat="45.61722" lon="4.75869">
        <ele>215</ele>
        <time>2012-09-28T10:36:41.061Z</time>
      </trkpt>
      <trkpt lat="45.61721" lon="4.75861">
        <ele>216</ele>
        <time>2012-09-28T10:36:45.061Z</time>
      </trkpt>
      <trkpt lat="45.61722" lon="4.75853">
        <ele>216</ele>
        <time>2012-09-28T10:36:49.061Z</time>
      </trkpt>
      <trkpt lat="45.61723" lon="4.75846">
        <ele>216</ele>
        <time>2012-09-28T10:36:53.061Z</time>
      </trkpt>
      <trkpt lat="45.61723" lon="4.75838">
        <ele>216</ele>
        <time>2012-09-28T10:36:57.061Z</time>
      </trkpt>
      <trkpt lat="45.61722" lon="4.7583">
        <ele>223</ele>
        <time>2012-09-28T10:37:01.061Z</time>
      </trkpt>
      <trkpt lat="45.6172" lon="4.75823">
        <ele>223</ele>
        <time>2012-09-28T10:37:05.061Z</time>
      </trkpt>
      <trkpt lat="45.61719" lon="4.75817">
        <ele>224</ele>
        <time>2012-09-28T10:37:09.061Z</time>
      </trkpt>
      <trkpt lat="45.61716" lon="4.75811">
        <ele>225</ele>
        <time>2012-09-28T10:37:12.063Z</time>
      </trkpt>
      <trkpt lat="45.61713" lon="4.75805">
        <ele>225</ele>
        <time>2012-09-28T10:37:16.063Z</time>
      </trkpt>
      <trkpt lat="45.61711" lon="4.75799">
        <ele>226</ele>
        <time>2012-09-28T10:37:21.063Z</time>
      </trkpt>
      <trkpt lat="45.61706" lon="4.75794">
        <ele>227</ele>
        <time>2012-09-28T10:37:26.063Z</time>
      </trkpt>
      <trkpt lat="45.61704" lon="4.75789">
        <ele>227</ele>
        <time>2012-09-28T10:37:28.063Z</time>
      </trkpt>
      <trkpt lat="45.61704" lon="4.75782">
        <ele>227</ele>
        <time>2012-09-28T10:37:32.063Z</time>
      </trkpt>
      <trkpt lat="45.61701" lon="4.75775">
        <ele>228</ele>
        <time>2012-09-28T10:37:36.063Z</time>
      </trkpt>
      <trkpt lat="45.61697" lon="4.7577">
        <ele>229</ele>
        <time>2012-09-28T10:37:41.063Z</time>
      </trkpt>
      <trkpt lat="45.61692" lon="4.75766">
        <ele>229</ele>
        <time>2012-09-28T10:37:47.063Z</time>
      </trkpt>
      <trkpt lat="45.6169" lon="4.7576">
        <ele>230</ele>
        <time>2012-09-28T10:37:51.063Z</time>
      </trkpt>
      <trkpt lat="45.61689" lon="4.75752">
        <ele>231</ele>
        <time>2012-09-28T10:37:58.063Z</time>
      </trkpt>
      <trkpt lat="45.61688" lon="4.75745">
        <ele>236</ele>
        <time>2012-09-28T10:38:03.063Z</time>
      </trkpt>
      <trkpt lat="45.61685" lon="4.7574">
        <ele>236</ele>
        <time>2012-09-28T10:38:17.057Z</time>
      </trkpt>
      <trkpt lat="45.61685" lon="4.75732">
        <ele>236</ele>
        <time>2012-09-28T10:38:21.057Z</time>
      </trkpt>
      <trkpt lat="45.61689" lon="4.75725">
        <ele>236</ele>
        <time>2012-09-28T10:38:27.057Z</time>
      </trkpt>
      <trkpt lat="45.61684" lon="4.75723">
        <ele>236</ele>
        <time>2012-09-28T10:38:36.057Z</time>
      </trkpt>
      <trkpt lat="45.61678" lon="4.75726">
        <ele>236</ele>
        <time>2012-09-28T10:38:41.057Z</time>
      </trkpt>
      <trkpt lat="45.61674" lon="4.75723">
        <ele>237</ele>
        <time>2012-09-28T10:38:54.057Z</time>
      </trkpt>
      <trkpt lat="45.61669" lon="4.75724">
        <ele>237</ele>
        <time>2012-09-28T10:39:02.057Z</time>
      </trkpt>
      <trkpt lat="45.61664" lon="4.75726">
        <ele>239</ele>
        <time>2012-09-28T10:39:11.072Z</time>
      </trkpt>
      <trkpt lat="45.6166" lon="4.75727">
        <ele>239</ele>
        <time>2012-09-28T10:39:17.072Z</time>
      </trkpt>
      <trkpt lat="45.61655" lon="4.75724">
        <ele>240</ele>
        <time>2012-09-28T10:39:23.072Z</time>
      </trkpt>
      <trkpt lat="45.61652" lon="4.7572">
        <ele>240</ele>
        <time>2012-09-28T10:39:32.072Z</time>
      </trkpt>
      <trkpt lat="45.61647" lon="4.75714">
        <ele>241</ele>
        <time>2012-09-28T10:39:37.072Z</time>
      </trkpt>
      <trkpt lat="45.61646" lon="4.75706">
        <ele>241</ele>
        <time>2012-09-28T10:39:43.072Z</time>
      </trkpt>
      <trkpt lat="45.61646" lon="4.75698">
        <ele>242</ele>
        <time>2012-09-28T10:39:48.072Z</time>
      </trkpt>
      <trkpt lat="45.61647" lon="4.7569">
        <ele>242</ele>
        <time>2012-09-28T10:39:52.072Z</time>
      </trkpt>
      <trkpt lat="45.61647" lon="4.75684">
        <ele>242</ele>
        <time>2012-09-28T10:39:56.072Z</time>
      </trkpt>
      <trkpt lat="45.61648" lon="4.75677">
        <ele>243</ele>
        <time>2012-09-28T10:40:00.072Z</time>
      </trkpt>
      <trkpt lat="45.61647" lon="4.7567">
        <ele>243</ele>
        <time>2012-09-28T10:40:03.072Z</time>
      </trkpt>
      <trkpt lat="45.61646" lon="4.75663">
        <ele>246</ele>
        <time>2012-09-28T10:40:06.072Z</time>
      </trkpt>
      <trkpt lat="45.61646" lon="4.75656">
        <ele>246</ele>
        <time>2012-09-28T10:40:09.072Z</time>
      </trkpt>
      <trkpt lat="45.61646" lon="4.75649">
        <ele>246</ele>
        <time>2012-09-28T10:40:13.072Z</time>
      </trkpt>
      <trkpt lat="45.61644" lon="4.75643">
        <ele>246</ele>
        <time>2012-09-28T10:40:17.072Z</time>
      </trkpt>
      <trkpt lat="45.61642" lon="4.75636">
        <ele>247</ele>
        <time>2012-09-28T10:40:21.072Z</time>
      </trkpt>
      <trkpt lat="45.61641" lon="4.75629">
        <ele>247</ele>
        <time>2012-09-28T10:40:24.072Z</time>
      </trkpt>
      <trkpt lat="45.6164" lon="4.75622">
        <ele>247</ele>
        <time>2012-09-28T10:40:28.072Z</time>
      </trkpt>
      <trkpt lat="45.61639" lon="4.75615">
        <ele>247</ele>
        <time>2012-09-28T10:40:32.072Z</time>
      </trkpt>
      <trkpt lat="45.61638" lon="4.75607">
        <ele>247</ele>
        <time>2012-09-28T10:40:36.072Z</time>
      </trkpt>
      <trkpt lat="45.61637" lon="4.75601">
        <ele>247</ele>
        <time>2012-09-28T10:40:39.072Z</time>
      </trkpt>
      <trkpt lat="45.61636" lon="4.75592">
        <ele>248</ele>
        <time>2012-09-28T10:40:43.072Z</time>
      </trkpt>
      <trkpt lat="45.61635" lon="4.75585">
        <ele>248</ele>
        <time>2012-09-28T10:40:47.072Z</time>
      </trkpt>
      <trkpt lat="45.61635" lon="4.75577">
        <ele>250</ele>
        <time>2012-09-28T10:40:51.072Z</time>
      </trkpt>
      <trkpt lat="45.61636" lon="4.7557">
        <ele>250</ele>
        <time>2012-09-28T10:40:55.072Z</time>
      </trkpt>
      <trkpt lat="45.61636" lon="4.75562">
        <ele>250</ele>
        <time>2012-09-28T10:40:59.072Z</time>
      </trkpt>
      <trkpt lat="45.61636" lon="4.75555">
        <ele>251</ele>
        <time>2012-09-28T10:41:02.072Z</time>
      </trkpt>
      <trkpt lat="45.61636" lon="4.75548">
        <ele>251</ele>
        <time>2012-09-28T10:41:06.072Z</time>
      </trkpt>
      <trkpt lat="45.61637" lon="4.75539">
        <ele>251</ele>
        <time>2012-09-28T10:41:11.102Z</time>
      </trkpt>
      <trkpt lat="45.61637" lon="4.75531">
        <ele>251</ele>
        <time>2012-09-28T10:41:15.102Z</time>
      </trkpt>
      <trkpt lat="45.61637" lon="4.75523">
        <ele>251</ele>
        <time>2012-09-28T10:41:19.102Z</time>
      </trkpt>
      <trkpt lat="45.61638" lon="4.75515">
        <ele>252</ele>
        <time>2012-09-28T10:41:23.102Z</time>
      </trkpt>
      <trkpt lat="45.61638" lon="4.75508">
        <ele>252</ele>
        <time>2012-09-28T10:41:27.102Z</time>
      </trkpt>
      <trkpt lat="45.61638" lon="4.75499">
        <ele>253</ele>
        <time>2012-09-28T10:41:31.102Z</time>
      </trkpt>
      <trkpt lat="45.61638" lon="4.75491">
        <ele>254</ele>
        <time>2012-09-28T10:41:35.102Z</time>
      </trkpt>
      <trkpt lat="45.61639" lon="4.75484">
        <ele>254</ele>
        <time>2012-09-28T10:41:38.102Z</time>
      </trkpt>
      <trkpt lat="45.61639" lon="4.75476">
        <ele>254</ele>
        <time>2012-09-28T10:41:41.102Z</time>
      </trkpt>
      <trkpt lat="45.61639" lon="4.75468">
        <ele>254</ele>
        <time>2012-09-28T10:41:44.102Z</time>
      </trkpt>
      <trkpt lat="45.61639" lon="4.75461">
        <ele>254</ele>
        <time>2012-09-28T10:41:47.102Z</time>
      </trkpt>
      <trkpt lat="45.61639" lon="4.75454">
        <ele>254</ele>
        <time>2012-09-28T10:41:50.102Z</time>
      </trkpt>
      <trkpt lat="45.61639" lon="4.75447">
        <ele>254</ele>
        <time>2012-09-28T10:41:53.102Z</time>
      </trkpt>
      <trkpt lat="45.61639" lon="4.75439">
        <ele>254</ele>
        <time>2012-09-28T10:41:56.102Z</time>
      </trkpt>
      <trkpt lat="45.61639" lon="4.75432">
        <ele>255</ele>
        <time>2012-09-28T10:41:59.102Z</time>
      </trkpt>
      <trkpt lat="45.61639" lon="4.75425">
        <ele>255</ele>
        <time>2012-09-28T10:42:02.102Z</time>
      </trkpt>
      <trkpt lat="45.6164" lon="4.75418">
        <ele>255</ele>
        <time>2012-09-28T10:42:05.102Z</time>
      </trkpt>
      <trkpt lat="45.6164" lon="4.75411">
        <ele>257</ele>
        <time>2012-09-28T10:42:08.102Z</time>
      </trkpt>
      <trkpt lat="45.61639" lon="4.75404">
        <ele>257</ele>
        <time>2012-09-28T10:42:11.082Z</time>
      </trkpt>
      <trkpt lat="45.61639" lon="4.75397">
        <ele>257</ele>
        <time>2012-09-28T10:42:14.082Z</time>
      </trkpt>
      <trkpt lat="45.61639" lon="4.7539">
        <ele>257</ele>
        <time>2012-09-28T10:42:17.082Z</time>
      </trkpt>
      <trkpt lat="45.61639" lon="4.75383">
        <ele>257</ele>
        <time>2012-09-28T10:42:20.082Z</time>
      </trkpt>
      <trkpt lat="45.61639" lon="4.75376">
        <ele>258</ele>
        <time>2012-09-28T10:42:23.082Z</time>
      </trkpt>
      <trkpt lat="45.6164" lon="4.75369">
        <ele>258</ele>
        <time>2012-09-28T10:42:26.082Z</time>
      </trkpt>
      <trkpt lat="45.61642" lon="4.75362">
        <ele>258</ele>
        <time>2012-09-28T10:42:29.082Z</time>
      </trkpt>
      <trkpt lat="45.61646" lon="4.75357">
        <ele>258</ele>
        <time>2012-09-28T10:42:32.082Z</time>
      </trkpt>
      <trkpt lat="45.6165" lon="4.75353">
        <ele>258</ele>
        <time>2012-09-28T10:42:35.082Z</time>
      </trkpt>
      <trkpt lat="45.61653" lon="4.75347">
        <ele>258</ele>
        <time>2012-09-28T10:42:38.082Z</time>
      </trkpt>
      <trkpt lat="45.61656" lon="4.75342">
        <ele>259</ele>
        <time>2012-09-28T10:42:41.082Z</time>
      </trkpt>
      <trkpt lat="45.61659" lon="4.75337">
        <ele>259</ele>
        <time>2012-09-28T10:42:44.082Z</time>
      </trkpt>
      <trkpt lat="45.61662" lon="4.75332">
        <ele>260</ele>
        <time>2012-09-28T10:42:47.082Z</time>
      </trkpt>
      <trkpt lat="45.61664" lon="4.75325">
        <ele>260</ele>
        <time>2012-09-28T10:42:50.082Z</time>
      </trkpt>
      <trkpt lat="45.61666" lon="4.7532">
        <ele>261</ele>
        <time>2012-09-28T10:42:53.082Z</time>
      </trkpt>
      <trkpt lat="45.61668" lon="4.75314">
        <ele>261</ele>
        <time>2012-09-28T10:42:56.082Z</time>
      </trkpt>
      <trkpt lat="45.61671" lon="4.75308">
        <ele>262</ele>
        <time>2012-09-28T10:42:59.082Z</time>
      </trkpt>
      <trkpt lat="45.61675" lon="4.75303">
        <ele>262</ele>
        <time>2012-09-28T10:43:03.082Z</time>
      </trkpt>
      <trkpt lat="45.61679" lon="4.75296">
        <ele>263</ele>
        <time>2012-09-28T10:43:07.082Z</time>
      </trkpt>
      <trkpt lat="45.61683" lon="4.75289">
        <ele>264</ele>
        <time>2012-09-28T10:43:11.063Z</time>
      </trkpt>
      <trkpt lat="45.61687" lon="4.75284">
        <ele>264</ele>
        <time>2012-09-28T10:43:15.063Z</time>
      </trkpt>
      <trkpt lat="45.61691" lon="4.75277">
        <ele>264</ele>
        <time>2012-09-28T10:43:19.063Z</time>
      </trkpt>
      <trkpt lat="45.61693" lon="4.75272">
        <ele>264</ele>
        <time>2012-09-28T10:43:22.063Z</time>
      </trkpt>
      <trkpt lat="45.61695" lon="4.75266">
        <ele>265</ele>
        <time>2012-09-28T10:43:25.063Z</time>
      </trkpt>
      <trkpt lat="45.61697" lon="4.7526">
        <ele>265</ele>
        <time>2012-09-28T10:43:28.063Z</time>
      </trkpt>
      <trkpt lat="45.61699" lon="4.75254">
        <ele>265</ele>
        <time>2012-09-28T10:43:31.063Z</time>
      </trkpt>
      <trkpt lat="45.617" lon="4.75247">
        <ele>270</ele>
        <time>2012-09-28T10:43:34.063Z</time>
      </trkpt>
      <trkpt lat="45.61703" lon="4.75241">
        <ele>270</ele>
        <time>2012-09-28T10:43:37.063Z</time>
      </trkpt>
      <trkpt lat="45.61706" lon="4.75235">
        <ele>270</ele>
        <time>2012-09-28T10:43:40.063Z</time>
      </trkpt>
      <trkpt lat="45.61709" lon="4.7523">
        <ele>270</ele>
        <time>2012-09-28T10:43:43.063Z</time>
      </trkpt>
      <trkpt lat="45.6171" lon="4.75221">
        <ele>270</ele>
        <time>2012-09-28T10:43:47.063Z</time>
      </trkpt>
      <trkpt lat="45.61711" lon="4.75214">
        <ele>270</ele>
        <time>2012-09-28T10:43:51.063Z</time>
      </trkpt>
      <trkpt lat="45.61712" lon="4.75207">
        <ele>271</ele>
        <time>2012-09-28T10:43:55.063Z</time>
      </trkpt>
      <trkpt lat="45.61713" lon="4.75199">
        <ele>271</ele>
        <time>2012-09-28T10:43:59.063Z</time>
      </trkpt>
      <trkpt lat="45.61715" lon="4.75193">
        <ele>271</ele>
        <time>2012-09-28T10:44:02.063Z</time>
      </trkpt>
      <trkpt lat="45.61717" lon="4.75186">
        <ele>271</ele>
        <time>2012-09-28T10:44:05.063Z</time>
      </trkpt>
      <trkpt lat="45.61719" lon="4.7518">
        <ele>271</ele>
        <time>2012-09-28T10:44:08.063Z</time>
      </trkpt>
      <trkpt lat="45.61722" lon="4.75174">
        <ele>272</ele>
        <time>2012-09-28T10:44:11.083Z</time>
      </trkpt>
      <trkpt lat="45.61725" lon="4.75168">
        <ele>272</ele>
        <time>2012-09-28T10:44:14.083Z</time>
      </trkpt>
      <trkpt lat="45.61728" lon="4.75162">
        <ele>274</ele>
        <time>2012-09-28T10:44:17.083Z</time>
      </trkpt>
      <trkpt lat="45.61731" lon="4.75157">
        <ele>274</ele>
        <time>2012-09-28T10:44:20.083Z</time>
      </trkpt>
      <trkpt lat="45.61735" lon="4.75152">
        <ele>274</ele>
        <time>2012-09-28T10:44:23.083Z</time>
      </trkpt>
      <trkpt lat="45.61738" lon="4.75146">
        <ele>274</ele>
        <time>2012-09-28T10:44:26.083Z</time>
      </trkpt>
      <trkpt lat="45.61741" lon="4.7514">
        <ele>274</ele>
        <time>2012-09-28T10:44:29.083Z</time>
      </trkpt>
      <trkpt lat="45.61744" lon="4.75134">
        <ele>274</ele>
        <time>2012-09-28T10:44:32.083Z</time>
      </trkpt>
      <trkpt lat="45.61746" lon="4.75128">
        <ele>274</ele>
        <time>2012-09-28T10:44:35.083Z</time>
      </trkpt>
      <trkpt lat="45.61748" lon="4.75121">
        <ele>275</ele>
        <time>2012-09-28T10:44:38.083Z</time>
      </trkpt>
      <trkpt lat="45.6175" lon="4.75114">
        <ele>275</ele>
        <time>2012-09-28T10:44:41.083Z</time>
      </trkpt>
      <trkpt lat="45.6175" lon="4.75107">
        <ele>275</ele>
        <time>2012-09-28T10:44:44.083Z</time>
      </trkpt>
      <trkpt lat="45.6175" lon="4.75099">
        <ele>275</ele>
        <time>2012-09-28T10:44:47.083Z</time>
      </trkpt>
      <trkpt lat="45.61749" lon="4.75091">
        <ele>276</ele>
        <time>2012-09-28T10:44:50.083Z</time>
      </trkpt>
      <trkpt lat="45.61748" lon="4.75084">
        <ele>276</ele>
        <time>2012-09-28T10:44:53.083Z</time>
      </trkpt>
      <trkpt lat="45.61746" lon="4.75078">
        <ele>276</ele>
        <time>2012-09-28T10:44:56.083Z</time>
      </trkpt>
      <trkpt lat="45.61746" lon="4.75071">
        <ele>276</ele>
        <time>2012-09-28T10:44:59.083Z</time>
      </trkpt>
      <trkpt lat="45.61747" lon="4.75064">
        <ele>276</ele>
        <time>2012-09-28T10:45:01.083Z</time>
      </trkpt>
      <trkpt lat="45.6175" lon="4.75056">
        <ele>276</ele>
        <time>2012-09-28T10:45:03.083Z</time>
      </trkpt>
      <trkpt lat="45.61753" lon="4.75049">
        <ele>276</ele>
        <time>2012-09-28T10:45:05.083Z</time>
      </trkpt>
      <trkpt lat="45.61757" lon="4.75044">
        <ele>276</ele>
        <time>2012-09-28T10:45:07.083Z</time>
      </trkpt>
      <trkpt lat="45.61761" lon="4.75037">
        <ele>276</ele>
        <time>2012-09-28T10:45:09.083Z</time>
      </trkpt>
      <trkpt lat="45.61765" lon="4.75031">
        <ele>276</ele>
        <time>2012-09-28T10:45:11.103Z</time>
      </trkpt>
      <trkpt lat="45.6177" lon="4.75024">
        <ele>276</ele>
        <time>2012-09-28T10:45:13.103Z</time>
      </trkpt>
      <trkpt lat="45.61774" lon="4.7502">
        <ele>276</ele>
        <time>2012-09-28T10:45:14.103Z</time>
      </trkpt>
      <trkpt lat="45.61778" lon="4.75012">
        <ele>276</ele>
        <time>2012-09-28T10:45:16.103Z</time>
      </trkpt>
      <trkpt lat="45.61784" lon="4.75004">
        <ele>276</ele>
        <time>2012-09-28T10:45:18.103Z</time>
      </trkpt>
      <trkpt lat="45.61789" lon="4.74997">
        <ele>278</ele>
        <time>2012-09-28T10:45:20.103Z</time>
      </trkpt>
      <trkpt lat="45.61794" lon="4.74991">
        <ele>278</ele>
        <time>2012-09-28T10:45:22.103Z</time>
      </trkpt>
      <trkpt lat="45.618" lon="4.74984">
        <ele>278</ele>
        <time>2012-09-28T10:45:24.103Z</time>
      </trkpt>
      <trkpt lat="45.61804" lon="4.74977">
        <ele>278</ele>
        <time>2012-09-28T10:45:26.103Z</time>
      </trkpt>
      <trkpt lat="45.6181" lon="4.74971">
        <ele>278</ele>
        <time>2012-09-28T10:45:28.103Z</time>
      </trkpt>
      <trkpt lat="45.61816" lon="4.74964">
        <ele>278</ele>
        <time>2012-09-28T10:45:30.103Z</time>
      </trkpt>
      <trkpt lat="45.61822" lon="4.74961">
        <ele>278</ele>
        <time>2012-09-28T10:45:32.103Z</time>
      </trkpt>
      <trkpt lat="45.61828" lon="4.74956">
        <ele>278</ele>
        <time>2012-09-28T10:45:34.103Z</time>
      </trkpt>
      <trkpt lat="45.61833" lon="4.74952">
        <ele>278</ele>
        <time>2012-09-28T10:45:36.103Z</time>
      </trkpt>
      <trkpt lat="45.61839" lon="4.74948">
        <ele>278</ele>
        <time>2012-09-28T10:45:38.103Z</time>
      </trkpt>
      <trkpt lat="45.61844" lon="4.74944">
        <ele>278</ele>
        <time>2012-09-28T10:45:40.103Z</time>
      </trkpt>
      <trkpt lat="45.61849" lon="4.7494">
        <ele>278</ele>
        <time>2012-09-28T10:45:42.103Z</time>
      </trkpt>
      <trkpt lat="45.61855" lon="4.74935">
        <ele>278</ele>
        <time>2012-09-28T10:45:44.103Z</time>
      </trkpt>
      <trkpt lat="45.6186" lon="4.74929">
        <ele>278</ele>
        <time>2012-09-28T10:45:46.103Z</time>
      </trkpt>
      <trkpt lat="45.61865" lon="4.74924">
        <ele>278</ele>
        <time>2012-09-28T10:45:48.103Z</time>
      </trkpt>
      <trkpt lat="45.61871" lon="4.7492">
        <ele>278</ele>
        <time>2012-09-28T10:45:50.103Z</time>
      </trkpt>
      <trkpt lat="45.61874" lon="4.74912">
        <ele>281</ele>
        <time>2012-09-28T10:45:52.103Z</time>
      </trkpt>
      <trkpt lat="45.61879" lon="4.74907">
        <ele>281</ele>
        <time>2012-09-28T10:45:54.103Z</time>
      </trkpt>
      <trkpt lat="45.61883" lon="4.74901">
        <ele>281</ele>
        <time>2012-09-28T10:45:56.103Z</time>
      </trkpt>
      <trkpt lat="45.61888" lon="4.74894">
        <ele>281</ele>
        <time>2012-09-28T10:45:58.103Z</time>
      </trkpt>
      <trkpt lat="45.61892" lon="4.74888">
        <ele>281</ele>
        <time>2012-09-28T10:46:00.103Z</time>
      </trkpt>
      <trkpt lat="45.61894" lon="4.74878">
        <ele>282</ele>
        <time>2012-09-28T10:46:02.103Z</time>
      </trkpt>
      <trkpt lat="45.61898" lon="4.7487">
        <ele>282</ele>
        <time>2012-09-28T10:46:04.103Z</time>
      </trkpt>
      <trkpt lat="45.619" lon="4.74863">
        <ele>282</ele>
        <time>2012-09-28T10:46:06.103Z</time>
      </trkpt>
      <trkpt lat="45.61902" lon="4.74855">
        <ele>282</ele>
        <time>2012-09-28T10:46:08.103Z</time>
      </trkpt>
      <trkpt lat="45.61905" lon="4.74845">
        <ele>283</ele>
        <time>2012-09-28T10:46:11.064Z</time>
      </trkpt>
      <trkpt lat="45.61908" lon="4.74839">
        <ele>283</ele>
        <time>2012-09-28T10:46:13.064Z</time>
      </trkpt>
      <trkpt lat="45.61904" lon="4.74832">
        <ele>285</ele>
        <time>2012-09-28T10:46:16.064Z</time>
      </trkpt>
      <trkpt lat="45.61898" lon="4.7483">
        <ele>285</ele>
        <time>2012-09-28T10:46:19.064Z</time>
      </trkpt>
      <trkpt lat="45.61893" lon="4.74828">
        <ele>285</ele>
        <time>2012-09-28T10:46:21.064Z</time>
      </trkpt>
      <trkpt lat="45.61889" lon="4.74825">
        <ele>285</ele>
        <time>2012-09-28T10:46:23.064Z</time>
      </trkpt>
      <trkpt lat="45.61885" lon="4.74821">
        <ele>285</ele>
        <time>2012-09-28T10:46:25.064Z</time>
      </trkpt>
      <trkpt lat="45.6188" lon="4.74817">
        <ele>285</ele>
        <time>2012-09-28T10:46:27.064Z</time>
      </trkpt>
      <trkpt lat="45.61875" lon="4.74812">
        <ele>285</ele>
        <time>2012-09-28T10:46:30.064Z</time>
      </trkpt>
      <trkpt lat="45.6187" lon="4.74809">
        <ele>286</ele>
        <time>2012-09-28T10:46:32.064Z</time>
      </trkpt>
      <trkpt lat="45.61866" lon="4.74806">
        <ele>286</ele>
        <time>2012-09-28T10:46:34.064Z</time>
      </trkpt>
      <trkpt lat="45.61861" lon="4.74803">
        <ele>286</ele>
        <time>2012-09-28T10:46:36.064Z</time>
      </trkpt>
      <trkpt lat="45.61857" lon="4.74799">
        <ele>286</ele>
        <time>2012-09-28T10:46:38.064Z</time>
      </trkpt>
      <trkpt lat="45.61852" lon="4.74795">
        <ele>286</ele>
        <time>2012-09-28T10:46:41.064Z</time>
      </trkpt>
      <trkpt lat="45.61847" lon="4.74791">
        <ele>286</ele>
        <time>2012-09-28T10:46:44.064Z</time>
      </trkpt>
      <trkpt lat="45.61841" lon="4.74788">
        <ele>286</ele>
        <time>2012-09-28T10:46:47.064Z</time>
      </trkpt>
      <trkpt lat="45.61836" lon="4.74784">
        <ele>286</ele>
        <time>2012-09-28T10:46:50.064Z</time>
      </trkpt>
      <trkpt lat="45.6183" lon="4.74782">
        <ele>288</ele>
        <time>2012-09-28T10:46:53.064Z</time>
      </trkpt>
      <trkpt lat="45.61824" lon="4.74778">
        <ele>288</ele>
        <time>2012-09-28T10:46:56.064Z</time>
      </trkpt>
      <trkpt lat="45.61819" lon="4.74775">
        <ele>288</ele>
        <time>2012-09-28T10:46:59.064Z</time>
      </trkpt>
      <trkpt lat="45.61814" lon="4.74772">
        <ele>288</ele>
        <time>2012-09-28T10:47:02.064Z</time>
      </trkpt>
      <trkpt lat="45.61808" lon="4.74769">
        <ele>288</ele>
        <time>2012-09-28T10:47:05.064Z</time>
      </trkpt>
      <trkpt lat="45.61801" lon="4.74767">
        <ele>288</ele>
        <time>2012-09-28T10:47:08.064Z</time>
      </trkpt>
      <trkpt lat="45.61795" lon="4.74766">
        <ele>289</ele>
        <time>2012-09-28T10:47:11.063Z</time>
      </trkpt>
      <trkpt lat="45.6179" lon="4.74766">
        <ele>289</ele>
        <time>2012-09-28T10:47:13.063Z</time>
      </trkpt>
      <trkpt lat="45.61786" lon="4.74766">
        <ele>289</ele>
        <time>2012-09-28T10:47:15.063Z</time>
      </trkpt>
      <trkpt lat="45.6178" lon="4.74766">
        <ele>289</ele>
        <time>2012-09-28T10:47:17.063Z</time>
      </trkpt>
      <trkpt lat="45.61776" lon="4.74766">
        <ele>289</ele>
        <time>2012-09-28T10:47:19.063Z</time>
      </trkpt>
      <trkpt lat="45.61771" lon="4.74766">
        <ele>289</ele>
        <time>2012-09-28T10:47:21.063Z</time>
      </trkpt>
      <trkpt lat="45.61766" lon="4.74766">
        <ele>289</ele>
        <time>2012-09-28T10:47:23.063Z</time>
      </trkpt>
      <trkpt lat="45.61759" lon="4.74764">
        <ele>290</ele>
        <time>2012-09-28T10:47:26.063Z</time>
      </trkpt>
      <trkpt lat="45.61755" lon="4.74758">
        <ele>290</ele>
        <time>2012-09-28T10:47:29.063Z</time>
      </trkpt>
      <trkpt lat="45.61752" lon="4.74752">
        <ele>291</ele>
        <time>2012-09-28T10:47:32.063Z</time>
      </trkpt>
      <trkpt lat="45.6175" lon="4.74744">
        <ele>290</ele>
        <time>2012-09-28T10:47:35.063Z</time>
      </trkpt>
      <trkpt lat="45.61748" lon="4.74738">
        <ele>290</ele>
        <time>2012-09-28T10:47:37.063Z</time>
      </trkpt>
      <trkpt lat="45.61746" lon="4.74729">
        <ele>289</ele>
        <time>2012-09-28T10:47:39.063Z</time>
      </trkpt>
      <trkpt lat="45.61744" lon="4.74717">
        <ele>289</ele>
        <time>2012-09-28T10:47:41.063Z</time>
      </trkpt>
      <trkpt lat="45.61742" lon="4.7471">
        <ele>289</ele>
        <time>2012-09-28T10:47:42.063Z</time>
      </trkpt>
      <trkpt lat="45.61739" lon="4.74702">
        <ele>289</ele>
        <time>2012-09-28T10:47:43.063Z</time>
      </trkpt>
      <trkpt lat="45.61736" lon="4.74696">
        <ele>288</ele>
        <time>2012-09-28T10:47:44.063Z</time>
      </trkpt>
      <trkpt lat="45.61732" lon="4.74691">
        <ele>288</ele>
        <time>2012-09-28T10:47:45.063Z</time>
      </trkpt>
      <trkpt lat="45.61724" lon="4.74689">
        <ele>288</ele>
        <time>2012-09-28T10:47:46.063Z</time>
      </trkpt>
      <trkpt lat="45.61719" lon="4.74683">
        <ele>288</ele>
        <time>2012-09-28T10:47:47.063Z</time>
      </trkpt>
      <trkpt lat="45.61714" lon="4.74678">
        <ele>288</ele>
        <time>2012-09-28T10:47:48.063Z</time>
      </trkpt>
      <trkpt lat="45.61709" lon="4.74673">
        <ele>288</ele>
        <time>2012-09-28T10:47:49.063Z</time>
      </trkpt>
      <trkpt lat="45.61705" lon="4.74667">
        <ele>288</ele>
        <time>2012-09-28T10:47:50.063Z</time>
      </trkpt>
      <trkpt lat="45.617" lon="4.7466">
        <ele>287</ele>
        <time>2012-09-28T10:47:51.063Z</time>
      </trkpt>
      <trkpt lat="45.61697" lon="4.74654">
        <ele>287</ele>
        <time>2012-09-28T10:47:52.063Z</time>
      </trkpt>
      <trkpt lat="45.61692" lon="4.74648">
        <ele>287</ele>
        <time>2012-09-28T10:47:53.063Z</time>
      </trkpt>
      <trkpt lat="45.61686" lon="4.74646">
        <ele>286</ele>
        <time>2012-09-28T10:47:54.063Z</time>
      </trkpt>
      <trkpt lat="45.6168" lon="4.74643">
        <ele>286</ele>
        <time>2012-09-28T10:47:55.063Z</time>
      </trkpt>
      <trkpt lat="45.61674" lon="4.7464">
        <ele>286</ele>
        <time>2012-09-28T10:47:56.063Z</time>
      </trkpt>
      <trkpt lat="45.6167" lon="4.74637">
        <ele>286</ele>
        <time>2012-09-28T10:47:57.063Z</time>
      </trkpt>
      <trkpt lat="45.61664" lon="4.74633">
        <ele>283</ele>
        <time>2012-09-28T10:47:58.063Z</time>
      </trkpt>
      <trkpt lat="45.61657" lon="4.74628">
        <ele>283</ele>
        <time>2012-09-28T10:47:59.063Z</time>
      </trkpt>
      <trkpt lat="45.6165" lon="4.74623">
        <ele>283</ele>
        <time>2012-09-28T10:48:00.063Z</time>
      </trkpt>
      <trkpt lat="45.61643" lon="4.74619">
        <ele>283</ele>
        <time>2012-09-28T10:48:01.063Z</time>
      </trkpt>
      <trkpt lat="45.61635" lon="4.74616">
        <ele>283</ele>
        <time>2012-09-28T10:48:02.063Z</time>
      </trkpt>
      <trkpt lat="45.61627" lon="4.74613">
        <ele>282</ele>
        <time>2012-09-28T10:48:03.063Z</time>
      </trkpt>
      <trkpt lat="45.61619" lon="4.74609">
        <ele>282</ele>
        <time>2012-09-28T10:48:04.063Z</time>
      </trkpt>
      <trkpt lat="45.61612" lon="4.74603">
        <ele>282</ele>
        <time>2012-09-28T10:48:05.063Z</time>
      </trkpt>
      <trkpt lat="45.61606" lon="4.74596">
        <ele>281</ele>
        <time>2012-09-28T10:48:06.063Z</time>
      </trkpt>
      <trkpt lat="45.616" lon="4.74587">
        <ele>281</ele>
        <time>2012-09-28T10:48:07.063Z</time>
      </trkpt>
      <trkpt lat="45.61594" lon="4.74579">
        <ele>281</ele>
        <time>2012-09-28T10:48:08.063Z</time>
      </trkpt>
      <trkpt lat="45.61589" lon="4.74571">
        <ele>281</ele>
        <time>2012-09-28T10:48:09.063Z</time>
      </trkpt>
      <trkpt lat="45.61577" lon="4.74555">
        <ele>280</ele>
        <time>2012-09-28T10:48:11.283Z</time>
      </trkpt>
      <trkpt lat="45.61572" lon="4.74548">
        <ele>280</ele>
        <time>2012-09-28T10:48:12.283Z</time>
      </trkpt>
      <trkpt lat="45.61568" lon="4.74541">
        <ele>281</ele>
        <time>2012-09-28T10:48:13.283Z</time>
      </trkpt>
      <trkpt lat="45.61564" lon="4.74535">
        <ele>281</ele>
        <time>2012-09-28T10:48:14.283Z</time>
      </trkpt>
      <trkpt lat="45.61559" lon="4.74529">
        <ele>281</ele>
        <time>2012-09-28T10:48:15.283Z</time>
      </trkpt>
      <trkpt lat="45.61556" lon="4.74524">
        <ele>281</ele>
        <time>2012-09-28T10:48:16.283Z</time>
      </trkpt>
      <trkpt lat="45.61553" lon="4.74518">
        <ele>281</ele>
        <time>2012-09-28T10:48:17.283Z</time>
      </trkpt>
      <trkpt lat="45.6155" lon="4.74511">
        <ele>281</ele>
        <time>2012-09-28T10:48:18.283Z</time>
      </trkpt>
      <trkpt lat="45.61546" lon="4.74505">
        <ele>281</ele>
        <time>2012-09-28T10:48:19.283Z</time>
      </trkpt>
      <trkpt lat="45.61543" lon="4.74499">
        <ele>284</ele>
        <time>2012-09-28T10:48:20.283Z</time>
      </trkpt>
      <trkpt lat="45.61541" lon="4.74492">
        <ele>284</ele>
        <time>2012-09-28T10:48:21.283Z</time>
      </trkpt>
      <trkpt lat="45.61539" lon="4.74486">
        <ele>284</ele>
        <time>2012-09-28T10:48:22.283Z</time>
      </trkpt>
      <trkpt lat="45.61537" lon="4.74479">
        <ele>284</ele>
        <time>2012-09-28T10:48:23.283Z</time>
      </trkpt>
      <trkpt lat="45.61531" lon="4.74467">
        <ele>284</ele>
        <time>2012-09-28T10:48:25.283Z</time>
      </trkpt>
      <trkpt lat="45.6153" lon="4.74461">
        <ele>285</ele>
        <time>2012-09-28T10:48:26.283Z</time>
      </trkpt>
      <trkpt lat="45.61522" lon="4.74458">
        <ele>284</ele>
        <time>2012-09-28T10:48:28.283Z</time>
      </trkpt>
      <trkpt lat="45.61515" lon="4.74453">
        <ele>285</ele>
        <time>2012-09-28T10:48:30.283Z</time>
      </trkpt>
      <trkpt lat="45.61507" lon="4.74449">
        <ele>285</ele>
        <time>2012-09-28T10:48:32.283Z</time>
      </trkpt>
      <trkpt lat="45.61498" lon="4.74448">
        <ele>280</ele>
        <time>2012-09-28T10:48:34.283Z</time>
      </trkpt>
      <trkpt lat="45.61493" lon="4.74448">
        <ele>280</ele>
        <time>2012-09-28T10:48:35.283Z</time>
      </trkpt>
      <trkpt lat="45.61489" lon="4.7445">
        <ele>280</ele>
        <time>2012-09-28T10:48:36.283Z</time>
      </trkpt>
      <trkpt lat="45.61487" lon="4.74458">
        <ele>280</ele>
        <time>2012-09-28T10:48:37.283Z</time>
      </trkpt>
      <trkpt lat="45.61486" lon="4.74464">
        <ele>279</ele>
        <time>2012-09-28T10:48:38.283Z</time>
      </trkpt>
      <trkpt lat="45.61484" lon="4.7447">
        <ele>279</ele>
        <time>2012-09-28T10:48:39.283Z</time>
      </trkpt>
      <trkpt lat="45.61478" lon="4.74478">
        <ele>279</ele>
        <time>2012-09-28T10:48:41.283Z</time>
      </trkpt>
      <trkpt lat="45.61471" lon="4.7448">
        <ele>279</ele>
        <time>2012-09-28T10:48:43.283Z</time>
      </trkpt>
      <trkpt lat="45.61464" lon="4.74481">
        <ele>278</ele>
        <time>2012-09-28T10:48:45.283Z</time>
      </trkpt>
      <trkpt lat="45.61457" lon="4.74482">
        <ele>278</ele>
        <time>2012-09-28T10:48:47.283Z</time>
      </trkpt>
      <trkpt lat="45.61448" lon="4.74483">
        <ele>277</ele>
        <time>2012-09-28T10:48:49.283Z</time>
      </trkpt>
      <trkpt lat="45.6144" lon="4.74484">
        <ele>277</ele>
        <time>2012-09-28T10:48:51.283Z</time>
      </trkpt>
      <trkpt lat="45.61431" lon="4.74485">
        <ele>276</ele>
        <time>2012-09-28T10:48:53.283Z</time>
      </trkpt>
      <trkpt lat="45.61426" lon="4.74487">
        <ele>276</ele>
        <time>2012-09-28T10:48:54.283Z</time>
      </trkpt>
      <trkpt lat="45.61421" lon="4.74488">
        <ele>275</ele>
        <time>2012-09-28T10:48:55.283Z</time>
      </trkpt>
      <trkpt lat="45.61414" lon="4.74489">
        <ele>270</ele>
        <time>2012-09-28T10:48:56.283Z</time>
      </trkpt>
      <trkpt lat="45.61408" lon="4.74489">
        <ele>269</ele>
        <time>2012-09-28T10:48:57.283Z</time>
      </trkpt>
      <trkpt lat="45.61403" lon="4.74489">
        <ele>268</ele>
        <time>2012-09-28T10:48:58.283Z</time>
      </trkpt>
      <trkpt lat="45.61398" lon="4.74489">
        <ele>267</ele>
        <time>2012-09-28T10:48:59.283Z</time>
      </trkpt>
      <trkpt lat="45.6139" lon="4.74498">
        <ele>266</ele>
        <time>2012-09-28T10:49:01.283Z</time>
      </trkpt>
      <trkpt lat="45.61388" lon="4.74508">
        <ele>266</ele>
        <time>2012-09-28T10:49:03.283Z</time>
      </trkpt>
      <trkpt lat="45.61382" lon="4.7451">
        <ele>265</ele>
        <time>2012-09-28T10:49:05.283Z</time>
      </trkpt>
      <trkpt lat="45.61382" lon="4.74501">
        <ele>265</ele>
        <time>2012-09-28T10:49:06.283Z</time>
      </trkpt>
      <trkpt lat="45.61381" lon="4.74494">
        <ele>264</ele>
        <time>2012-09-28T10:49:07.283Z</time>
      </trkpt>
      <trkpt lat="45.61381" lon="4.74486">
        <ele>264</ele>
        <time>2012-09-28T10:49:08.283Z</time>
      </trkpt>
      <trkpt lat="45.61382" lon="4.74474">
        <ele>264</ele>
        <time>2012-09-28T10:49:09.283Z</time>
      </trkpt>
      <trkpt lat="45.61385" lon="4.74458">
        <ele>264</ele>
        <time>2012-09-28T10:49:11.103Z</time>
      </trkpt>
      <trkpt lat="45.61386" lon="4.74451">
        <ele>264</ele>
        <time>2012-09-28T10:49:12.103Z</time>
      </trkpt>
      <trkpt lat="45.61388" lon="4.74438">
        <ele>264</ele>
        <time>2012-09-28T10:49:14.103Z</time>
      </trkpt>
      <trkpt lat="45.61388" lon="4.74431">
        <ele>264</ele>
        <time>2012-09-28T10:49:15.103Z</time>
      </trkpt>
      <trkpt lat="45.61386" lon="4.74422">
        <ele>264</ele>
        <time>2012-09-28T10:49:16.103Z</time>
      </trkpt>
      <trkpt lat="45.61386" lon="4.74414">
        <ele>266</ele>
        <time>2012-09-28T10:49:17.103Z</time>
      </trkpt>
      <trkpt lat="45.61386" lon="4.74407">
        <ele>266</ele>
        <time>2012-09-28T10:49:18.103Z</time>
      </trkpt>
      <trkpt lat="45.61383" lon="4.74401">
        <ele>266</ele>
        <time>2012-09-28T10:49:20.103Z</time>
      </trkpt>
      <trkpt lat="45.61381" lon="4.74392">
        <ele>266</ele>
        <time>2012-09-28T10:49:22.103Z</time>
      </trkpt>
      <trkpt lat="45.61378" lon="4.74386">
        <ele>266</ele>
        <time>2012-09-28T10:49:24.103Z</time>
      </trkpt>
      <trkpt lat="45.61375" lon="4.7438">
        <ele>266</ele>
        <time>2012-09-28T10:49:43.103Z</time>
      </trkpt>
      <trkpt lat="45.61372" lon="4.74374">
        <ele>266</ele>
        <time>2012-09-28T10:49:47.103Z</time>
      </trkpt>
      <trkpt lat="45.61368" lon="4.7437">
        <ele>266</ele>
        <time>2012-09-28T10:49:49.103Z</time>
      </trkpt>
      <trkpt lat="45.61362" lon="4.74367">
        <ele>266</ele>
        <time>2012-09-28T10:49:52.103Z</time>
      </trkpt>
      <trkpt lat="45.61358" lon="4.74367">
        <ele>266</ele>
        <time>2012-09-28T10:49:54.103Z</time>
      </trkpt>
      <trkpt lat="45.61351" lon="4.74368">
        <ele>265</ele>
        <time>2012-09-28T10:49:56.103Z</time>
      </trkpt>
      <trkpt lat="45.61346" lon="4.74368">
        <ele>265</ele>
        <time>2012-09-28T10:49:58.103Z</time>
      </trkpt>
      <trkpt lat="45.6134" lon="4.74368">
        <ele>265</ele>
        <time>2012-09-28T10:50:00.103Z</time>
      </trkpt>
      <trkpt lat="45.61333" lon="4.74369">
        <ele>260</ele>
        <time>2012-09-28T10:50:02.103Z</time>
      </trkpt>
      <trkpt lat="45.61327" lon="4.74373">
        <ele>260</ele>
        <time>2012-09-28T10:50:04.103Z</time>
      </trkpt>
      <trkpt lat="45.61322" lon="4.74376">
        <ele>259</ele>
        <time>2012-09-28T10:50:05.103Z</time>
      </trkpt>
      <trkpt lat="45.61318" lon="4.7438">
        <ele>259</ele>
        <time>2012-09-28T10:50:06.103Z</time>
      </trkpt>
      <trkpt lat="45.61311" lon="4.74385">
        <ele>259</ele>
        <time>2012-09-28T10:50:08.103Z</time>
      </trkpt>
      <trkpt lat="45.61302" lon="4.74394">
        <ele>258</ele>
        <time>2012-09-28T10:50:11.069Z</time>
      </trkpt>
      <trkpt lat="45.61298" lon="4.74401">
        <ele>258</ele>
        <time>2012-09-28T10:50:13.069Z</time>
      </trkpt>
      <trkpt lat="45.61292" lon="4.74403">
        <ele>258</ele>
        <time>2012-09-28T10:50:15.069Z</time>
      </trkpt>
      <trkpt lat="45.61287" lon="4.74403">
        <ele>258</ele>
        <time>2012-09-28T10:50:17.069Z</time>
      </trkpt>
      <trkpt lat="45.61282" lon="4.74406">
        <ele>258</ele>
        <time>2012-09-28T10:50:19.069Z</time>
      </trkpt>
      <trkpt lat="45.61281" lon="4.74413">
        <ele>258</ele>
        <time>2012-09-28T10:50:21.069Z</time>
      </trkpt>
      <trkpt lat="45.61286" lon="4.74418">
        <ele>255</ele>
        <time>2012-09-28T10:50:23.069Z</time>
      </trkpt>
      <trkpt lat="45.61287" lon="4.74426">
        <ele>255</ele>
        <time>2012-09-28T10:50:38.069Z</time>
      </trkpt>
      <trkpt lat="45.61288" lon="4.74433">
        <ele>255</ele>
        <time>2012-09-28T10:50:41.069Z</time>
      </trkpt>
      <trkpt lat="45.61293" lon="4.74432">
        <ele>255</ele>
        <time>2012-09-28T10:50:45.069Z</time>
      </trkpt>
      <trkpt lat="45.61298" lon="4.74435">
        <ele>255</ele>
        <time>2012-09-28T10:51:05.069Z</time>
      </trkpt>
      <trkpt lat="45.61299" lon="4.74442">
        <ele>254</ele>
        <time>2012-09-28T10:51:09.069Z</time>
      </trkpt>
      <trkpt lat="45.61301" lon="4.74448">
        <ele>254</ele>
        <time>2012-09-28T10:51:14.086Z</time>
      </trkpt>
      <trkpt lat="45.61297" lon="4.74452">
        <ele>254</ele>
        <time>2012-09-28T10:51:33.086Z</time>
      </trkpt>
      <trkpt lat="45.61296" lon="4.7446">
        <ele>254</ele>
        <time>2012-09-28T10:51:38.086Z</time>
      </trkpt>
      <trkpt lat="45.61298" lon="4.74468">
        <ele>254</ele>
        <time>2012-09-28T10:51:40.086Z</time>
      </trkpt>
      <trkpt lat="45.61297" lon="4.74476">
        <ele>254</ele>
        <time>2012-09-28T10:51:43.086Z</time>
      </trkpt>
      <trkpt lat="45.61298" lon="4.74483">
        <ele>254</ele>
        <time>2012-09-28T10:51:46.086Z</time>
      </trkpt>
      <trkpt lat="45.61299" lon="4.74489">
        <ele>254</ele>
        <time>2012-09-28T10:51:48.086Z</time>
      </trkpt>
      <trkpt lat="45.61299" lon="4.74497">
        <ele>254</ele>
        <time>2012-09-28T10:51:49.086Z</time>
      </trkpt>
      <trkpt lat="45.61299" lon="4.74505">
        <ele>252</ele>
        <time>2012-09-28T10:51:50.086Z</time>
      </trkpt>
      <trkpt lat="45.61299" lon="4.74513">
        <ele>252</ele>
        <time>2012-09-28T10:51:51.086Z</time>
      </trkpt>
      <trkpt lat="45.613" lon="4.7452">
        <ele>252</ele>
        <time>2012-09-28T10:51:52.086Z</time>
      </trkpt>
      <trkpt lat="45.61302" lon="4.74528">
        <ele>252</ele>
        <time>2012-09-28T10:51:53.086Z</time>
      </trkpt>
      <trkpt lat="45.61302" lon="4.74537">
        <ele>252</ele>
        <time>2012-09-28T10:51:54.086Z</time>
      </trkpt>
      <trkpt lat="45.61302" lon="4.74547">
        <ele>252</ele>
        <time>2012-09-28T10:51:55.086Z</time>
      </trkpt>
      <trkpt lat="45.61302" lon="4.74557">
        <ele>252</ele>
        <time>2012-09-28T10:51:56.086Z</time>
      </trkpt>
      <trkpt lat="45.61298" lon="4.74566">
        <ele>252</ele>
        <time>2012-09-28T10:51:57.086Z</time>
      </trkpt>
      <trkpt lat="45.61295" lon="4.74572">
        <ele>252</ele>
        <time>2012-09-28T10:51:58.086Z</time>
      </trkpt>
      <trkpt lat="45.61293" lon="4.74579">
        <ele>251</ele>
        <time>2012-09-28T10:51:59.086Z</time>
      </trkpt>
      <trkpt lat="45.61286" lon="4.74588">
        <ele>250</ele>
        <time>2012-09-28T10:52:01.086Z</time>
      </trkpt>
      <trkpt lat="45.6128" lon="4.74592">
        <ele>249</ele>
        <time>2012-09-28T10:52:02.086Z</time>
      </trkpt>
      <trkpt lat="45.61276" lon="4.74595">
        <ele>249</ele>
        <time>2012-09-28T10:52:03.086Z</time>
      </trkpt>
      <trkpt lat="45.61272" lon="4.74603">
        <ele>249</ele>
        <time>2012-09-28T10:52:05.086Z</time>
      </trkpt>
      <trkpt lat="45.61268" lon="4.7461">
        <ele>248</ele>
        <time>2012-09-28T10:52:07.086Z</time>
      </trkpt>
      <trkpt lat="45.61264" lon="4.74614">
        <ele>248</ele>
        <time>2012-09-28T10:52:09.086Z</time>
      </trkpt>
      <trkpt lat="45.61261" lon="4.74622">
        <ele>248</ele>
        <time>2012-09-28T10:52:12.067Z</time>
      </trkpt>
      <trkpt lat="45.61258" lon="4.74628">
        <ele>247</ele>
        <time>2012-09-28T10:52:14.067Z</time>
      </trkpt>
      <trkpt lat="45.61256" lon="4.74634">
        <ele>247</ele>
        <time>2012-09-28T10:52:16.067Z</time>
      </trkpt>
      <trkpt lat="45.61252" lon="4.74641">
        <ele>246</ele>
        <time>2012-09-28T10:52:18.067Z</time>
      </trkpt>
      <trkpt lat="45.61248" lon="4.74646">
        <ele>244</ele>
        <time>2012-09-28T10:52:20.067Z</time>
      </trkpt>
      <trkpt lat="45.61242" lon="4.74654">
        <ele>243</ele>
        <time>2012-09-28T10:52:22.067Z</time>
      </trkpt>
      <trkpt lat="45.61238" lon="4.7466">
        <ele>243</ele>
        <time>2012-09-28T10:52:24.067Z</time>
      </trkpt>
      <trkpt lat="45.61234" lon="4.74664">
        <ele>243</ele>
        <time>2012-09-28T10:52:26.067Z</time>
      </trkpt>
      <trkpt lat="45.61229" lon="4.7467">
        <ele>240</ele>
        <time>2012-09-28T10:52:28.067Z</time>
      </trkpt>
      <trkpt lat="45.61227" lon="4.74676">
        <ele>241</ele>
        <time>2012-09-28T10:52:30.067Z</time>
      </trkpt>
      <trkpt lat="45.61226" lon="4.74683">
        <ele>241</ele>
        <time>2012-09-28T10:52:32.067Z</time>
      </trkpt>
      <trkpt lat="45.61223" lon="4.74694">
        <ele>241</ele>
        <time>2012-09-28T10:52:34.067Z</time>
      </trkpt>
      <trkpt lat="45.61221" lon="4.74699">
        <ele>241</ele>
        <time>2012-09-28T10:52:35.067Z</time>
      </trkpt>
      <trkpt lat="45.61216" lon="4.74707">
        <ele>241</ele>
        <time>2012-09-28T10:52:37.067Z</time>
      </trkpt>
      <trkpt lat="45.61213" lon="4.74712">
        <ele>241</ele>
        <time>2012-09-28T10:52:38.067Z</time>
      </trkpt>
      <trkpt lat="45.6121" lon="4.74721">
        <ele>240</ele>
        <time>2012-09-28T10:52:40.067Z</time>
      </trkpt>
      <trkpt lat="45.61207" lon="4.7473">
        <ele>240</ele>
        <time>2012-09-28T10:52:42.067Z</time>
      </trkpt>
      <trkpt lat="45.61203" lon="4.74736">
        <ele>240</ele>
        <time>2012-09-28T10:52:44.067Z</time>
      </trkpt>
      <trkpt lat="45.61202" lon="4.74743">
        <ele>240</ele>
        <time>2012-09-28T10:52:45.067Z</time>
      </trkpt>
      <trkpt lat="45.61199" lon="4.74755">
        <ele>238</ele>
        <time>2012-09-28T10:52:47.067Z</time>
      </trkpt>
      <trkpt lat="45.61198" lon="4.74763">
        <ele>238</ele>
        <time>2012-09-28T10:52:48.067Z</time>
      </trkpt>
      <trkpt lat="45.61198" lon="4.74777">
        <ele>238</ele>
        <time>2012-09-28T10:52:50.067Z</time>
      </trkpt>
      <trkpt lat="45.61199" lon="4.74783">
        <ele>238</ele>
        <time>2012-09-28T10:52:51.067Z</time>
      </trkpt>
      <trkpt lat="45.61201" lon="4.74793">
        <ele>238</ele>
        <time>2012-09-28T10:52:53.067Z</time>
      </trkpt>
      <trkpt lat="45.61202" lon="4.74803">
        <ele>238</ele>
        <time>2012-09-28T10:52:55.067Z</time>
      </trkpt>
      <trkpt lat="45.61204" lon="4.7481">
        <ele>238</ele>
        <time>2012-09-28T10:52:56.067Z</time>
      </trkpt>
      <trkpt lat="45.61205" lon="4.74822">
        <ele>238</ele>
        <time>2012-09-28T10:52:58.067Z</time>
      </trkpt>
      <trkpt lat="45.61206" lon="4.74829">
        <ele>238</ele>
        <time>2012-09-28T10:52:59.067Z</time>
      </trkpt>
      <trkpt lat="45.61206" lon="4.74837">
        <ele>237</ele>
        <time>2012-09-28T10:53:01.067Z</time>
      </trkpt>
      <trkpt lat="45.61205" lon="4.74845">
        <ele>237</ele>
        <time>2012-09-28T10:53:02.067Z</time>
      </trkpt>
      <trkpt lat="45.61201" lon="4.74857">
        <ele>237</ele>
        <time>2012-09-28T10:53:04.067Z</time>
      </trkpt>
      <trkpt lat="45.61199" lon="4.74863">
        <ele>236</ele>
        <time>2012-09-28T10:53:05.067Z</time>
      </trkpt>
      <trkpt lat="45.61195" lon="4.74872">
        <ele>236</ele>
        <time>2012-09-28T10:53:06.067Z</time>
      </trkpt>
      <trkpt lat="45.6119" lon="4.74882">
        <ele>235</ele>
        <time>2012-09-28T10:53:07.067Z</time>
      </trkpt>
      <trkpt lat="45.61186" lon="4.74893">
        <ele>234</ele>
        <time>2012-09-28T10:53:08.067Z</time>
      </trkpt>
      <trkpt lat="45.61183" lon="4.74902">
        <ele>233</ele>
        <time>2012-09-28T10:53:09.067Z</time>
      </trkpt>
      <trkpt lat="45.6118" lon="4.7492">
        <ele>233</ele>
        <time>2012-09-28T10:53:11.097Z</time>
      </trkpt>
      <trkpt lat="45.61178" lon="4.74929">
        <ele>234</ele>
        <time>2012-09-28T10:53:13.097Z</time>
      </trkpt>
      <trkpt lat="45.61174" lon="4.74937">
        <ele>235</ele>
        <time>2012-09-28T10:53:15.097Z</time>
      </trkpt>
      <trkpt lat="45.61171" lon="4.74946">
        <ele>236</ele>
        <time>2012-09-28T10:53:17.097Z</time>
      </trkpt>
      <trkpt lat="45.61169" lon="4.74953">
        <ele>236</ele>
        <time>2012-09-28T10:53:19.097Z</time>
      </trkpt>
      <trkpt lat="45.61166" lon="4.7496">
        <ele>229</ele>
        <time>2012-09-28T10:53:21.097Z</time>
      </trkpt>
      <trkpt lat="45.61162" lon="4.74964">
        <ele>230</ele>
        <time>2012-09-28T10:53:23.097Z</time>
      </trkpt>
      <trkpt lat="45.61158" lon="4.7497">
        <ele>230</ele>
        <time>2012-09-28T10:53:26.097Z</time>
      </trkpt>
      <trkpt lat="45.61154" lon="4.74974">
        <ele>230</ele>
        <time>2012-09-28T10:53:29.097Z</time>
      </trkpt>
      <trkpt lat="45.6115" lon="4.74979">
        <ele>230</ele>
        <time>2012-09-28T10:53:34.097Z</time>
      </trkpt>
      <trkpt lat="45.61146" lon="4.74985">
        <ele>230</ele>
        <time>2012-09-28T10:53:38.097Z</time>
      </trkpt>
      <trkpt lat="45.61141" lon="4.74989">
        <ele>230</ele>
        <time>2012-09-28T10:53:42.097Z</time>
      </trkpt>
      <trkpt lat="45.61134" lon="4.74992">
        <ele>229</ele>
        <time>2012-09-28T10:53:45.097Z</time>
      </trkpt>
      <trkpt lat="45.61128" lon="4.74992">
        <ele>229</ele>
        <time>2012-09-28T10:53:48.097Z</time>
      </trkpt>
      <trkpt lat="45.61122" lon="4.74993">
        <ele>228</ele>
        <time>2012-09-28T10:53:52.097Z</time>
      </trkpt>
      <trkpt lat="45.61117" lon="4.74992">
        <ele>228</ele>
        <time>2012-09-28T10:53:56.097Z</time>
      </trkpt>
      <trkpt lat="45.61112" lon="4.74992">
        <ele>227</ele>
        <time>2012-09-28T10:54:00.097Z</time>
      </trkpt>
      <trkpt lat="45.61107" lon="4.74996">
        <ele>226</ele>
        <time>2012-09-28T10:54:04.097Z</time>
      </trkpt>
      <trkpt lat="45.61102" lon="4.74997">
        <ele>226</ele>
        <time>2012-09-28T10:54:07.097Z</time>
      </trkpt>
      <trkpt lat="45.61098" lon="4.75002">
        <ele>225</ele>
        <time>2012-09-28T10:54:12.071Z</time>
      </trkpt>
      <trkpt lat="45.61102" lon="4.75008">
        <ele>225</ele>
        <time>2012-09-28T10:54:16.071Z</time>
      </trkpt>
      <trkpt lat="45.61104" lon="4.75014">
        <ele>226</ele>
        <time>2012-09-28T10:54:20.071Z</time>
      </trkpt>
      <trkpt lat="45.61108" lon="4.75021">
        <ele>226</ele>
        <time>2012-09-28T10:54:25.071Z</time>
      </trkpt>
      <trkpt lat="45.61111" lon="4.75026">
        <ele>227</ele>
        <time>2012-09-28T10:54:30.071Z</time>
      </trkpt>
      <trkpt lat="45.61115" lon="4.75031">
        <ele>227</ele>
        <time>2012-09-28T10:54:34.071Z</time>
      </trkpt>
      <trkpt lat="45.61118" lon="4.75035">
        <ele>227</ele>
        <time>2012-09-28T10:54:40.071Z</time>
      </trkpt>
      <trkpt lat="45.61123" lon="4.7504">
        <ele>228</ele>
        <time>2012-09-28T10:54:44.071Z</time>
      </trkpt>
      <trkpt lat="45.61127" lon="4.75045">
        <ele>228</ele>
        <time>2012-09-28T10:54:48.071Z</time>
      </trkpt>
      <trkpt lat="45.61132" lon="4.75047">
        <ele>229</ele>
        <time>2012-09-28T10:54:52.071Z</time>
      </trkpt>
      <trkpt lat="45.61136" lon="4.7505">
        <ele>229</ele>
        <time>2012-09-28T10:54:57.071Z</time>
      </trkpt>
      <trkpt lat="45.6114" lon="4.75054">
        <ele>229</ele>
        <time>2012-09-28T10:55:03.071Z</time>
      </trkpt>
      <trkpt lat="45.61145" lon="4.75057">
        <ele>230</ele>
        <time>2012-09-28T10:55:07.071Z</time>
      </trkpt>
      <trkpt lat="45.61148" lon="4.75061">
        <ele>230</ele>
        <time>2012-09-28T10:55:11.076Z</time>
      </trkpt>
      <trkpt lat="45.61153" lon="4.75063">
        <ele>231</ele>
        <time>2012-09-28T10:55:16.076Z</time>
      </trkpt>
      <trkpt lat="45.61157" lon="4.75067">
        <ele>232</ele>
        <time>2012-09-28T10:55:22.076Z</time>
      </trkpt>
      <trkpt lat="45.6116" lon="4.7507">
        <ele>232</ele>
        <time>2012-09-28T10:55:27.076Z</time>
      </trkpt>
      <trkpt lat="45.61164" lon="4.75074">
        <ele>233</ele>
        <time>2012-09-28T10:55:31.076Z</time>
      </trkpt>
      <trkpt lat="45.61168" lon="4.75079">
        <ele>238</ele>
        <time>2012-09-28T10:55:37.076Z</time>
      </trkpt>
      <trkpt lat="45.6117" lon="4.75085">
        <ele>238</ele>
        <time>2012-09-28T10:55:42.076Z</time>
      </trkpt>
      <trkpt lat="45.61174" lon="4.75089">
        <ele>239</ele>
        <time>2012-09-28T10:55:47.076Z</time>
      </trkpt>
      <trkpt lat="45.61177" lon="4.75093">
        <ele>241</ele>
        <time>2012-09-28T10:55:52.076Z</time>
      </trkpt>
      <trkpt lat="45.6118" lon="4.751">
        <ele>242</ele>
        <time>2012-09-28T10:55:57.076Z</time>
      </trkpt>
      <trkpt lat="45.61183" lon="4.75105">
        <ele>243</ele>
        <time>2012-09-28T10:56:01.076Z</time>
      </trkpt>
      <trkpt lat="45.61186" lon="4.75111">
        <ele>244</ele>
        <time>2012-09-28T10:56:05.076Z</time>
      </trkpt>
      <trkpt lat="45.61187" lon="4.75117">
        <ele>244</ele>
        <time>2012-09-28T10:56:09.076Z</time>
      </trkpt>
      <trkpt lat="45.61188" lon="4.75125">
        <ele>245</ele>
        <time>2012-09-28T10:56:13.062Z</time>
      </trkpt>
      <trkpt lat="45.61192" lon="4.7513">
        <ele>245</ele>
        <time>2012-09-28T10:56:18.062Z</time>
      </trkpt>
      <trkpt lat="45.61195" lon="4.75134">
        <ele>245</ele>
        <time>2012-09-28T10:56:22.062Z</time>
      </trkpt>
      <trkpt lat="45.61198" lon="4.75139">
        <ele>245</ele>
        <time>2012-09-28T10:56:27.062Z</time>
      </trkpt>
      <trkpt lat="45.61203" lon="4.75139">
        <ele>246</ele>
        <time>2012-09-28T10:56:32.062Z</time>
      </trkpt>
      <trkpt lat="45.61208" lon="4.75142">
        <ele>247</ele>
        <time>2012-09-28T10:56:36.062Z</time>
      </trkpt>
      <trkpt lat="45.61212" lon="4.75143">
        <ele>247</ele>
        <time>2012-09-28T10:56:41.062Z</time>
      </trkpt>
      <trkpt lat="45.61218" lon="4.75143">
        <ele>248</ele>
        <time>2012-09-28T10:56:47.062Z</time>
      </trkpt>
      <trkpt lat="45.61223" lon="4.75143">
        <ele>249</ele>
        <time>2012-09-28T10:56:52.062Z</time>
      </trkpt>
      <trkpt lat="45.61228" lon="4.75143">
        <ele>249</ele>
        <time>2012-09-28T10:56:56.062Z</time>
      </trkpt>
      <trkpt lat="45.61233" lon="4.75144">
        <ele>250</ele>
        <time>2012-09-28T10:57:00.062Z</time>
      </trkpt>
      <trkpt lat="45.61239" lon="4.75144">
        <ele>250</ele>
        <time>2012-09-28T10:57:05.062Z</time>
      </trkpt>
      <trkpt lat="45.61245" lon="4.75145">
        <ele>251</ele>
        <time>2012-09-28T10:57:11.088Z</time>
      </trkpt>
      <trkpt lat="45.6125" lon="4.75146">
        <ele>251</ele>
        <time>2012-09-28T10:57:15.088Z</time>
      </trkpt>
      <trkpt lat="45.61255" lon="4.75148">
        <ele>257</ele>
        <time>2012-09-28T10:57:19.088Z</time>
      </trkpt>
      <trkpt lat="45.6126" lon="4.7515">
        <ele>258</ele>
        <time>2012-09-28T10:57:24.088Z</time>
      </trkpt>
      <trkpt lat="45.61263" lon="4.75155">
        <ele>257</ele>
        <time>2012-09-28T10:57:29.088Z</time>
      </trkpt>
      <trkpt lat="45.61266" lon="4.75161">
        <ele>257</ele>
        <time>2012-09-28T10:57:35.088Z</time>
      </trkpt>
      <trkpt lat="45.61269" lon="4.75167">
        <ele>257</ele>
        <time>2012-09-28T10:57:41.088Z</time>
      </trkpt>
      <trkpt lat="45.61274" lon="4.75168">
        <ele>257</ele>
        <time>2012-09-28T10:57:46.088Z</time>
      </trkpt>
      <trkpt lat="45.61279" lon="4.75166">
        <ele>258</ele>
        <time>2012-09-28T10:57:50.088Z</time>
      </trkpt>
      <trkpt lat="45.61284" lon="4.75165">
        <ele>259</ele>
        <time>2012-09-28T10:57:54.088Z</time>
      </trkpt>
      <trkpt lat="45.61289" lon="4.75165">
        <ele>259</ele>
        <time>2012-09-28T10:57:58.088Z</time>
      </trkpt>
      <trkpt lat="45.61295" lon="4.75166">
        <ele>259</ele>
        <time>2012-09-28T10:58:02.088Z</time>
      </trkpt>
      <trkpt lat="45.613" lon="4.75167">
        <ele>259</ele>
        <time>2012-09-28T10:58:06.088Z</time>
      </trkpt>
      <trkpt lat="45.61305" lon="4.75168">
        <ele>259</ele>
        <time>2012-09-28T10:58:09.088Z</time>
      </trkpt>
      <trkpt lat="45.6131" lon="4.7517">
        <ele>259</ele>
        <time>2012-09-28T10:58:13.064Z</time>
      </trkpt>
      <trkpt lat="45.61315" lon="4.75174">
        <ele>260</ele>
        <time>2012-09-28T10:58:17.064Z</time>
      </trkpt>
      <trkpt lat="45.61318" lon="4.75179">
        <ele>260</ele>
        <time>2012-09-28T10:58:21.064Z</time>
      </trkpt>
      <trkpt lat="45.61322" lon="4.75179">
        <ele>260</ele>
        <time>2012-09-28T10:58:25.064Z</time>
      </trkpt>
      <trkpt lat="45.61327" lon="4.75181">
        <ele>260</ele>
        <time>2012-09-28T10:58:29.064Z</time>
      </trkpt>
      <trkpt lat="45.61332" lon="4.75181">
        <ele>260</ele>
        <time>2012-09-28T10:58:33.064Z</time>
      </trkpt>
      <trkpt lat="45.61338" lon="4.7518">
        <ele>263</ele>
        <time>2012-09-28T10:58:37.064Z</time>
      </trkpt>
      <trkpt lat="45.61343" lon="4.75178">
        <ele>263</ele>
        <time>2012-09-28T10:58:41.064Z</time>
      </trkpt>
      <trkpt lat="45.61348" lon="4.75177">
        <ele>263</ele>
        <time>2012-09-28T10:58:45.064Z</time>
      </trkpt>
      <trkpt lat="45.61354" lon="4.75176">
        <ele>263</ele>
        <time>2012-09-28T10:58:49.064Z</time>
      </trkpt>
      <trkpt lat="45.61359" lon="4.75176">
        <ele>263</ele>
        <time>2012-09-28T10:58:53.064Z</time>
      </trkpt>
      <trkpt lat="45.61364" lon="4.75175">
        <ele>263</ele>
        <time>2012-09-28T10:58:57.064Z</time>
      </trkpt>
      <trkpt lat="45.61369" lon="4.75175">
        <ele>264</ele>
        <time>2012-09-28T10:59:01.064Z</time>
      </trkpt>
      <trkpt lat="45.61374" lon="4.75174">
        <ele>264</ele>
        <time>2012-09-28T10:59:05.064Z</time>
      </trkpt>
      <trkpt lat="45.61378" lon="4.7517">
        <ele>264</ele>
        <time>2012-09-28T10:59:12.064Z</time>
      </trkpt>
      <trkpt lat="45.61372" lon="4.75173">
        <ele>264</ele>
        <time>2012-09-28T10:59:17.064Z</time>
      </trkpt>
      <trkpt lat="45.61367" lon="4.75174">
        <ele>264</ele>
        <time>2012-09-28T10:59:20.064Z</time>
      </trkpt>
      <trkpt lat="45.6136" lon="4.75175">
        <ele>263</ele>
        <time>2012-09-28T10:59:23.064Z</time>
      </trkpt>
      <trkpt lat="45.61353" lon="4.75175">
        <ele>263</ele>
        <time>2012-09-28T10:59:25.064Z</time>
      </trkpt>
      <trkpt lat="45.61346" lon="4.75176">
        <ele>263</ele>
        <time>2012-09-28T10:59:27.064Z</time>
      </trkpt>
      <trkpt lat="45.61339" lon="4.75178">
        <ele>263</ele>
        <time>2012-09-28T10:59:29.064Z</time>
      </trkpt>
      <trkpt lat="45.61334" lon="4.75181">
        <ele>263</ele>
        <time>2012-09-28T10:59:31.064Z</time>
      </trkpt>
      <trkpt lat="45.61329" lon="4.7518">
        <ele>260</ele>
        <time>2012-09-28T10:59:34.064Z</time>
      </trkpt>
      <trkpt lat="45.61324" lon="4.75181">
        <ele>260</ele>
        <time>2012-09-28T11:00:35.084Z</time>
      </trkpt>
      <trkpt lat="45.6132" lon="4.75182">
        <ele>260</ele>
        <time>2012-09-28T11:00:37.084Z</time>
      </trkpt>
      <trkpt lat="45.61316" lon="4.75186">
        <ele>259</ele>
        <time>2012-09-28T11:00:39.084Z</time>
      </trkpt>
      <trkpt lat="45.61315" lon="4.75193">
        <ele>259</ele>
        <time>2012-09-28T11:00:41.084Z</time>
      </trkpt>
      <trkpt lat="45.61315" lon="4.752">
        <ele>259</ele>
        <time>2012-09-28T11:00:43.084Z</time>
      </trkpt>
      <trkpt lat="45.61314" lon="4.75208">
        <ele>259</ele>
        <time>2012-09-28T11:00:45.084Z</time>
      </trkpt>
      <trkpt lat="45.61314" lon="4.75218">
        <ele>259</ele>
        <time>2012-09-28T11:00:47.084Z</time>
      </trkpt>
      <trkpt lat="45.61314" lon="4.75227">
        <ele>259</ele>
        <time>2012-09-28T11:00:49.084Z</time>
      </trkpt>
      <trkpt lat="45.61313" lon="4.75236">
        <ele>259</ele>
        <time>2012-09-28T11:00:51.084Z</time>
      </trkpt>
      <trkpt lat="45.61313" lon="4.75245">
        <ele>259</ele>
        <time>2012-09-28T11:00:53.084Z</time>
      </trkpt>
      <trkpt lat="45.61312" lon="4.75254">
        <ele>259</ele>
        <time>2012-09-28T11:00:55.084Z</time>
      </trkpt>
      <trkpt lat="45.61313" lon="4.75267">
        <ele>259</ele>
        <time>2012-09-28T11:00:57.084Z</time>
      </trkpt>
      <trkpt lat="45.61314" lon="4.75273">
        <ele>259</ele>
        <time>2012-09-28T11:00:58.084Z</time>
      </trkpt>
      <trkpt lat="45.61316" lon="4.75279">
        <ele>259</ele>
        <time>2012-09-28T11:00:59.084Z</time>
      </trkpt>
      <trkpt lat="45.61319" lon="4.75285">
        <ele>259</ele>
        <time>2012-09-28T11:01:00.084Z</time>
      </trkpt>
      <trkpt lat="45.61323" lon="4.75296">
        <ele>259</ele>
        <time>2012-09-28T11:01:02.084Z</time>
      </trkpt>
      <trkpt lat="45.61327" lon="4.75306">
        <ele>259</ele>
        <time>2012-09-28T11:01:04.084Z</time>
      </trkpt>
      <trkpt lat="45.61331" lon="4.75316">
        <ele>259</ele>
        <time>2012-09-28T11:01:06.084Z</time>
      </trkpt>
      <trkpt lat="45.61336" lon="4.75325">
        <ele>260</ele>
        <time>2012-09-28T11:01:08.084Z</time>
      </trkpt>
      <trkpt lat="45.61343" lon="4.75336">
        <ele>260</ele>
        <time>2012-09-28T11:01:11.064Z</time>
      </trkpt>
      <trkpt lat="45.6135" lon="4.7534">
        <ele>260</ele>
        <time>2012-09-28T11:01:13.064Z</time>
      </trkpt>
      <trkpt lat="45.61356" lon="4.75345">
        <ele>260</ele>
        <time>2012-09-28T11:01:15.064Z</time>
      </trkpt>
      <trkpt lat="45.61363" lon="4.7535">
        <ele>260</ele>
        <time>2012-09-28T11:01:17.064Z</time>
      </trkpt>
      <trkpt lat="45.6137" lon="4.75355">
        <ele>260</ele>
        <time>2012-09-28T11:01:19.064Z</time>
      </trkpt>
      <trkpt lat="45.61378" lon="4.75361">
        <ele>260</ele>
        <time>2012-09-28T11:01:21.064Z</time>
      </trkpt>
      <trkpt lat="45.61385" lon="4.75366">
        <ele>260</ele>
        <time>2012-09-28T11:01:23.064Z</time>
      </trkpt>
      <trkpt lat="45.61393" lon="4.75371">
        <ele>260</ele>
        <time>2012-09-28T11:01:25.064Z</time>
      </trkpt>
      <trkpt lat="45.614" lon="4.75376">
        <ele>260</ele>
        <time>2012-09-28T11:01:27.064Z</time>
      </trkpt>
      <trkpt lat="45.61407" lon="4.75381">
        <ele>260</ele>
        <time>2012-09-28T11:01:29.064Z</time>
      </trkpt>
      <trkpt lat="45.61414" lon="4.75386">
        <ele>260</ele>
        <time>2012-09-28T11:01:31.064Z</time>
      </trkpt>
      <trkpt lat="45.61422" lon="4.75391">
        <ele>260</ele>
        <time>2012-09-28T11:01:33.064Z</time>
      </trkpt>
      <trkpt lat="45.61429" lon="4.75396">
        <ele>260</ele>
        <time>2012-09-28T11:01:35.064Z</time>
      </trkpt>
      <trkpt lat="45.61436" lon="4.75401">
        <ele>260</ele>
        <time>2012-09-28T11:01:37.064Z</time>
      </trkpt>
      <trkpt lat="45.61443" lon="4.75399">
        <ele>260</ele>
        <time>2012-09-28T11:01:39.064Z</time>
      </trkpt>
      <trkpt lat="45.61448" lon="4.75393">
        <ele>260</ele>
        <time>2012-09-28T11:01:41.064Z</time>
      </trkpt>
      <trkpt lat="45.61454" lon="4.75386">
        <ele>260</ele>
        <time>2012-09-28T11:01:43.064Z</time>
      </trkpt>
      <trkpt lat="45.6146" lon="4.7538">
        <ele>260</ele>
        <time>2012-09-28T11:01:45.064Z</time>
      </trkpt>
      <trkpt lat="45.61466" lon="4.75375">
        <ele>260</ele>
        <time>2012-09-28T11:01:47.064Z</time>
      </trkpt>
      <trkpt lat="45.61473" lon="4.75371">
        <ele>260</ele>
        <time>2012-09-28T11:01:49.064Z</time>
      </trkpt>
      <trkpt lat="45.6148" lon="4.75368">
        <ele>260</ele>
        <time>2012-09-28T11:01:51.064Z</time>
      </trkpt>
      <trkpt lat="45.61487" lon="4.75364">
        <ele>260</ele>
        <time>2012-09-28T11:01:53.064Z</time>
      </trkpt>
      <trkpt lat="45.61494" lon="4.75361">
        <ele>260</ele>
        <time>2012-09-28T11:01:55.064Z</time>
      </trkpt>
      <trkpt lat="45.61501" lon="4.75358">
        <ele>260</ele>
        <time>2012-09-28T11:01:57.064Z</time>
      </trkpt>
      <trkpt lat="45.61507" lon="4.75354">
        <ele>260</ele>
        <time>2012-09-28T11:01:59.064Z</time>
      </trkpt>
      <trkpt lat="45.61513" lon="4.75351">
        <ele>260</ele>
        <time>2012-09-28T11:02:01.064Z</time>
      </trkpt>
      <trkpt lat="45.61519" lon="4.75347">
        <ele>260</ele>
        <time>2012-09-28T11:02:03.064Z</time>
      </trkpt>
      <trkpt lat="45.61525" lon="4.75342">
        <ele>260</ele>
        <time>2012-09-28T11:02:05.064Z</time>
      </trkpt>
      <trkpt lat="45.61531" lon="4.75337">
        <ele>260</ele>
        <time>2012-09-28T11:02:07.064Z</time>
      </trkpt>
      <trkpt lat="45.61537" lon="4.75333">
        <ele>262</ele>
        <time>2012-09-28T11:02:09.064Z</time>
      </trkpt>
      <trkpt lat="45.61542" lon="4.75328">
        <ele>262</ele>
        <time>2012-09-28T11:02:11.056Z</time>
      </trkpt>
      <trkpt lat="45.61546" lon="4.75319">
        <ele>262</ele>
        <time>2012-09-28T11:02:13.056Z</time>
      </trkpt>
      <trkpt lat="45.61548" lon="4.7531">
        <ele>262</ele>
        <time>2012-09-28T11:02:15.056Z</time>
      </trkpt>
      <trkpt lat="45.61551" lon="4.75301">
        <ele>262</ele>
        <time>2012-09-28T11:02:17.056Z</time>
      </trkpt>
      <trkpt lat="45.61553" lon="4.75291">
        <ele>263</ele>
        <time>2012-09-28T11:02:19.056Z</time>
      </trkpt>
      <trkpt lat="45.61556" lon="4.75282">
        <ele>263</ele>
        <time>2012-09-28T11:02:21.056Z</time>
      </trkpt>
      <trkpt lat="45.61559" lon="4.75274">
        <ele>263</ele>
        <time>2012-09-28T11:02:23.056Z</time>
      </trkpt>
      <trkpt lat="45.61563" lon="4.75266">
        <ele>263</ele>
        <time>2012-09-28T11:02:25.056Z</time>
      </trkpt>
      <trkpt lat="45.61567" lon="4.75258">
        <ele>264</ele>
        <time>2012-09-28T11:02:27.056Z</time>
      </trkpt>
      <trkpt lat="45.61572" lon="4.75252">
        <ele>264</ele>
        <time>2012-09-28T11:02:29.056Z</time>
      </trkpt>
      <trkpt lat="45.61578" lon="4.75246">
        <ele>265</ele>
        <time>2012-09-28T11:02:31.056Z</time>
      </trkpt>
      <trkpt lat="45.61583" lon="4.7524">
        <ele>266</ele>
        <time>2012-09-28T11:02:33.056Z</time>
      </trkpt>
      <trkpt lat="45.61588" lon="4.75234">
        <ele>267</ele>
        <time>2012-09-28T11:02:35.056Z</time>
      </trkpt>
      <trkpt lat="45.61593" lon="4.75228">
        <ele>267</ele>
        <time>2012-09-28T11:02:37.056Z</time>
      </trkpt>
      <trkpt lat="45.61597" lon="4.75222">
        <ele>268</ele>
        <time>2012-09-28T11:02:39.056Z</time>
      </trkpt>
      <trkpt lat="45.61602" lon="4.75217">
        <ele>268</ele>
        <time>2012-09-28T11:02:41.056Z</time>
      </trkpt>
      <trkpt lat="45.61608" lon="4.75214">
        <ele>268</ele>
        <time>2012-09-28T11:02:43.056Z</time>
      </trkpt>
      <trkpt lat="45.61613" lon="4.75211">
        <ele>268</ele>
        <time>2012-09-28T11:02:45.056Z</time>
      </trkpt>
      <trkpt lat="45.61619" lon="4.75208">
        <ele>269</ele>
        <time>2012-09-28T11:02:47.083Z</time>
      </trkpt>
      <trkpt lat="45.61625" lon="4.75206">
        <ele>269</ele>
        <time>2012-09-28T11:02:49.083Z</time>
      </trkpt>
      <trkpt lat="45.6163" lon="4.75203">
        <ele>269</ele>
        <time>2012-09-28T11:02:51.085Z</time>
      </trkpt>
      <trkpt lat="45.61636" lon="4.75199">
        <ele>269</ele>
        <time>2012-09-28T11:02:53.083Z</time>
      </trkpt>
      <trkpt lat="45.61641" lon="4.75196">
        <ele>269</ele>
        <time>2012-09-28T11:02:55.084Z</time>
      </trkpt>
      <trkpt lat="45.61646" lon="4.75194">
        <ele>270</ele>
        <time>2012-09-28T11:02:57.083Z</time>
      </trkpt>
      <trkpt lat="45.61651" lon="4.7519">
        <ele>270</ele>
        <time>2012-09-28T11:02:59.103Z</time>
      </trkpt>
      <trkpt lat="45.61655" lon="4.75186">
        <ele>270</ele>
        <time>2012-09-28T11:03:01.083Z</time>
      </trkpt>
      <trkpt lat="45.61659" lon="4.75183">
        <ele>270</ele>
        <time>2012-09-28T11:03:03.084Z</time>
      </trkpt>
      <trkpt lat="45.61664" lon="4.75179">
        <ele>271</ele>
        <time>2012-09-28T11:03:06.083Z</time>
      </trkpt>
      <trkpt lat="45.6167" lon="4.75175">
        <ele>272</ele>
        <time>2012-09-28T11:03:09.083Z</time>
      </trkpt>
      <trkpt lat="45.61674" lon="4.75171">
        <ele>272</ele>
        <time>2012-09-28T11:03:11.076Z</time>
      </trkpt>
      <trkpt lat="45.61679" lon="4.75168">
        <ele>272</ele>
        <time>2012-09-28T11:03:14.084Z</time>
      </trkpt>
      <trkpt lat="45.61684" lon="4.75166">
        <ele>273</ele>
        <time>2012-09-28T11:03:16.102Z</time>
      </trkpt>
      <trkpt lat="45.6169" lon="4.75162">
        <ele>273</ele>
        <time>2012-09-28T11:03:19.092Z</time>
      </trkpt>
      <trkpt lat="45.61696" lon="4.7516">
        <ele>274</ele>
        <time>2012-09-28T11:03:22.091Z</time>
      </trkpt>
      <trkpt lat="45.61702" lon="4.75158">
        <ele>274</ele>
        <time>2012-09-28T11:03:25.089Z</time>
      </trkpt>
      <trkpt lat="45.61709" lon="4.75156">
        <ele>274</ele>
        <time>2012-09-28T11:03:28.090Z</time>
      </trkpt>
      <trkpt lat="45.61715" lon="4.75156">
        <ele>274</ele>
        <time>2012-09-28T11:03:31.090Z</time>
      </trkpt>
      <trkpt lat="45.61721" lon="4.75154">
        <ele>274</ele>
        <time>2012-09-28T11:03:34.090Z</time>
      </trkpt>
      <trkpt lat="45.61727" lon="4.75152">
        <ele>274</ele>
        <time>2012-09-28T11:03:37.089Z</time>
      </trkpt>
      <trkpt lat="45.61731" lon="4.75148">
        <ele>274</ele>
        <time>2012-09-28T11:03:39.081Z</time>
      </trkpt>
      <trkpt lat="45.61736" lon="4.75144">
        <ele>274</ele>
        <time>2012-09-28T11:03:41.093Z</time>
      </trkpt>
      <trkpt lat="45.6174" lon="4.75141">
        <ele>274</ele>
        <time>2012-09-28T11:03:43.085Z</time>
      </trkpt>
      <trkpt lat="45.61743" lon="4.75135">
        <ele>274</ele>
        <time>2012-09-28T11:03:45.092Z</time>
      </trkpt>
      <trkpt lat="45.61746" lon="4.75129">
        <ele>274</ele>
        <time>2012-09-28T11:03:47.135Z</time>
      </trkpt>
      <trkpt lat="45.61747" lon="4.75122">
        <ele>275</ele>
        <time>2012-09-28T11:03:49.092Z</time>
      </trkpt>
      <trkpt lat="45.61749" lon="4.75114">
        <ele>275</ele>
        <time>2012-09-28T11:03:51.089Z</time>
      </trkpt>
      <trkpt lat="45.6175" lon="4.75107">
        <ele>275</ele>
        <time>2012-09-28T11:03:53.086Z</time>
      </trkpt>
      <trkpt lat="45.6175" lon="4.751">
        <ele>275</ele>
        <time>2012-09-28T11:03:55.088Z</time>
      </trkpt>
      <trkpt lat="45.6175" lon="4.75094">
        <ele>275</ele>
        <time>2012-09-28T11:03:57.075Z</time>
      </trkpt>
      <trkpt lat="45.61748" lon="4.75086">
        <ele>276</ele>
        <time>2012-09-28T11:04:00.093Z</time>
      </trkpt>
      <trkpt lat="45.61747" lon="4.75078">
        <ele>276</ele>
        <time>2012-09-28T11:04:03.086Z</time>
      </trkpt>
      <trkpt lat="45.61747" lon="4.75071">
        <ele>276</ele>
        <time>2012-09-28T11:04:06.081Z</time>
      </trkpt>
      <trkpt lat="45.61748" lon="4.75063">
        <ele>276</ele>
        <time>2012-09-28T11:04:08.076Z</time>
      </trkpt>
      <trkpt lat="45.61752" lon="4.75052">
        <ele>276</ele>
        <time>2012-09-28T11:04:11.087Z</time>
      </trkpt>
      <trkpt lat="45.61756" lon="4.75043">
        <ele>276</ele>
        <time>2012-09-28T11:04:14.132Z</time>
      </trkpt>
      <trkpt lat="45.6176" lon="4.75036">
        <ele>276</ele>
        <time>2012-09-28T11:04:16.132Z</time>
      </trkpt>
      <trkpt lat="45.61764" lon="4.75028">
        <ele>276</ele>
        <time>2012-09-28T11:04:18.077Z</time>
      </trkpt>
      <trkpt lat="45.61768" lon="4.75023">
        <ele>276</ele>
        <time>2012-09-28T11:04:19.089Z</time>
      </trkpt>
      <trkpt lat="45.61772" lon="4.75017">
        <ele>276</ele>
        <time>2012-09-28T11:04:20.101Z</time>
      </trkpt>
      <trkpt lat="45.61775" lon="4.75009">
        <ele>276</ele>
        <time>2012-09-28T11:04:21.082Z</time>
      </trkpt>
      <trkpt lat="45.61779" lon="4.75005">
        <ele>276</ele>
        <time>2012-09-28T11:04:22.093Z</time>
      </trkpt>
      <trkpt lat="45.61783" lon="4.75">
        <ele>278</ele>
        <time>2012-09-28T11:04:23.091Z</time>
      </trkpt>
      <trkpt lat="45.61787" lon="4.74995">
        <ele>278</ele>
        <time>2012-09-28T11:04:24.094Z</time>
      </trkpt>
      <trkpt lat="45.61791" lon="4.74991">
        <ele>278</ele>
        <time>2012-09-28T11:04:25.091Z</time>
      </trkpt>
      <trkpt lat="45.61794" lon="4.74986">
        <ele>278</ele>
        <time>2012-09-28T11:04:26.090Z</time>
      </trkpt>
      <trkpt lat="45.61799" lon="4.74981">
        <ele>278</ele>
        <time>2012-09-28T11:04:27.074Z</time>
      </trkpt>
      <trkpt lat="45.61803" lon="4.74976">
        <ele>278</ele>
        <time>2012-09-28T11:04:28.090Z</time>
      </trkpt>
      <trkpt lat="45.61807" lon="4.74971">
        <ele>278</ele>
        <time>2012-09-28T11:04:29.092Z</time>
      </trkpt>
      <trkpt lat="45.61812" lon="4.74967">
        <ele>278</ele>
        <time>2012-09-28T11:04:30.093Z</time>
      </trkpt>
      <trkpt lat="45.61816" lon="4.74964">
        <ele>278</ele>
        <time>2012-09-28T11:04:31.091Z</time>
      </trkpt>
      <trkpt lat="45.6182" lon="4.7496">
        <ele>278</ele>
        <time>2012-09-28T11:04:32.093Z</time>
      </trkpt>
      <trkpt lat="45.61824" lon="4.74955">
        <ele>278</ele>
        <time>2012-09-28T11:04:33.092Z</time>
      </trkpt>
      <trkpt lat="45.61833" lon="4.7495">
        <ele>278</ele>
        <time>2012-09-28T11:04:35.094Z</time>
      </trkpt>
      <trkpt lat="45.61837" lon="4.74946">
        <ele>278</ele>
        <time>2012-09-28T11:04:36.095Z</time>
      </trkpt>
      <trkpt lat="45.61842" lon="4.74943">
        <ele>278</ele>
        <time>2012-09-28T11:04:37.092Z</time>
      </trkpt>
      <trkpt lat="45.6185" lon="4.74937">
        <ele>278</ele>
        <time>2012-09-28T11:04:39.089Z</time>
      </trkpt>
      <trkpt lat="45.61854" lon="4.74934">
        <ele>278</ele>
        <time>2012-09-28T11:04:40.076Z</time>
      </trkpt>
      <trkpt lat="45.61858" lon="4.7493">
        <ele>278</ele>
        <time>2012-09-28T11:04:41.077Z</time>
      </trkpt>
      <trkpt lat="45.61862" lon="4.74926">
        <ele>278</ele>
        <time>2012-09-28T11:04:42.083Z</time>
      </trkpt>
      <trkpt lat="45.61866" lon="4.74922">
        <ele>278</ele>
        <time>2012-09-28T11:04:43.092Z</time>
      </trkpt>
      <trkpt lat="45.6187" lon="4.74918">
        <ele>278</ele>
        <time>2012-09-28T11:04:44.093Z</time>
      </trkpt>
      <trkpt lat="45.61874" lon="4.74914">
        <ele>281</ele>
        <time>2012-09-28T11:04:45.092Z</time>
      </trkpt>
      <trkpt lat="45.6188" lon="4.74907">
        <ele>281</ele>
        <time>2012-09-28T11:04:47.092Z</time>
      </trkpt>
      <trkpt lat="45.61887" lon="4.74898">
        <ele>281</ele>
        <time>2012-09-28T11:04:49.089Z</time>
      </trkpt>
      <trkpt lat="45.6189" lon="4.74893">
        <ele>281</ele>
        <time>2012-09-28T11:04:50.093Z</time>
      </trkpt>
      <trkpt lat="45.61896" lon="4.74883">
        <ele>281</ele>
        <time>2012-09-28T11:04:52.102Z</time>
      </trkpt>
      <trkpt lat="45.61899" lon="4.74873">
        <ele>282</ele>
        <time>2012-09-28T11:04:54.092Z</time>
      </trkpt>
      <trkpt lat="45.61902" lon="4.74862">
        <ele>282</ele>
        <time>2012-09-28T11:04:56.090Z</time>
      </trkpt>
      <trkpt lat="45.61905" lon="4.74848">
        <ele>283</ele>
        <time>2012-09-28T11:04:58.795Z</time>
      </trkpt>
      <trkpt lat="45.61909" lon="4.74841">
        <ele>283</ele>
        <time>2012-09-28T11:05:01.092Z</time>
      </trkpt>
      <trkpt lat="45.61914" lon="4.74838">
        <ele>284</ele>
        <time>2012-09-28T11:05:03.076Z</time>
      </trkpt>
      <trkpt lat="45.6192" lon="4.74838">
        <ele>283</ele>
        <time>2012-09-28T11:05:05.090Z</time>
      </trkpt>
      <trkpt lat="45.61927" lon="4.74836">
        <ele>283</ele>
        <time>2012-09-28T11:05:07.108Z</time>
      </trkpt>
      <trkpt lat="45.61933" lon="4.74836">
        <ele>282</ele>
        <time>2012-09-28T11:05:09.094Z</time>
      </trkpt>
      <trkpt lat="45.61939" lon="4.74834">
        <ele>282</ele>
        <time>2012-09-28T11:05:11.090Z</time>
      </trkpt>
      <trkpt lat="45.61944" lon="4.74834">
        <ele>281</ele>
        <time>2012-09-28T11:05:12.557Z</time>
      </trkpt>
      <trkpt lat="45.61949" lon="4.74833">
        <ele>284</ele>
        <time>2012-09-28T11:05:14.089Z</time>
      </trkpt>
      <trkpt lat="45.61957" lon="4.74831">
        <ele>284</ele>
        <time>2012-09-28T11:05:16.090Z</time>
      </trkpt>
      <trkpt lat="45.61964" lon="4.74828">
        <ele>283</ele>
        <time>2012-09-28T11:05:18.094Z</time>
      </trkpt>
      <trkpt lat="45.61971" lon="4.74825">
        <ele>283</ele>
        <time>2012-09-28T11:05:20.093Z</time>
      </trkpt>
      <trkpt lat="45.61978" lon="4.74822">
        <ele>283</ele>
        <time>2012-09-28T11:05:22.092Z</time>
      </trkpt>
      <trkpt lat="45.61986" lon="4.74818">
        <ele>283</ele>
        <time>2012-09-28T11:05:24.098Z</time>
      </trkpt>
      <trkpt lat="45.61993" lon="4.74814">
        <ele>283</ele>
        <time>2012-09-28T11:05:26.090Z</time>
      </trkpt>
      <trkpt lat="45.62001" lon="4.74811">
        <ele>282</ele>
        <time>2012-09-28T11:05:28.186Z</time>
      </trkpt>
      <trkpt lat="45.62006" lon="4.74805">
        <ele>283</ele>
        <time>2012-09-28T11:05:30.089Z</time>
      </trkpt>
      <trkpt lat="45.62013" lon="4.74801">
        <ele>283</ele>
        <time>2012-09-28T11:05:32.088Z</time>
      </trkpt>
      <trkpt lat="45.6202" lon="4.74798">
        <ele>283</ele>
        <time>2012-09-28T11:05:34.091Z</time>
      </trkpt>
      <trkpt lat="45.62027" lon="4.74795">
        <ele>283</ele>
        <time>2012-09-28T11:05:36.090Z</time>
      </trkpt>
      <trkpt lat="45.62034" lon="4.74794">
        <ele>283</ele>
        <time>2012-09-28T11:05:38.092Z</time>
      </trkpt>
      <trkpt lat="45.62042" lon="4.74792">
        <ele>283</ele>
        <time>2012-09-28T11:05:40.101Z</time>
      </trkpt>
      <trkpt lat="45.6205" lon="4.74789">
        <ele>283</ele>
        <time>2012-09-28T11:05:42.094Z</time>
      </trkpt>
      <trkpt lat="45.62058" lon="4.74786">
        <ele>283</ele>
        <time>2012-09-28T11:05:44.090Z</time>
      </trkpt>
      <trkpt lat="45.62067" lon="4.74783">
        <ele>283</ele>
        <time>2012-09-28T11:05:46.091Z</time>
      </trkpt>
      <trkpt lat="45.62072" lon="4.7478">
        <ele>283</ele>
        <time>2012-09-28T11:05:47.074Z</time>
      </trkpt>
      <trkpt lat="45.62077" lon="4.74778">
        <ele>283</ele>
        <time>2012-09-28T11:05:48.080Z</time>
      </trkpt>
      <trkpt lat="45.62084" lon="4.7478">
        <ele>283</ele>
        <time>2012-09-28T11:05:50.090Z</time>
      </trkpt>
      <trkpt lat="45.6209" lon="4.74781">
        <ele>282</ele>
        <time>2012-09-28T11:05:51.089Z</time>
      </trkpt>
      <trkpt lat="45.62098" lon="4.74784">
        <ele>282</ele>
        <time>2012-09-28T11:05:53.089Z</time>
      </trkpt>
      <trkpt lat="45.62106" lon="4.74787">
        <ele>282</ele>
        <time>2012-09-28T11:05:55.222Z</time>
      </trkpt>
      <trkpt lat="45.62112" lon="4.7479">
        <ele>282</ele>
        <time>2012-09-28T11:05:56.651Z</time>
      </trkpt>
      <trkpt lat="45.62117" lon="4.74793">
        <ele>282</ele>
        <time>2012-09-28T11:05:58.093Z</time>
      </trkpt>
      <trkpt lat="45.62124" lon="4.74798">
        <ele>282</ele>
        <time>2012-09-28T11:06:00.094Z</time>
      </trkpt>
      <trkpt lat="45.6213" lon="4.74804">
        <ele>282</ele>
        <time>2012-09-28T11:06:02.210Z</time>
      </trkpt>
      <trkpt lat="45.62134" lon="4.74813">
        <ele>282</ele>
        <time>2012-09-28T11:06:04.210Z</time>
      </trkpt>
      <trkpt lat="45.62136" lon="4.7482">
        <ele>282</ele>
        <time>2012-09-28T11:06:06.076Z</time>
      </trkpt>
      <trkpt lat="45.62142" lon="4.74825">
        <ele>282</ele>
        <time>2012-09-28T11:06:09.076Z</time>
      </trkpt>
      <trkpt lat="45.62147" lon="4.74828">
        <ele>281</ele>
        <time>2012-09-28T11:06:11.050Z</time>
      </trkpt>
      <trkpt lat="45.62159" lon="4.74835">
        <ele>280</ele>
        <time>2012-09-28T11:06:14.075Z</time>
      </trkpt>
      <trkpt lat="45.62163" lon="4.74838">
        <ele>280</ele>
        <time>2012-09-28T11:06:15.089Z</time>
      </trkpt>
      <trkpt lat="45.62168" lon="4.7484">
        <ele>280</ele>
        <time>2012-09-28T11:06:16.094Z</time>
      </trkpt>
      <trkpt lat="45.62173" lon="4.74844">
        <ele>279</ele>
        <time>2012-09-28T11:06:17.076Z</time>
      </trkpt>
      <trkpt lat="45.62177" lon="4.74849">
        <ele>278</ele>
        <time>2012-09-28T11:06:18.088Z</time>
      </trkpt>
      <trkpt lat="45.6218" lon="4.74854">
        <ele>278</ele>
        <time>2012-09-28T11:06:19.095Z</time>
      </trkpt>
      <trkpt lat="45.62184" lon="4.74858">
        <ele>278</ele>
        <time>2012-09-28T11:06:20.083Z</time>
      </trkpt>
      <trkpt lat="45.6219" lon="4.74864">
        <ele>277</ele>
        <time>2012-09-28T11:06:22.091Z</time>
      </trkpt>
      <trkpt lat="45.62196" lon="4.74869">
        <ele>277</ele>
        <time>2012-09-28T11:06:24.092Z</time>
      </trkpt>
      <trkpt lat="45.62203" lon="4.74872">
        <ele>276</ele>
        <time>2012-09-28T11:06:26.089Z</time>
      </trkpt>
      <trkpt lat="45.62208" lon="4.74874">
        <ele>276</ele>
        <time>2012-09-28T11:06:27.095Z</time>
      </trkpt>
      <trkpt lat="45.62212" lon="4.74876">
        <ele>276</ele>
        <time>2012-09-28T11:06:28.091Z</time>
      </trkpt>
      <trkpt lat="45.62218" lon="4.74879">
        <ele>276</ele>
        <time>2012-09-28T11:06:29.086Z</time>
      </trkpt>
      <trkpt lat="45.62224" lon="4.7488">
        <ele>276</ele>
        <time>2012-09-28T11:06:30.089Z</time>
      </trkpt>
      <trkpt lat="45.6223" lon="4.74882">
        <ele>276</ele>
        <time>2012-09-28T11:06:31.076Z</time>
      </trkpt>
      <trkpt lat="45.62237" lon="4.74884">
        <ele>275</ele>
        <time>2012-09-28T11:06:32.088Z</time>
      </trkpt>
      <trkpt lat="45.62244" lon="4.74886">
        <ele>275</ele>
        <time>2012-09-28T11:06:33.075Z</time>
      </trkpt>
      <trkpt lat="45.62251" lon="4.74888">
        <ele>274</ele>
        <time>2012-09-28T11:06:34.092Z</time>
      </trkpt>
      <trkpt lat="45.62258" lon="4.7489">
        <ele>274</ele>
        <time>2012-09-28T11:06:35.093Z</time>
      </trkpt>
      <trkpt lat="45.62265" lon="4.74892">
        <ele>274</ele>
        <time>2012-09-28T11:06:36.088Z</time>
      </trkpt>
      <trkpt lat="45.62271" lon="4.74894">
        <ele>274</ele>
        <time>2012-09-28T11:06:37.093Z</time>
      </trkpt>
      <trkpt lat="45.62278" lon="4.74897">
        <ele>274</ele>
        <time>2012-09-28T11:06:38.091Z</time>
      </trkpt>
      <trkpt lat="45.62284" lon="4.749">
        <ele>274</ele>
        <time>2012-09-28T11:06:39.091Z</time>
      </trkpt>
      <trkpt lat="45.62289" lon="4.74905">
        <ele>274</ele>
        <time>2012-09-28T11:06:40.091Z</time>
      </trkpt>
      <trkpt lat="45.62296" lon="4.7491">
        <ele>274</ele>
        <time>2012-09-28T11:06:41.076Z</time>
      </trkpt>
      <trkpt lat="45.623" lon="4.74914">
        <ele>274</ele>
        <time>2012-09-28T11:06:42.090Z</time>
      </trkpt>
      <trkpt lat="45.62306" lon="4.7492">
        <ele>271</ele>
        <time>2012-09-28T11:06:43.096Z</time>
      </trkpt>
      <trkpt lat="45.62311" lon="4.74925">
        <ele>271</ele>
        <time>2012-09-28T11:06:44.093Z</time>
      </trkpt>
      <trkpt lat="45.62316" lon="4.74931">
        <ele>270</ele>
        <time>2012-09-28T11:06:45.089Z</time>
      </trkpt>
      <trkpt lat="45.6232" lon="4.74936">
        <ele>270</ele>
        <time>2012-09-28T11:06:46.084Z</time>
      </trkpt>
      <trkpt lat="45.62324" lon="4.74941">
        <ele>270</ele>
        <time>2012-09-28T11:06:47.080Z</time>
      </trkpt>
      <trkpt lat="45.62332" lon="4.74946">
        <ele>270</ele>
        <time>2012-09-28T11:06:48.803Z</time>
      </trkpt>
      <trkpt lat="45.62338" lon="4.74949">
        <ele>270</ele>
        <time>2012-09-28T11:06:50.229Z</time>
      </trkpt>
      <trkpt lat="45.62347" lon="4.74953">
        <ele>270</ele>
        <time>2012-09-28T11:06:52.087Z</time>
      </trkpt>
      <trkpt lat="45.62351" lon="4.74956">
        <ele>270</ele>
        <time>2012-09-28T11:06:53.093Z</time>
      </trkpt>
      <trkpt lat="45.62356" lon="4.74959">
        <ele>270</ele>
        <time>2012-09-28T11:06:54.090Z</time>
      </trkpt>
      <trkpt lat="45.62361" lon="4.74961">
        <ele>270</ele>
        <time>2012-09-28T11:06:55.094Z</time>
      </trkpt>
      <trkpt lat="45.62366" lon="4.74962">
        <ele>270</ele>
        <time>2012-09-28T11:06:56.092Z</time>
      </trkpt>
      <trkpt lat="45.62371" lon="4.74965">
        <ele>270</ele>
        <time>2012-09-28T11:06:57.096Z</time>
      </trkpt>
      <trkpt lat="45.62376" lon="4.74968">
        <ele>270</ele>
        <time>2012-09-28T11:06:58.089Z</time>
      </trkpt>
      <trkpt lat="45.6238" lon="4.74971">
        <ele>270</ele>
        <time>2012-09-28T11:06:59.096Z</time>
      </trkpt>
      <trkpt lat="45.62386" lon="4.74972">
        <ele>270</ele>
        <time>2012-09-28T11:07:00.093Z</time>
      </trkpt>
      <trkpt lat="45.62392" lon="4.74973">
        <ele>270</ele>
        <time>2012-09-28T11:07:01.093Z</time>
      </trkpt>
      <trkpt lat="45.62396" lon="4.74973">
        <ele>270</ele>
        <time>2012-09-28T11:07:02.093Z</time>
      </trkpt>
      <trkpt lat="45.62401" lon="4.74974">
        <ele>270</ele>
        <time>2012-09-28T11:07:03.094Z</time>
      </trkpt>
      <trkpt lat="45.62407" lon="4.74978">
        <ele>270</ele>
        <time>2012-09-28T11:07:04.077Z</time>
      </trkpt>
      <trkpt lat="45.62411" lon="4.7498">
        <ele>270</ele>
        <time>2012-09-28T11:07:05.093Z</time>
      </trkpt>
      <trkpt lat="45.62416" lon="4.74982">
        <ele>270</ele>
        <time>2012-09-28T11:07:06.093Z</time>
      </trkpt>
      <trkpt lat="45.62424" lon="4.74982">
        <ele>272</ele>
        <time>2012-09-28T11:07:08.094Z</time>
      </trkpt>
      <trkpt lat="45.62429" lon="4.74983">
        <ele>272</ele>
        <time>2012-09-28T11:07:09.090Z</time>
      </trkpt>
      <trkpt lat="45.62437" lon="4.74983">
        <ele>273</ele>
        <time>2012-09-28T11:07:11.053Z</time>
      </trkpt>
      <trkpt lat="45.62442" lon="4.74985">
        <ele>273</ele>
        <time>2012-09-28T11:07:12.460Z</time>
      </trkpt>
      <trkpt lat="45.62449" lon="4.74986">
        <ele>274</ele>
        <time>2012-09-28T11:07:14.091Z</time>
      </trkpt>
      <trkpt lat="45.62457" lon="4.74986">
        <ele>274</ele>
        <time>2012-09-28T11:07:16.099Z</time>
      </trkpt>
      <trkpt lat="45.62465" lon="4.74985">
        <ele>274</ele>
        <time>2012-09-28T11:07:18.090Z</time>
      </trkpt>
      <trkpt lat="45.62473" lon="4.74985">
        <ele>275</ele>
        <time>2012-09-28T11:07:20.092Z</time>
      </trkpt>
      <trkpt lat="45.6248" lon="4.74985">
        <ele>275</ele>
        <time>2012-09-28T11:07:22.090Z</time>
      </trkpt>
      <trkpt lat="45.62487" lon="4.74988">
        <ele>275</ele>
        <time>2012-09-28T11:07:24.087Z</time>
      </trkpt>
      <trkpt lat="45.62493" lon="4.74991">
        <ele>276</ele>
        <time>2012-09-28T11:07:26.092Z</time>
      </trkpt>
      <trkpt lat="45.62499" lon="4.74997">
        <ele>276</ele>
        <time>2012-09-28T11:07:28.195Z</time>
      </trkpt>
      <trkpt lat="45.62504" lon="4.75002">
        <ele>276</ele>
        <time>2012-09-28T11:07:30.195Z</time>
      </trkpt>
      <trkpt lat="45.62507" lon="4.7501">
        <ele>277</ele>
        <time>2012-09-28T11:07:33.093Z</time>
      </trkpt>
      <trkpt lat="45.62511" lon="4.75015">
        <ele>277</ele>
        <time>2012-09-28T11:07:36.091Z</time>
      </trkpt>
      <trkpt lat="45.62513" lon="4.75022">
        <ele>277</ele>
        <time>2012-09-28T11:07:38.090Z</time>
      </trkpt>
      <trkpt lat="45.62517" lon="4.75029">
        <ele>277</ele>
        <time>2012-09-28T11:07:41.094Z</time>
      </trkpt>
      <trkpt lat="45.62522" lon="4.75035">
        <ele>277</ele>
        <time>2012-09-28T11:07:44.094Z</time>
      </trkpt>
      <trkpt lat="45.62525" lon="4.7504">
        <ele>277</ele>
        <time>2012-09-28T11:07:46.093Z</time>
      </trkpt>
      <trkpt lat="45.6253" lon="4.75041">
        <ele>278</ele>
        <time>2012-09-28T11:07:49.084Z</time>
      </trkpt>
      <trkpt lat="45.62534" lon="4.75035">
        <ele>278</ele>
        <time>2012-09-28T11:07:52.091Z</time>
      </trkpt>
      <trkpt lat="45.62536" lon="4.75029">
        <ele>278</ele>
        <time>2012-09-28T11:07:55.094Z</time>
      </trkpt>
      <trkpt lat="45.62537" lon="4.75021">
        <ele>278</ele>
        <time>2012-09-28T11:07:59.255Z</time>
      </trkpt>
      <trkpt lat="45.6254" lon="4.75016">
        <ele>278</ele>
        <time>2012-09-28T11:08:02.787Z</time>
      </trkpt>
      <trkpt lat="45.62539" lon="4.75008">
        <ele>279</ele>
        <time>2012-09-28T11:08:07.216Z</time>
      </trkpt>
      <trkpt lat="45.62537" lon="4.75">
        <ele>282</ele>
        <time>2012-09-28T11:08:11.792Z</time>
      </trkpt>
      <trkpt lat="45.6254" lon="4.74993">
        <ele>282</ele>
        <time>2012-09-28T11:08:15.492Z</time>
      </trkpt>
      <trkpt lat="45.62544" lon="4.74988">
        <ele>283</ele>
        <time>2012-09-28T11:08:19.098Z</time>
      </trkpt>
      <trkpt lat="45.62548" lon="4.74982">
        <ele>283</ele>
        <time>2012-09-28T11:08:23.079Z</time>
      </trkpt>
      <trkpt lat="45.62553" lon="4.74979">
        <ele>284</ele>
        <time>2012-09-28T11:08:27.248Z</time>
      </trkpt>
      <trkpt lat="45.62557" lon="4.74976">
        <ele>284</ele>
        <time>2012-09-28T11:08:30.248Z</time>
      </trkpt>
      <trkpt lat="45.62563" lon="4.74974">
        <ele>284</ele>
        <time>2012-09-28T11:08:34.248Z</time>
      </trkpt>
      <trkpt lat="45.62567" lon="4.74972">
        <ele>285</ele>
        <time>2012-09-28T11:08:37.698Z</time>
      </trkpt>
      <trkpt lat="45.62572" lon="4.74969">
        <ele>285</ele>
        <time>2012-09-28T11:08:41.212Z</time>
      </trkpt>
      <trkpt lat="45.62576" lon="4.74966">
        <ele>285</ele>
        <time>2012-09-28T11:08:44.790Z</time>
      </trkpt>
      <trkpt lat="45.62581" lon="4.74961">
        <ele>286</ele>
        <time>2012-09-28T11:08:48.790Z</time>
      </trkpt>
      <trkpt lat="45.62585" lon="4.74958">
        <ele>292</ele>
        <time>2012-09-28T11:08:52.266Z</time>
      </trkpt>
      <trkpt lat="45.6259" lon="4.74957">
        <ele>292</ele>
        <time>2012-09-28T11:08:55.141Z</time>
      </trkpt>
      <trkpt lat="45.62594" lon="4.74953">
        <ele>293</ele>
        <time>2012-09-28T11:08:59.088Z</time>
      </trkpt>
      <trkpt lat="45.62599" lon="4.7495">
        <ele>293</ele>
        <time>2012-09-28T11:09:03.092Z</time>
      </trkpt>
      <trkpt lat="45.62604" lon="4.74946">
        <ele>293</ele>
        <time>2012-09-28T11:09:07.095Z</time>
      </trkpt>
      <trkpt lat="45.6261" lon="4.74943">
        <ele>294</ele>
        <time>2012-09-28T11:09:11.142Z</time>
      </trkpt>
      <trkpt lat="45.62614" lon="4.7494">
        <ele>294</ele>
        <time>2012-09-28T11:09:15.785Z</time>
      </trkpt>
      <trkpt lat="45.62619" lon="4.74938">
        <ele>294</ele>
        <time>2012-09-28T11:09:18.785Z</time>
      </trkpt>
      <trkpt lat="45.62624" lon="4.74935">
        <ele>295</ele>
        <time>2012-09-28T11:09:22.785Z</time>
      </trkpt>
      <trkpt lat="45.62628" lon="4.74931">
        <ele>295</ele>
        <time>2012-09-28T11:09:26.785Z</time>
      </trkpt>
      <trkpt lat="45.62633" lon="4.74929">
        <ele>296</ele>
        <time>2012-09-28T11:09:29.785Z</time>
      </trkpt>
      <trkpt lat="45.62639" lon="4.74927">
        <ele>296</ele>
        <time>2012-09-28T11:09:34.090Z</time>
      </trkpt>
      <trkpt lat="45.62643" lon="4.74924">
        <ele>297</ele>
        <time>2012-09-28T11:09:37.197Z</time>
      </trkpt>
      <trkpt lat="45.62648" lon="4.74922">
        <ele>298</ele>
        <time>2012-09-28T11:09:41.152Z</time>
      </trkpt>
      <trkpt lat="45.62654" lon="4.7492">
        <ele>299</ele>
        <time>2012-09-28T11:09:44.152Z</time>
      </trkpt>
      <trkpt lat="45.6266" lon="4.74917">
        <ele>301</ele>
        <time>2012-09-28T11:09:48.152Z</time>
      </trkpt>
      <trkpt lat="45.62664" lon="4.74914">
        <ele>303</ele>
        <time>2012-09-28T11:09:51.648Z</time>
      </trkpt>
      <trkpt lat="45.6267" lon="4.74911">
        <ele>305</ele>
        <time>2012-09-28T11:09:56.098Z</time>
      </trkpt>
      <trkpt lat="45.62675" lon="4.74909">
        <ele>306</ele>
        <time>2012-09-28T11:10:00.210Z</time>
      </trkpt>
      <trkpt lat="45.6268" lon="4.74906">
        <ele>307</ele>
        <time>2012-09-28T11:10:04.790Z</time>
      </trkpt>
      <trkpt lat="45.62684" lon="4.74907">
        <ele>308</ele>
        <time>2012-09-28T11:10:09.693Z</time>
      </trkpt>
      <trkpt lat="45.62686" lon="4.74914">
        <ele>308</ele>
        <time>2012-09-28T11:10:15.091Z</time>
      </trkpt>
      <trkpt lat="45.62685" lon="4.74921">
        <ele>301</ele>
        <time>2012-09-28T11:10:18.091Z</time>
      </trkpt>
      <trkpt lat="45.62686" lon="4.74932">
        <ele>300</ele>
        <time>2012-09-28T11:10:20.089Z</time>
      </trkpt>
      <trkpt lat="45.6269" lon="4.74937">
        <ele>299</ele>
        <time>2012-09-28T11:10:21.094Z</time>
      </trkpt>
      <trkpt lat="45.62694" lon="4.74942">
        <ele>299</ele>
        <time>2012-09-28T11:10:22.094Z</time>
      </trkpt>
      <trkpt lat="45.62699" lon="4.74948">
        <ele>299</ele>
        <time>2012-09-28T11:10:23.234Z</time>
      </trkpt>
      <trkpt lat="45.62704" lon="4.74952">
        <ele>298</ele>
        <time>2012-09-28T11:10:24.234Z</time>
      </trkpt>
      <trkpt lat="45.6271" lon="4.74957">
        <ele>298</ele>
        <time>2012-09-28T11:10:25.234Z</time>
      </trkpt>
      <trkpt lat="45.62716" lon="4.74961">
        <ele>298</ele>
        <time>2012-09-28T11:10:26.234Z</time>
      </trkpt>
      <trkpt lat="45.62725" lon="4.7497">
        <ele>297</ele>
        <time>2012-09-28T11:10:27.711Z</time>
      </trkpt>
      <trkpt lat="45.6273" lon="4.74974">
        <ele>296</ele>
        <time>2012-09-28T11:10:28.711Z</time>
      </trkpt>
      <trkpt lat="45.62736" lon="4.7498">
        <ele>295</ele>
        <time>2012-09-28T11:10:30.079Z</time>
      </trkpt>
      <trkpt lat="45.62739" lon="4.74986">
        <ele>294</ele>
        <time>2012-09-28T11:10:31.089Z</time>
      </trkpt>
      <trkpt lat="45.62734" lon="4.74997">
        <ele>294</ele>
        <time>2012-09-28T11:10:33.092Z</time>
      </trkpt>
      <trkpt lat="45.6273" lon="4.75003">
        <ele>287</ele>
        <time>2012-09-28T11:10:34.093Z</time>
      </trkpt>
      <trkpt lat="45.62726" lon="4.75009">
        <ele>287</ele>
        <time>2012-09-28T11:10:35.093Z</time>
      </trkpt>
      <trkpt lat="45.6272" lon="4.75014">
        <ele>287</ele>
        <time>2012-09-28T11:10:36.094Z</time>
      </trkpt>
      <trkpt lat="45.62714" lon="4.75018">
        <ele>286</ele>
        <time>2012-09-28T11:10:37.101Z</time>
      </trkpt>
      <trkpt lat="45.62708" lon="4.75021">
        <ele>286</ele>
        <time>2012-09-28T11:10:38.079Z</time>
      </trkpt>
      <trkpt lat="45.62702" lon="4.75024">
        <ele>286</ele>
        <time>2012-09-28T11:10:39.094Z</time>
      </trkpt>
      <trkpt lat="45.62695" lon="4.75026">
        <ele>286</ele>
        <time>2012-09-28T11:10:40.091Z</time>
      </trkpt>
      <trkpt lat="45.62688" lon="4.75028">
        <ele>286</ele>
        <time>2012-09-28T11:10:41.093Z</time>
      </trkpt>
      <trkpt lat="45.62681" lon="4.7503">
        <ele>286</ele>
        <time>2012-09-28T11:10:42.090Z</time>
      </trkpt>
      <trkpt lat="45.62673" lon="4.75031">
        <ele>286</ele>
        <time>2012-09-28T11:10:43.096Z</time>
      </trkpt>
      <trkpt lat="45.62664" lon="4.75033">
        <ele>286</ele>
        <time>2012-09-28T11:10:44.205Z</time>
      </trkpt>
      <trkpt lat="45.62656" lon="4.75036">
        <ele>285</ele>
        <time>2012-09-28T11:10:45.205Z</time>
      </trkpt>
      <trkpt lat="45.62649" lon="4.75037">
        <ele>285</ele>
        <time>2012-09-28T11:10:46.205Z</time>
      </trkpt>
      <trkpt lat="45.62642" lon="4.75039">
        <ele>284</ele>
        <time>2012-09-28T11:10:47.090Z</time>
      </trkpt>
      <trkpt lat="45.62635" lon="4.7504">
        <ele>284</ele>
        <time>2012-09-28T11:10:48.094Z</time>
      </trkpt>
      <trkpt lat="45.62631" lon="4.75044">
        <ele>284</ele>
        <time>2012-09-28T11:10:49.090Z</time>
      </trkpt>
      <trkpt lat="45.62626" lon="4.75056">
        <ele>283</ele>
        <time>2012-09-28T11:10:51.091Z</time>
      </trkpt>
      <trkpt lat="45.62624" lon="4.75062">
        <ele>283</ele>
        <time>2012-09-28T11:10:52.091Z</time>
      </trkpt>
      <trkpt lat="45.62623" lon="4.7507">
        <ele>283</ele>
        <time>2012-09-28T11:10:53.090Z</time>
      </trkpt>
      <trkpt lat="45.62622" lon="4.75078">
        <ele>282</ele>
        <time>2012-09-28T11:10:54.078Z</time>
      </trkpt>
      <trkpt lat="45.6262" lon="4.75086">
        <ele>279</ele>
        <time>2012-09-28T11:10:55.089Z</time>
      </trkpt>
      <trkpt lat="45.6262" lon="4.75094">
        <ele>279</ele>
        <time>2012-09-28T11:10:57.094Z</time>
      </trkpt>
      <trkpt lat="45.62623" lon="4.75099">
        <ele>279</ele>
        <time>2012-09-28T11:10:59.090Z</time>
      </trkpt>
      <trkpt lat="45.62629" lon="4.75106">
        <ele>279</ele>
        <time>2012-09-28T11:11:02.214Z</time>
      </trkpt>
      <trkpt lat="45.62635" lon="4.7511">
        <ele>279</ele>
        <time>2012-09-28T11:11:04.214Z</time>
      </trkpt>
      <trkpt lat="45.62642" lon="4.75112">
        <ele>279</ele>
        <time>2012-09-28T11:11:06.214Z</time>
      </trkpt>
      <trkpt lat="45.62648" lon="4.75115">
        <ele>279</ele>
        <time>2012-09-28T11:11:08.214Z</time>
      </trkpt>
      <trkpt lat="45.62656" lon="4.75118">
        <ele>279</ele>
        <time>2012-09-28T11:11:11.058Z</time>
      </trkpt>
      <trkpt lat="45.62665" lon="4.75122">
        <ele>279</ele>
        <time>2012-09-28T11:11:14.086Z</time>
      </trkpt>
      <trkpt lat="45.62671" lon="4.75125">
        <ele>277</ele>
        <time>2012-09-28T11:11:16.098Z</time>
      </trkpt>
      <trkpt lat="45.62678" lon="4.75127">
        <ele>277</ele>
        <time>2012-09-28T11:11:18.094Z</time>
      </trkpt>
      <trkpt lat="45.62686" lon="4.7513">
        <ele>277</ele>
        <time>2012-09-28T11:11:20.222Z</time>
      </trkpt>
      <trkpt lat="45.62691" lon="4.75132">
        <ele>277</ele>
        <time>2012-09-28T11:11:21.673Z</time>
      </trkpt>
      <trkpt lat="45.62696" lon="4.75133">
        <ele>277</ele>
        <time>2012-09-28T11:11:23.088Z</time>
      </trkpt>
      <trkpt lat="45.62701" lon="4.75135">
        <ele>276</ele>
        <time>2012-09-28T11:11:25.083Z</time>
      </trkpt>
      <trkpt lat="45.62707" lon="4.75137">
        <ele>276</ele>
        <time>2012-09-28T11:11:27.203Z</time>
      </trkpt>
      <trkpt lat="45.62712" lon="4.75139">
        <ele>276</ele>
        <time>2012-09-28T11:11:28.708Z</time>
      </trkpt>
      <trkpt lat="45.62719" lon="4.75141">
        <ele>276</ele>
        <time>2012-09-28T11:11:30.791Z</time>
      </trkpt>
      <trkpt lat="45.62724" lon="4.75141">
        <ele>275</ele>
        <time>2012-09-28T11:11:31.791Z</time>
      </trkpt>
      <trkpt lat="45.62731" lon="4.75142">
        <ele>275</ele>
        <time>2012-09-28T11:11:33.228Z</time>
      </trkpt>
      <trkpt lat="45.6274" lon="4.75142">
        <ele>275</ele>
        <time>2012-09-28T11:11:35.228Z</time>
      </trkpt>
      <trkpt lat="45.6275" lon="4.75143">
        <ele>274</ele>
        <time>2012-09-28T11:11:37.078Z</time>
      </trkpt>
      <trkpt lat="45.62757" lon="4.75143">
        <ele>271</ele>
        <time>2012-09-28T11:11:38.223Z</time>
      </trkpt>
      <trkpt lat="45.62762" lon="4.75145">
        <ele>270</ele>
        <time>2012-09-28T11:11:39.223Z</time>
      </trkpt>
      <trkpt lat="45.62764" lon="4.75152">
        <ele>270</ele>
        <time>2012-09-28T11:11:40.223Z</time>
      </trkpt>
      <trkpt lat="45.62768" lon="4.75157">
        <ele>270</ele>
        <time>2012-09-28T11:11:41.223Z</time>
      </trkpt>
      <trkpt lat="45.62771" lon="4.75162">
        <ele>270</ele>
        <time>2012-09-28T11:11:42.223Z</time>
      </trkpt>
      <trkpt lat="45.62778" lon="4.75174">
        <ele>266</ele>
        <time>2012-09-28T11:11:44.090Z</time>
      </trkpt>
      <trkpt lat="45.62782" lon="4.75181">
        <ele>265</ele>
        <time>2012-09-28T11:11:45.253Z</time>
      </trkpt>
      <trkpt lat="45.62785" lon="4.75186">
        <ele>265</ele>
        <time>2012-09-28T11:11:46.253Z</time>
      </trkpt>
      <trkpt lat="45.62789" lon="4.75194">
        <ele>264</ele>
        <time>2012-09-28T11:11:48.253Z</time>
      </trkpt>
      <trkpt lat="45.62792" lon="4.752">
        <ele>264</ele>
        <time>2012-09-28T11:11:49.253Z</time>
      </trkpt>
      <trkpt lat="45.62795" lon="4.75207">
        <ele>263</ele>
        <time>2012-09-28T11:11:50.253Z</time>
      </trkpt>
      <trkpt lat="45.62802" lon="4.7522">
        <ele>262</ele>
        <time>2012-09-28T11:11:52.104Z</time>
      </trkpt>
      <trkpt lat="45.62807" lon="4.75228">
        <ele>262</ele>
        <time>2012-09-28T11:11:53.233Z</time>
      </trkpt>
      <trkpt lat="45.6281" lon="4.75234">
        <ele>261</ele>
        <time>2012-09-28T11:11:54.233Z</time>
      </trkpt>
      <trkpt lat="45.62813" lon="4.75241">
        <ele>260</ele>
        <time>2012-09-28T11:11:56.233Z</time>
      </trkpt>
      <trkpt lat="45.62817" lon="4.7525">
        <ele>256</ele>
        <time>2012-09-28T11:11:58.233Z</time>
      </trkpt>
      <trkpt lat="45.6282" lon="4.75256">
        <ele>256</ele>
        <time>2012-09-28T11:11:59.233Z</time>
      </trkpt>
      <trkpt lat="45.62824" lon="4.75267">
        <ele>256</ele>
        <time>2012-09-28T11:12:01.097Z</time>
      </trkpt>
      <trkpt lat="45.62826" lon="4.75274">
        <ele>256</ele>
        <time>2012-09-28T11:12:02.090Z</time>
      </trkpt>
      <trkpt lat="45.6283" lon="4.7528">
        <ele>255</ele>
        <time>2012-09-28T11:12:03.091Z</time>
      </trkpt>
      <trkpt lat="45.62834" lon="4.75286">
        <ele>248</ele>
        <time>2012-09-28T11:12:04.220Z</time>
      </trkpt>
      <trkpt lat="45.62839" lon="4.75291">
        <ele>247</ele>
        <time>2012-09-28T11:12:05.220Z</time>
      </trkpt>
      <trkpt lat="45.62843" lon="4.75296">
        <ele>247</ele>
        <time>2012-09-28T11:12:06.220Z</time>
      </trkpt>
      <trkpt lat="45.62847" lon="4.75302">
        <ele>246</ele>
        <time>2012-09-28T11:12:07.220Z</time>
      </trkpt>
      <trkpt lat="45.62852" lon="4.75308">
        <ele>246</ele>
        <time>2012-09-28T11:12:08.400Z</time>
      </trkpt>
      <trkpt lat="45.62864" lon="4.75324">
        <ele>245</ele>
        <time>2012-09-28T11:12:11.120Z</time>
      </trkpt>
      <trkpt lat="45.62869" lon="4.75332">
        <ele>244</ele>
        <time>2012-09-28T11:12:12.120Z</time>
      </trkpt>
      <trkpt lat="45.62876" lon="4.75341">
        <ele>239</ele>
        <time>2012-09-28T11:12:14.077Z</time>
      </trkpt>
      <trkpt lat="45.6288" lon="4.75344">
        <ele>238</ele>
        <time>2012-09-28T11:12:15.078Z</time>
      </trkpt>
      <trkpt lat="45.62883" lon="4.75349">
        <ele>238</ele>
        <time>2012-09-28T11:12:16.077Z</time>
      </trkpt>
      <trkpt lat="45.62887" lon="4.75354">
        <ele>238</ele>
        <time>2012-09-28T11:12:17.077Z</time>
      </trkpt>
      <trkpt lat="45.6289" lon="4.7536">
        <ele>237</ele>
        <time>2012-09-28T11:12:18.077Z</time>
      </trkpt>
      <trkpt lat="45.62894" lon="4.75365">
        <ele>237</ele>
        <time>2012-09-28T11:12:19.097Z</time>
      </trkpt>
      <trkpt lat="45.62899" lon="4.75373">
        <ele>237</ele>
        <time>2012-09-28T11:12:21.096Z</time>
      </trkpt>
      <trkpt lat="45.62904" lon="4.75376">
        <ele>236</ele>
        <time>2012-09-28T11:12:23.082Z</time>
      </trkpt>
      <trkpt lat="45.62913" lon="4.75376">
        <ele>236</ele>
        <time>2012-09-28T11:12:25.082Z</time>
      </trkpt>
      <trkpt lat="45.62921" lon="4.75375">
        <ele>233</ele>
        <time>2012-09-28T11:12:27.078Z</time>
      </trkpt>
      <trkpt lat="45.62926" lon="4.75375">
        <ele>233</ele>
        <time>2012-09-28T11:12:28.077Z</time>
      </trkpt>
      <trkpt lat="45.62931" lon="4.75374">
        <ele>233</ele>
        <time>2012-09-28T11:12:29.082Z</time>
      </trkpt>
      <trkpt lat="45.62939" lon="4.75375">
        <ele>233</ele>
        <time>2012-09-28T11:12:31.090Z</time>
      </trkpt>
      <trkpt lat="45.62945" lon="4.75376">
        <ele>233</ele>
        <time>2012-09-28T11:12:33.086Z</time>
      </trkpt>
      <trkpt lat="45.62952" lon="4.75377">
        <ele>233</ele>
        <time>2012-09-28T11:12:35.255Z</time>
      </trkpt>
      <trkpt lat="45.62957" lon="4.75378">
        <ele>232</ele>
        <time>2012-09-28T11:12:38.255Z</time>
      </trkpt>
      <trkpt lat="45.62961" lon="4.75385">
        <ele>232</ele>
        <time>2012-09-28T11:12:41.787Z</time>
      </trkpt>
      <trkpt lat="45.62964" lon="4.75391">
        <ele>232</ele>
        <time>2012-09-28T11:12:43.787Z</time>
      </trkpt>
      <trkpt lat="45.62966" lon="4.75398">
        <ele>232</ele>
        <time>2012-09-28T11:12:45.264Z</time>
      </trkpt>
      <trkpt lat="45.62969" lon="4.75412">
        <ele>231</ele>
        <time>2012-09-28T11:12:47.264Z</time>
      </trkpt>
      <trkpt lat="45.6297" lon="4.7542">
        <ele>227</ele>
        <time>2012-09-28T11:12:48.264Z</time>
      </trkpt>
      <trkpt lat="45.62971" lon="4.75428">
        <ele>227</ele>
        <time>2012-09-28T11:12:49.264Z</time>
      </trkpt>
      <trkpt lat="45.62973" lon="4.75442">
        <ele>226</ele>
        <time>2012-09-28T11:12:51.102Z</time>
      </trkpt>
      <trkpt lat="45.62974" lon="4.75451">
        <ele>226</ele>
        <time>2012-09-28T11:12:52.244Z</time>
      </trkpt>
      <trkpt lat="45.62974" lon="4.7546">
        <ele>226</ele>
        <time>2012-09-28T11:12:53.244Z</time>
      </trkpt>
      <trkpt lat="45.62974" lon="4.75469">
        <ele>225</ele>
        <time>2012-09-28T11:12:54.244Z</time>
      </trkpt>
      <trkpt lat="45.62974" lon="4.75479">
        <ele>225</ele>
        <time>2012-09-28T11:12:55.244Z</time>
      </trkpt>
      <trkpt lat="45.62974" lon="4.7549">
        <ele>224</ele>
        <time>2012-09-28T11:12:56.244Z</time>
      </trkpt>
      <trkpt lat="45.62975" lon="4.75501">
        <ele>220</ele>
        <time>2012-09-28T11:12:57.244Z</time>
      </trkpt>
      <trkpt lat="45.62978" lon="4.75512">
        <ele>220</ele>
        <time>2012-09-28T11:12:58.244Z</time>
      </trkpt>
      <trkpt lat="45.6298" lon="4.7553">
        <ele>219</ele>
        <time>2012-09-28T11:12:59.804Z</time>
      </trkpt>
      <trkpt lat="45.62981" lon="4.75539">
        <ele>219</ele>
        <time>2012-09-28T11:13:00.804Z</time>
      </trkpt>
      <trkpt lat="45.62977" lon="4.75547">
        <ele>219</ele>
        <time>2012-09-28T11:13:01.804Z</time>
      </trkpt>
      <trkpt lat="45.62975" lon="4.75554">
        <ele>218</ele>
        <time>2012-09-28T11:13:02.804Z</time>
      </trkpt>
      <trkpt lat="45.62972" lon="4.75561">
        <ele>218</ele>
        <time>2012-09-28T11:13:04.077Z</time>
      </trkpt>
      <trkpt lat="45.62969" lon="4.75566">
        <ele>218</ele>
        <time>2012-09-28T11:13:05.081Z</time>
      </trkpt>
      <trkpt lat="45.62964" lon="4.75571">
        <ele>218</ele>
        <time>2012-09-28T11:13:06.095Z</time>
      </trkpt>
      <trkpt lat="45.62958" lon="4.75574">
        <ele>219</ele>
        <time>2012-09-28T11:13:07.083Z</time>
      </trkpt>
      <trkpt lat="45.62953" lon="4.75573">
        <ele>219</ele>
        <time>2012-09-28T11:13:08.097Z</time>
      </trkpt>
      <trkpt lat="45.62949" lon="4.7557">
        <ele>219</ele>
        <time>2012-09-28T11:13:09.083Z</time>
      </trkpt>
      <trkpt lat="45.62944" lon="4.75565">
        <ele>219</ele>
        <time>2012-09-28T11:13:11.009Z</time>
      </trkpt>
      <trkpt lat="45.6294" lon="4.75572">
        <ele>219</ele>
        <time>2012-09-28T11:13:12.474Z</time>
      </trkpt>
      <trkpt lat="45.62941" lon="4.75579">
        <ele>219</ele>
        <time>2012-09-28T11:13:14.088Z</time>
      </trkpt>
      <trkpt lat="45.62946" lon="4.75586">
        <ele>215</ele>
        <time>2012-09-28T11:13:15.090Z</time>
      </trkpt>
      <trkpt lat="45.62952" lon="4.75592">
        <ele>214</ele>
        <time>2012-09-28T11:13:16.083Z</time>
      </trkpt>
      <trkpt lat="45.62955" lon="4.75598">
        <ele>214</ele>
        <time>2012-09-28T11:13:17.095Z</time>
      </trkpt>
      <trkpt lat="45.62959" lon="4.75611">
        <ele>213</ele>
        <time>2012-09-28T11:13:18.086Z</time>
      </trkpt>
      <trkpt lat="45.62965" lon="4.75622">
        <ele>212</ele>
        <time>2012-09-28T11:13:19.091Z</time>
      </trkpt>
      <trkpt lat="45.62969" lon="4.75633">
        <ele>211</ele>
        <time>2012-09-28T11:13:20.095Z</time>
      </trkpt>
      <trkpt lat="45.62971" lon="4.75647">
        <ele>211</ele>
        <time>2012-09-28T11:13:21.086Z</time>
      </trkpt>
      <trkpt lat="45.62973" lon="4.75662">
        <ele>210</ele>
        <time>2012-09-28T11:13:22.090Z</time>
      </trkpt>
      <trkpt lat="45.62976" lon="4.75674">
        <ele>203</ele>
        <time>2012-09-28T11:13:23.098Z</time>
      </trkpt>
      <trkpt lat="45.62978" lon="4.75687">
        <ele>202</ele>
        <time>2012-09-28T11:13:24.103Z</time>
      </trkpt>
      <trkpt lat="45.62979" lon="4.75698">
        <ele>201</ele>
        <time>2012-09-28T11:13:25.087Z</time>
      </trkpt>
      <trkpt lat="45.6298" lon="4.75709">
        <ele>199</ele>
        <time>2012-09-28T11:13:26.091Z</time>
      </trkpt>
      <trkpt lat="45.62981" lon="4.75716">
        <ele>198</ele>
        <time>2012-09-28T11:13:27.095Z</time>
      </trkpt>
      <trkpt lat="45.62982" lon="4.75723">
        <ele>197</ele>
        <time>2012-09-28T11:13:39.091Z</time>
      </trkpt>
      <trkpt lat="45.62982" lon="4.7573">
        <ele>196</ele>
        <time>2012-09-28T11:13:46.092Z</time>
      </trkpt>
      <trkpt lat="45.62981" lon="4.75737">
        <ele>196</ele>
        <time>2012-09-28T11:13:48.094Z</time>
      </trkpt>
      <trkpt lat="45.62978" lon="4.75747">
        <ele>195</ele>
        <time>2012-09-28T11:13:50.090Z</time>
      </trkpt>
      <trkpt lat="45.62977" lon="4.75753">
        <ele>188</ele>
        <time>2012-09-28T11:13:51.089Z</time>
      </trkpt>
      <trkpt lat="45.62975" lon="4.7576">
        <ele>188</ele>
        <time>2012-09-28T11:13:52.097Z</time>
      </trkpt>
      <trkpt lat="45.62975" lon="4.75768">
        <ele>188</ele>
        <time>2012-09-28T11:13:53.100Z</time>
      </trkpt>
      <trkpt lat="45.62978" lon="4.7578">
        <ele>187</ele>
        <time>2012-09-28T11:13:55.085Z</time>
      </trkpt>
      <trkpt lat="45.6298" lon="4.75787">
        <ele>187</ele>
        <time>2012-09-28T11:13:58.091Z</time>
      </trkpt>
      <trkpt lat="45.62979" lon="4.75794">
        <ele>187</ele>
        <time>2012-09-28T11:14:16.093Z</time>
      </trkpt>
      <trkpt lat="45.62976" lon="4.75803">
        <ele>186</ele>
        <time>2012-09-28T11:14:19.091Z</time>
      </trkpt>
      <trkpt lat="45.62973" lon="4.75808">
        <ele>186</ele>
        <time>2012-09-28T11:14:21.223Z</time>
      </trkpt>
      <trkpt lat="45.62966" lon="4.75812">
        <ele>186</ele>
        <time>2012-09-28T11:14:23.077Z</time>
      </trkpt>
      <trkpt lat="45.62963" lon="4.75822">
        <ele>186</ele>
        <time>2012-09-28T11:14:25.104Z</time>
      </trkpt>
      <trkpt lat="45.62961" lon="4.75832">
        <ele>185</ele>
        <time>2012-09-28T11:14:27.242Z</time>
      </trkpt>
      <trkpt lat="45.62962" lon="4.75838">
        <ele>181</ele>
        <time>2012-09-28T11:14:42.257Z</time>
      </trkpt>
      <trkpt lat="45.62963" lon="4.75848">
        <ele>181</ele>
        <time>2012-09-28T11:14:44.257Z</time>
      </trkpt>
      <trkpt lat="45.62963" lon="4.75856">
        <ele>181</ele>
        <time>2012-09-28T11:14:45.685Z</time>
      </trkpt>
      <trkpt lat="45.62963" lon="4.75866">
        <ele>181</ele>
        <time>2012-09-28T11:14:47.092Z</time>
      </trkpt>
      <trkpt lat="45.62962" lon="4.75872">
        <ele>181</ele>
        <time>2012-09-28T11:14:48.092Z</time>
      </trkpt>
      <trkpt lat="45.62961" lon="4.75885">
        <ele>180</ele>
        <time>2012-09-28T11:14:50.094Z</time>
      </trkpt>
      <trkpt lat="45.62961" lon="4.75892">
        <ele>180</ele>
        <time>2012-09-28T11:14:51.091Z</time>
      </trkpt>
      <trkpt lat="45.62961" lon="4.75899">
        <ele>180</ele>
        <time>2012-09-28T11:14:52.091Z</time>
      </trkpt>
      <trkpt lat="45.6296" lon="4.75907">
        <ele>180</ele>
        <time>2012-09-28T11:14:53.219Z</time>
      </trkpt>
      <trkpt lat="45.62959" lon="4.75914">
        <ele>180</ele>
        <time>2012-09-28T11:14:54.219Z</time>
      </trkpt>
      <trkpt lat="45.62957" lon="4.7593">
        <ele>178</ele>
        <time>2012-09-28T11:14:56.092Z</time>
      </trkpt>
      <trkpt lat="45.62957" lon="4.75938">
        <ele>178</ele>
        <time>2012-09-28T11:14:57.101Z</time>
      </trkpt>
      <trkpt lat="45.62956" lon="4.75945">
        <ele>178</ele>
        <time>2012-09-28T11:14:58.081Z</time>
      </trkpt>
      <trkpt lat="45.62955" lon="4.75951">
        <ele>178</ele>
        <time>2012-09-28T11:14:59.091Z</time>
      </trkpt>
      <trkpt lat="45.62955" lon="4.75958">
        <ele>178</ele>
        <time>2012-09-28T11:15:00.094Z</time>
      </trkpt>
      <trkpt lat="45.62954" lon="4.75965">
        <ele>178</ele>
        <time>2012-09-28T11:15:01.091Z</time>
      </trkpt>
      <trkpt lat="45.62953" lon="4.75973">
        <ele>178</ele>
        <time>2012-09-28T11:15:02.092Z</time>
      </trkpt>
      <trkpt lat="45.62952" lon="4.7598">
        <ele>178</ele>
        <time>2012-09-28T11:15:03.091Z</time>
      </trkpt>
      <trkpt lat="45.62951" lon="4.75992">
        <ele>178</ele>
        <time>2012-09-28T11:15:05.084Z</time>
      </trkpt>
      <trkpt lat="45.6295" lon="4.76003">
        <ele>178</ele>
        <time>2012-09-28T11:15:07.092Z</time>
      </trkpt>
      <trkpt lat="45.62949" lon="4.7601">
        <ele>178</ele>
        <time>2012-09-28T11:15:08.092Z</time>
      </trkpt>
      <trkpt lat="45.62947" lon="4.76029">
        <ele>178</ele>
        <time>2012-09-28T11:15:11.080Z</time>
      </trkpt>
      <trkpt lat="45.62946" lon="4.76039">
        <ele>178</ele>
        <time>2012-09-28T11:15:12.548Z</time>
      </trkpt>
      <trkpt lat="45.62945" lon="4.76048">
        <ele>178</ele>
        <time>2012-09-28T11:15:14.081Z</time>
      </trkpt>
      <trkpt lat="45.6294" lon="4.76058">
        <ele>179</ele>
        <time>2012-09-28T11:15:16.092Z</time>
      </trkpt>
      <trkpt lat="45.62931" lon="4.7606">
        <ele>179</ele>
        <time>2012-09-28T11:15:18.091Z</time>
      </trkpt>
      <trkpt lat="45.62926" lon="4.7606">
        <ele>179</ele>
        <time>2012-09-28T11:15:19.084Z</time>
      </trkpt>
      <trkpt lat="45.6292" lon="4.76059">
        <ele>179</ele>
        <time>2012-09-28T11:15:20.090Z</time>
      </trkpt>
      <trkpt lat="45.62913" lon="4.76058">
        <ele>178</ele>
        <time>2012-09-28T11:15:21.092Z</time>
      </trkpt>
      <trkpt lat="45.62906" lon="4.76059">
        <ele>178</ele>
        <time>2012-09-28T11:15:22.088Z</time>
      </trkpt>
      <trkpt lat="45.629" lon="4.76059">
        <ele>178</ele>
        <time>2012-09-28T11:15:23.090Z</time>
      </trkpt>
      <trkpt lat="45.62893" lon="4.7606">
        <ele>178</ele>
        <time>2012-09-28T11:15:24.088Z</time>
      </trkpt>
      <trkpt lat="45.62886" lon="4.76062">
        <ele>178</ele>
        <time>2012-09-28T11:15:25.077Z</time>
      </trkpt>
      <trkpt lat="45.62878" lon="4.76063">
        <ele>177</ele>
        <time>2012-09-28T11:15:26.094Z</time>
      </trkpt>
      <trkpt lat="45.62871" lon="4.76063">
        <ele>177</ele>
        <time>2012-09-28T11:15:27.090Z</time>
      </trkpt>
      <trkpt lat="45.62863" lon="4.76065">
        <ele>177</ele>
        <time>2012-09-28T11:15:28.097Z</time>
      </trkpt>
      <trkpt lat="45.62855" lon="4.76066">
        <ele>177</ele>
        <time>2012-09-28T11:15:29.099Z</time>
      </trkpt>
      <trkpt lat="45.62848" lon="4.76068">
        <ele>177</ele>
        <time>2012-09-28T11:15:30.084Z</time>
      </trkpt>
      <trkpt lat="45.6284" lon="4.7607">
        <ele>177</ele>
        <time>2012-09-28T11:15:31.088Z</time>
      </trkpt>
      <trkpt lat="45.62832" lon="4.76071">
        <ele>176</ele>
        <time>2012-09-28T11:15:32.076Z</time>
      </trkpt>
      <trkpt lat="45.62825" lon="4.76071">
        <ele>176</ele>
        <time>2012-09-28T11:15:33.088Z</time>
      </trkpt>
      <trkpt lat="45.62817" lon="4.76071">
        <ele>176</ele>
        <time>2012-09-28T11:15:34.076Z</time>
      </trkpt>
      <trkpt lat="45.62809" lon="4.7607">
        <ele>177</ele>
        <time>2012-09-28T11:15:35.090Z</time>
      </trkpt>
      <trkpt lat="45.62802" lon="4.76069">
        <ele>177</ele>
        <time>2012-09-28T11:15:36.093Z</time>
      </trkpt>
      <trkpt lat="45.62794" lon="4.76068">
        <ele>177</ele>
        <time>2012-09-28T11:15:37.089Z</time>
      </trkpt>
      <trkpt lat="45.62787" lon="4.76067">
        <ele>177</ele>
        <time>2012-09-28T11:15:38.077Z</time>
      </trkpt>
      <trkpt lat="45.6278" lon="4.76066">
        <ele>177</ele>
        <time>2012-09-28T11:15:39.089Z</time>
      </trkpt>
      <trkpt lat="45.62772" lon="4.76066">
        <ele>176</ele>
        <time>2012-09-28T11:15:40.093Z</time>
      </trkpt>
      <trkpt lat="45.62765" lon="4.76067">
        <ele>176</ele>
        <time>2012-09-28T11:15:41.093Z</time>
      </trkpt>
      <trkpt lat="45.62758" lon="4.76068">
        <ele>176</ele>
        <time>2012-09-28T11:15:42.091Z</time>
      </trkpt>
      <trkpt lat="45.62751" lon="4.7607">
        <ele>176</ele>
        <time>2012-09-28T11:15:43.091Z</time>
      </trkpt>
      <trkpt lat="45.62744" lon="4.76073">
        <ele>178</ele>
        <time>2012-09-28T11:15:44.091Z</time>
      </trkpt>
      <trkpt lat="45.62738" lon="4.76078">
        <ele>178</ele>
        <time>2012-09-28T11:15:45.102Z</time>
      </trkpt>
      <trkpt lat="45.62732" lon="4.76083">
        <ele>179</ele>
        <time>2012-09-28T11:15:46.077Z</time>
      </trkpt>
      <trkpt lat="45.62725" lon="4.76089">
        <ele>177</ele>
        <time>2012-09-28T11:15:47.091Z</time>
      </trkpt>
      <trkpt lat="45.6272" lon="4.76095">
        <ele>177</ele>
        <time>2012-09-28T11:15:48.092Z</time>
      </trkpt>
      <trkpt lat="45.62714" lon="4.761">
        <ele>177</ele>
        <time>2012-09-28T11:15:49.090Z</time>
      </trkpt>
      <trkpt lat="45.62708" lon="4.76107">
        <ele>178</ele>
        <time>2012-09-28T11:15:50.091Z</time>
      </trkpt>
      <trkpt lat="45.62703" lon="4.76116">
        <ele>178</ele>
        <time>2012-09-28T11:15:51.089Z</time>
      </trkpt>
      <trkpt lat="45.627" lon="4.76124">
        <ele>178</ele>
        <time>2012-09-28T11:15:52.092Z</time>
      </trkpt>
      <trkpt lat="45.62696" lon="4.76133">
        <ele>178</ele>
        <time>2012-09-28T11:15:53.082Z</time>
      </trkpt>
      <trkpt lat="45.62692" lon="4.76142">
        <ele>178</ele>
        <time>2012-09-28T11:15:54.097Z</time>
      </trkpt>
      <trkpt lat="45.62689" lon="4.7615">
        <ele>177</ele>
        <time>2012-09-28T11:15:55.084Z</time>
      </trkpt>
      <trkpt lat="45.62685" lon="4.7616">
        <ele>177</ele>
        <time>2012-09-28T11:15:56.092Z</time>
      </trkpt>
      <trkpt lat="45.6268" lon="4.76169">
        <ele>177</ele>
        <time>2012-09-28T11:15:57.084Z</time>
      </trkpt>
      <trkpt lat="45.62676" lon="4.76177">
        <ele>177</ele>
        <time>2012-09-28T11:15:58.083Z</time>
      </trkpt>
      <trkpt lat="45.62672" lon="4.76186">
        <ele>177</ele>
        <time>2012-09-28T11:15:59.094Z</time>
      </trkpt>
      <trkpt lat="45.62669" lon="4.76196">
        <ele>177</ele>
        <time>2012-09-28T11:16:00.091Z</time>
      </trkpt>
      <trkpt lat="45.62665" lon="4.76205">
        <ele>177</ele>
        <time>2012-09-28T11:16:01.100Z</time>
      </trkpt>
      <trkpt lat="45.62662" lon="4.76213">
        <ele>177</ele>
        <time>2012-09-28T11:16:02.082Z</time>
      </trkpt>
      <trkpt lat="45.62658" lon="4.76222">
        <ele>177</ele>
        <time>2012-09-28T11:16:03.089Z</time>
      </trkpt>
      <trkpt lat="45.62654" lon="4.76229">
        <ele>176</ele>
        <time>2012-09-28T11:16:04.075Z</time>
      </trkpt>
      <trkpt lat="45.62647" lon="4.76235">
        <ele>176</ele>
        <time>2012-09-28T11:16:05.093Z</time>
      </trkpt>
      <trkpt lat="45.62642" lon="4.7624">
        <ele>177</ele>
        <time>2012-09-28T11:16:06.088Z</time>
      </trkpt>
      <trkpt lat="45.62637" lon="4.76247">
        <ele>177</ele>
        <time>2012-09-28T11:16:07.077Z</time>
      </trkpt>
      <trkpt lat="45.62632" lon="4.76252">
        <ele>176</ele>
        <time>2012-09-28T11:16:08.094Z</time>
      </trkpt>
      <trkpt lat="45.62627" lon="4.7626">
        <ele>176</ele>
        <time>2012-09-28T11:16:09.090Z</time>
      </trkpt>
      <trkpt lat="45.62618" lon="4.76277">
        <ele>177</ele>
        <time>2012-09-28T11:16:11.066Z</time>
      </trkpt>
      <trkpt lat="45.62615" lon="4.76286">
        <ele>177</ele>
        <time>2012-09-28T11:16:12.066Z</time>
      </trkpt>
      <trkpt lat="45.62608" lon="4.76303">
        <ele>176</ele>
        <time>2012-09-28T11:16:14.093Z</time>
      </trkpt>
      <trkpt lat="45.62605" lon="4.76312">
        <ele>176</ele>
        <time>2012-09-28T11:16:15.091Z</time>
      </trkpt>
      <trkpt lat="45.626" lon="4.7632">
        <ele>176</ele>
        <time>2012-09-28T11:16:16.092Z</time>
      </trkpt>
      <trkpt lat="45.62597" lon="4.76327">
        <ele>176</ele>
        <time>2012-09-28T11:16:17.098Z</time>
      </trkpt>
      <trkpt lat="45.62594" lon="4.76335">
        <ele>176</ele>
        <time>2012-09-28T11:16:18.084Z</time>
      </trkpt>
      <trkpt lat="45.62591" lon="4.76343">
        <ele>176</ele>
        <time>2012-09-28T11:16:19.086Z</time>
      </trkpt>
      <trkpt lat="45.62588" lon="4.76351">
        <ele>176</ele>
        <time>2012-09-28T11:16:20.077Z</time>
      </trkpt>
      <trkpt lat="45.62582" lon="4.76359">
        <ele>175</ele>
        <time>2012-09-28T11:16:21.070Z</time>
      </trkpt>
      <trkpt lat="45.62579" lon="4.76367">
        <ele>175</ele>
        <time>2012-09-28T11:16:22.077Z</time>
      </trkpt>
      <trkpt lat="45.62577" lon="4.76372">
        <ele>175</ele>
        <time>2012-09-28T11:16:23.097Z</time>
      </trkpt>
      <trkpt lat="45.62572" lon="4.76379">
        <ele>175</ele>
        <time>2012-09-28T11:16:24.084Z</time>
      </trkpt>
      <trkpt lat="45.62569" lon="4.76386">
        <ele>175</ele>
        <time>2012-09-28T11:16:25.092Z</time>
      </trkpt>
      <trkpt lat="45.62565" lon="4.76393">
        <ele>175</ele>
        <time>2012-09-28T11:16:26.094Z</time>
      </trkpt>
      <trkpt lat="45.62563" lon="4.76401">
        <ele>175</ele>
        <time>2012-09-28T11:16:27.084Z</time>
      </trkpt>
      <trkpt lat="45.62561" lon="4.76406">
        <ele>175</ele>
        <time>2012-09-28T11:16:28.092Z</time>
      </trkpt>
      <trkpt lat="45.62558" lon="4.76418">
        <ele>174</ele>
        <time>2012-09-28T11:16:30.086Z</time>
      </trkpt>
      <trkpt lat="45.62558" lon="4.76431">
        <ele>174</ele>
        <time>2012-09-28T11:16:32.099Z</time>
      </trkpt>
      <trkpt lat="45.62558" lon="4.76442">
        <ele>174</ele>
        <time>2012-09-28T11:16:34.083Z</time>
      </trkpt>
      <trkpt lat="45.6256" lon="4.76453">
        <ele>175</ele>
        <time>2012-09-28T11:16:36.092Z</time>
      </trkpt>
      <trkpt lat="45.62565" lon="4.76463">
        <ele>175</ele>
        <time>2012-09-28T11:16:38.083Z</time>
      </trkpt>
      <trkpt lat="45.62568" lon="4.76467">
        <ele>175</ele>
        <time>2012-09-28T11:16:39.085Z</time>
      </trkpt>
      <trkpt lat="45.62575" lon="4.76477">
        <ele>175</ele>
        <time>2012-09-28T11:16:41.200Z</time>
      </trkpt>
      <trkpt lat="45.6258" lon="4.76483">
        <ele>176</ele>
        <time>2012-09-28T11:16:43.091Z</time>
      </trkpt>
      <trkpt lat="45.62586" lon="4.76488">
        <ele>177</ele>
        <time>2012-09-28T11:16:45.093Z</time>
      </trkpt>
      <trkpt lat="45.62592" lon="4.76494">
        <ele>177</ele>
        <time>2012-09-28T11:16:47.230Z</time>
      </trkpt>
      <trkpt lat="45.62597" lon="4.76498">
        <ele>177</ele>
        <time>2012-09-28T11:16:48.763Z</time>
      </trkpt>
      <trkpt lat="45.626" lon="4.76502">
        <ele>179</ele>
        <time>2012-09-28T11:16:50.763Z</time>
      </trkpt>
      <trkpt lat="45.62603" lon="4.76511">
        <ele>179</ele>
        <time>2012-09-28T11:16:53.091Z</time>
      </trkpt>
      <trkpt lat="45.62602" lon="4.76518">
        <ele>179</ele>
        <time>2012-09-28T11:16:54.091Z</time>
      </trkpt>
      <trkpt lat="45.62599" lon="4.76527">
        <ele>180</ele>
        <time>2012-09-28T11:16:57.092Z</time>
      </trkpt>
      <trkpt lat="45.62596" lon="4.76534">
        <ele>180</ele>
        <time>2012-09-28T11:17:00.091Z</time>
      </trkpt>
      <trkpt lat="45.62594" lon="4.76541">
        <ele>180</ele>
        <time>2012-09-28T11:17:02.084Z</time>
      </trkpt>
      <trkpt lat="45.62592" lon="4.76548">
        <ele>180</ele>
        <time>2012-09-28T11:17:05.103Z</time>
      </trkpt>
      <trkpt lat="45.62593" lon="4.76556">
        <ele>180</ele>
        <time>2012-09-28T11:17:08.095Z</time>
      </trkpt>
      <trkpt lat="45.62594" lon="4.76565">
        <ele>181</ele>
        <time>2012-09-28T11:17:11.059Z</time>
      </trkpt>
      <trkpt lat="45.62597" lon="4.76573">
        <ele>181</ele>
        <time>2012-09-28T11:17:14.075Z</time>
      </trkpt>
      <trkpt lat="45.62599" lon="4.76579">
        <ele>181</ele>
        <time>2012-09-28T11:17:16.082Z</time>
      </trkpt>
      <trkpt lat="45.626" lon="4.76586">
        <ele>183</ele>
        <time>2012-09-28T11:17:19.093Z</time>
      </trkpt>
      <trkpt lat="45.62602" lon="4.76593">
        <ele>183</ele>
        <time>2012-09-28T11:17:22.082Z</time>
      </trkpt>
      <trkpt lat="45.62604" lon="4.76601">
        <ele>184</ele>
        <time>2012-09-28T11:17:25.088Z</time>
      </trkpt>
      <trkpt lat="45.62605" lon="4.76609">
        <ele>184</ele>
        <time>2012-09-28T11:17:28.091Z</time>
      </trkpt>
      <trkpt lat="45.62606" lon="4.76616">
        <ele>184</ele>
        <time>2012-09-28T11:17:31.096Z</time>
      </trkpt>
      <trkpt lat="45.62607" lon="4.76623">
        <ele>185</ele>
        <time>2012-09-28T11:17:34.087Z</time>
      </trkpt>
      <trkpt lat="45.62608" lon="4.7663">
        <ele>185</ele>
        <time>2012-09-28T11:17:37.103Z</time>
      </trkpt>
      <trkpt lat="45.62609" lon="4.76638">
        <ele>185</ele>
        <time>2012-09-28T11:17:40.091Z</time>
      </trkpt>
      <trkpt lat="45.6261" lon="4.76644">
        <ele>186</ele>
        <time>2012-09-28T11:17:43.091Z</time>
      </trkpt>
      <trkpt lat="45.6261" lon="4.76651">
        <ele>186</ele>
        <time>2012-09-28T11:17:46.091Z</time>
      </trkpt>
      <trkpt lat="45.6261" lon="4.76658">
        <ele>186</ele>
        <time>2012-09-28T11:17:49.727Z</time>
      </trkpt>
      <trkpt lat="45.62609" lon="4.76665">
        <ele>186</ele>
        <time>2012-09-28T11:17:53.099Z</time>
      </trkpt>
      <trkpt lat="45.62608" lon="4.76671">
        <ele>188</ele>
        <time>2012-09-28T11:17:56.092Z</time>
      </trkpt>
      <trkpt lat="45.62607" lon="4.7668">
        <ele>188</ele>
        <time>2012-09-28T11:18:00.246Z</time>
      </trkpt>
      <trkpt lat="45.62604" lon="4.76688">
        <ele>188</ele>
        <time>2012-09-28T11:18:04.246Z</time>
      </trkpt>
      <trkpt lat="45.62602" lon="4.76695">
        <ele>189</ele>
        <time>2012-09-28T11:18:08.246Z</time>
      </trkpt>
      <trkpt lat="45.62601" lon="4.76703">
        <ele>189</ele>
        <time>2012-09-28T11:18:12.082Z</time>
      </trkpt>
      <trkpt lat="45.62598" lon="4.76709">
        <ele>189</ele>
        <time>2012-09-28T11:18:16.082Z</time>
      </trkpt>
      <trkpt lat="45.62596" lon="4.76717">
        <ele>189</ele>
        <time>2012-09-28T11:18:20.082Z</time>
      </trkpt>
      <trkpt lat="45.62594" lon="4.76722">
        <ele>189</ele>
        <time>2012-09-28T11:18:23.082Z</time>
      </trkpt>
      <trkpt lat="45.62592" lon="4.76728">
        <ele>189</ele>
        <time>2012-09-28T11:18:26.082Z</time>
      </trkpt>
      <trkpt lat="45.62589" lon="4.76734">
        <ele>190</ele>
        <time>2012-09-28T11:18:29.082Z</time>
      </trkpt>
      <trkpt lat="45.62587" lon="4.7674">
        <ele>190</ele>
        <time>2012-09-28T11:18:32.082Z</time>
      </trkpt>
      <trkpt lat="45.62585" lon="4.76747">
        <ele>191</ele>
        <time>2012-09-28T11:18:35.082Z</time>
      </trkpt>
      <trkpt lat="45.62582" lon="4.76753">
        <ele>191</ele>
        <time>2012-09-28T11:18:38.082Z</time>
      </trkpt>
      <trkpt lat="45.6258" lon="4.7676">
        <ele>192</ele>
        <time>2012-09-28T11:18:41.082Z</time>
      </trkpt>
      <trkpt lat="45.62579" lon="4.76768">
        <ele>193</ele>
        <time>2012-09-28T11:18:44.082Z</time>
      </trkpt>
      <trkpt lat="45.62577" lon="4.76776">
        <ele>193</ele>
        <time>2012-09-28T11:18:47.082Z</time>
      </trkpt>
      <trkpt lat="45.62576" lon="4.76782">
        <ele>193</ele>
        <time>2012-09-28T11:18:49.082Z</time>
      </trkpt>
      <trkpt lat="45.62574" lon="4.7679">
        <ele>194</ele>
        <time>2012-09-28T11:18:52.082Z</time>
      </trkpt>
      <trkpt lat="45.62571" lon="4.76798">
        <ele>194</ele>
        <time>2012-09-28T11:18:55.082Z</time>
      </trkpt>
      <trkpt lat="45.6257" lon="4.76805">
        <ele>194</ele>
        <time>2012-09-28T11:18:57.082Z</time>
      </trkpt>
      <trkpt lat="45.62568" lon="4.76811">
        <ele>194</ele>
        <time>2012-09-28T11:18:59.082Z</time>
      </trkpt>
      <trkpt lat="45.62566" lon="4.76818">
        <ele>195</ele>
        <time>2012-09-28T11:19:01.082Z</time>
      </trkpt>
      <trkpt lat="45.62564" lon="4.76826">
        <ele>195</ele>
        <time>2012-09-28T11:19:03.082Z</time>
      </trkpt>
      <trkpt lat="45.62561" lon="4.76835">
        <ele>197</ele>
        <time>2012-09-28T11:19:05.657Z</time>
      </trkpt>
      <trkpt lat="45.62559" lon="4.76841">
        <ele>197</ele>
        <time>2012-09-28T11:19:07.657Z</time>
      </trkpt>
      <trkpt lat="45.62556" lon="4.76852">
        <ele>197</ele>
        <time>2012-09-28T11:19:11.064Z</time>
      </trkpt>
      <trkpt lat="45.62554" lon="4.76858">
        <ele>197</ele>
        <time>2012-09-28T11:19:12.475Z</time>
      </trkpt>
      <trkpt lat="45.62551" lon="4.76867">
        <ele>198</ele>
        <time>2012-09-28T11:19:15.092Z</time>
      </trkpt>
      <trkpt lat="45.62548" lon="4.76874">
        <ele>198</ele>
        <time>2012-09-28T11:19:17.092Z</time>
      </trkpt>
      <trkpt lat="45.62545" lon="4.7688">
        <ele>198</ele>
        <time>2012-09-28T11:19:19.091Z</time>
      </trkpt>
      <trkpt lat="45.62542" lon="4.76886">
        <ele>198</ele>
        <time>2012-09-28T11:19:21.088Z</time>
      </trkpt>
      <trkpt lat="45.62539" lon="4.76892">
        <ele>198</ele>
        <time>2012-09-28T11:19:23.091Z</time>
      </trkpt>
      <trkpt lat="45.62536" lon="4.769">
        <ele>198</ele>
        <time>2012-09-28T11:19:25.246Z</time>
      </trkpt>
      <trkpt lat="45.62533" lon="4.76906">
        <ele>198</ele>
        <time>2012-09-28T11:19:27.246Z</time>
      </trkpt>
      <trkpt lat="45.6253" lon="4.76913">
        <ele>198</ele>
        <time>2012-09-28T11:19:29.246Z</time>
      </trkpt>
      <trkpt lat="45.62528" lon="4.76919">
        <ele>200</ele>
        <time>2012-09-28T11:19:31.246Z</time>
      </trkpt>
      <trkpt lat="45.62525" lon="4.76926">
        <ele>200</ele>
        <time>2012-09-28T11:19:33.246Z</time>
      </trkpt>
      <trkpt lat="45.62522" lon="4.76932">
        <ele>200</ele>
        <time>2012-09-28T11:19:35.246Z</time>
      </trkpt>
      <trkpt lat="45.62521" lon="4.76938">
        <ele>200</ele>
        <time>2012-09-28T11:19:37.246Z</time>
      </trkpt>
      <trkpt lat="45.62518" lon="4.76945">
        <ele>200</ele>
        <time>2012-09-28T11:19:39.246Z</time>
      </trkpt>
      <trkpt lat="45.62514" lon="4.76953">
        <ele>200</ele>
        <time>2012-09-28T11:19:41.786Z</time>
      </trkpt>
      <trkpt lat="45.62511" lon="4.76961">
        <ele>200</ele>
        <time>2012-09-28T11:19:44.105Z</time>
      </trkpt>
      <trkpt lat="45.62508" lon="4.76969">
        <ele>200</ele>
        <time>2012-09-28T11:19:47.229Z</time>
      </trkpt>
      <trkpt lat="45.62507" lon="4.76978">
        <ele>200</ele>
        <time>2012-09-28T11:19:50.229Z</time>
      </trkpt>
      <trkpt lat="45.62507" lon="4.76985">
        <ele>200</ele>
        <time>2012-09-28T11:19:52.229Z</time>
      </trkpt>
      <trkpt lat="45.62508" lon="4.76993">
        <ele>200</ele>
        <time>2012-09-28T11:19:54.229Z</time>
      </trkpt>
      <trkpt lat="45.62508" lon="4.77001">
        <ele>201</ele>
        <time>2012-09-28T11:19:56.092Z</time>
      </trkpt>
      <trkpt lat="45.62508" lon="4.77008">
        <ele>201</ele>
        <time>2012-09-28T11:19:58.093Z</time>
      </trkpt>
      <trkpt lat="45.62508" lon="4.77016">
        <ele>201</ele>
        <time>2012-09-28T11:20:00.091Z</time>
      </trkpt>
      <trkpt lat="45.62507" lon="4.77023">
        <ele>202</ele>
        <time>2012-09-28T11:20:02.083Z</time>
      </trkpt>
      <trkpt lat="45.62506" lon="4.7703">
        <ele>202</ele>
        <time>2012-09-28T11:20:04.091Z</time>
      </trkpt>
      <trkpt lat="45.62506" lon="4.77038">
        <ele>202</ele>
        <time>2012-09-28T11:20:06.092Z</time>
      </trkpt>
      <trkpt lat="45.62505" lon="4.77045">
        <ele>202</ele>
        <time>2012-09-28T11:20:08.089Z</time>
      </trkpt>
      <trkpt lat="45.62504" lon="4.77055">
        <ele>203</ele>
        <time>2012-09-28T11:20:11.105Z</time>
      </trkpt>
      <trkpt lat="45.62502" lon="4.77063">
        <ele>203</ele>
        <time>2012-09-28T11:20:13.777Z</time>
      </trkpt>
      <trkpt lat="45.62498" lon="4.77068">
        <ele>202</ele>
        <time>2012-09-28T11:20:15.777Z</time>
      </trkpt>
      <trkpt lat="45.62493" lon="4.77071">
        <ele>203</ele>
        <time>2012-09-28T11:20:18.777Z</time>
      </trkpt>
      <trkpt lat="45.62489" lon="4.77074">
        <ele>203</ele>
        <time>2012-09-28T11:20:20.777Z</time>
      </trkpt>
      <trkpt lat="45.62484" lon="4.77078">
        <ele>202</ele>
        <time>2012-09-28T11:20:22.777Z</time>
      </trkpt>
      <trkpt lat="45.62478" lon="4.77083">
        <ele>202</ele>
        <time>2012-09-28T11:20:25.090Z</time>
      </trkpt>
      <trkpt lat="45.62471" lon="4.77088">
        <ele>205</ele>
        <time>2012-09-28T11:20:27.230Z</time>
      </trkpt>
      <trkpt lat="45.62463" lon="4.77092">
        <ele>205</ele>
        <time>2012-09-28T11:20:29.230Z</time>
      </trkpt>
      <trkpt lat="45.62455" lon="4.77094">
        <ele>205</ele>
        <time>2012-09-28T11:20:31.091Z</time>
      </trkpt>
      <trkpt lat="45.62448" lon="4.77094">
        <ele>204</ele>
        <time>2012-09-28T11:20:33.100Z</time>
      </trkpt>
      <trkpt lat="45.6244" lon="4.77095">
        <ele>204</ele>
        <time>2012-09-28T11:20:35.086Z</time>
      </trkpt>
      <trkpt lat="45.62431" lon="4.77096">
        <ele>203</ele>
        <time>2012-09-28T11:20:37.094Z</time>
      </trkpt>
      <trkpt lat="45.62426" lon="4.77096">
        <ele>203</ele>
        <time>2012-09-28T11:20:38.091Z</time>
      </trkpt>
      <trkpt lat="45.62422" lon="4.77096">
        <ele>203</ele>
        <time>2012-09-28T11:20:39.086Z</time>
      </trkpt>
      <trkpt lat="45.62415" lon="4.77095">
        <ele>201</ele>
        <time>2012-09-28T11:20:41.090Z</time>
      </trkpt>
      <trkpt lat="45.6241" lon="4.77095">
        <ele>202</ele>
        <time>2012-09-28T11:20:43.093Z</time>
      </trkpt>
      <trkpt lat="45.62406" lon="4.77093">
        <ele>202</ele>
        <time>2012-09-28T11:20:45.087Z</time>
      </trkpt>
      <trkpt lat="45.62399" lon="4.77094">
        <ele>202</ele>
        <time>2012-09-28T11:20:48.097Z</time>
      </trkpt>
      <trkpt lat="45.62395" lon="4.77094">
        <ele>202</ele>
        <time>2012-09-28T11:20:54.091Z</time>
      </trkpt>
      <trkpt lat="45.62391" lon="4.77097">
        <ele>202</ele>
        <time>2012-09-28T11:21:00.090Z</time>
      </trkpt>
      <trkpt lat="45.6239" lon="4.77104">
        <ele>203</ele>
        <time>2012-09-28T11:21:04.094Z</time>
      </trkpt>
      <trkpt lat="45.62389" lon="4.77111">
        <ele>203</ele>
        <time>2012-09-28T11:21:27.088Z</time>
      </trkpt>
      <trkpt lat="45.62388" lon="4.7712">
        <ele>203</ele>
        <time>2012-09-28T11:21:30.089Z</time>
      </trkpt>
      <trkpt lat="45.62387" lon="4.77127">
        <ele>204</ele>
        <time>2012-09-28T11:21:33.088Z</time>
      </trkpt>
      <trkpt lat="45.6239" lon="4.77132">
        <ele>204</ele>
        <time>2012-09-28T11:21:43.089Z</time>
      </trkpt>
      <trkpt lat="45.62392" lon="4.77138">
        <ele>204</ele>
        <time>2012-09-28T11:21:47.209Z</time>
      </trkpt>
      <trkpt lat="45.62393" lon="4.77145">
        <ele>205</ele>
        <time>2012-09-28T11:21:50.703Z</time>
      </trkpt>
      <trkpt lat="45.62393" lon="4.77152">
        <ele>205</ele>
        <time>2012-09-28T11:21:54.259Z</time>
      </trkpt>
      <trkpt lat="45.62392" lon="4.7716">
        <ele>205</ele>
        <time>2012-09-28T11:21:59.329Z</time>
      </trkpt>
      <trkpt lat="45.62395" lon="4.77167">
        <ele>211</ele>
        <time>2012-09-28T11:22:03.076Z</time>
      </trkpt>
      <trkpt lat="45.62396" lon="4.77174">
        <ele>211</ele>
        <time>2012-09-28T11:22:06.199Z</time>
      </trkpt>
      <trkpt lat="45.62397" lon="4.7718">
        <ele>211</ele>
        <time>2012-09-28T11:22:09.300Z</time>
      </trkpt>
      <trkpt lat="45.62394" lon="4.77186">
        <ele>212</ele>
        <time>2012-09-28T11:22:14.850Z</time>
      </trkpt>
      <trkpt lat="45.62392" lon="4.77194">
        <ele>213</ele>
        <time>2012-09-28T11:22:19.141Z</time>
      </trkpt>
      <trkpt lat="45.62389" lon="4.772">
        <ele>213</ele>
        <time>2012-09-28T11:22:21.745Z</time>
      </trkpt>
      <trkpt lat="45.62387" lon="4.77206">
        <ele>214</ele>
        <time>2012-09-28T11:22:23.694Z</time>
      </trkpt>
      <trkpt lat="45.62388" lon="4.77213">
        <ele>214</ele>
        <time>2012-09-28T11:22:30.695Z</time>
      </trkpt>
      <trkpt lat="45.62386" lon="4.7722">
        <ele>215</ele>
        <time>2012-09-28T11:22:35.094Z</time>
      </trkpt>
      <trkpt lat="45.62386" lon="4.77226">
        <ele>215</ele>
        <time>2012-09-28T11:22:39.088Z</time>
      </trkpt>
      <trkpt lat="45.62389" lon="4.77232">
        <ele>215</ele>
        <time>2012-09-28T11:22:44.090Z</time>
      </trkpt>
      <trkpt lat="45.6239" lon="4.77239">
        <ele>216</ele>
        <time>2012-09-28T11:22:49.090Z</time>
      </trkpt>
      <trkpt lat="45.62392" lon="4.77247">
        <ele>216</ele>
        <time>2012-09-28T11:22:53.177Z</time>
      </trkpt>
      <trkpt lat="45.62392" lon="4.77254">
        <ele>220</ele>
        <time>2012-09-28T11:22:56.093Z</time>
      </trkpt>
      <trkpt lat="45.62393" lon="4.77261">
        <ele>220</ele>
        <time>2012-09-28T11:23:01.629Z</time>
      </trkpt>
      <trkpt lat="45.62393" lon="4.77269">
        <ele>221</ele>
        <time>2012-09-28T11:23:05.754Z</time>
      </trkpt>
      <trkpt lat="45.62394" lon="4.77279">
        <ele>221</ele>
        <time>2012-09-28T11:23:11.081Z</time>
      </trkpt>
      <trkpt lat="45.62392" lon="4.77286">
        <ele>221</ele>
        <time>2012-09-28T11:23:12.468Z</time>
      </trkpt>
      <trkpt lat="45.62391" lon="4.77294">
        <ele>222</ele>
        <time>2012-09-28T11:23:15.585Z</time>
      </trkpt>
      <trkpt lat="45.62387" lon="4.77298">
        <ele>222</ele>
        <time>2012-09-28T11:23:19.242Z</time>
      </trkpt>
      <trkpt lat="45.62386" lon="4.77304">
        <ele>222</ele>
        <time>2012-09-28T11:23:22.794Z</time>
      </trkpt>
      <trkpt lat="45.62388" lon="4.7731">
        <ele>222</ele>
        <time>2012-09-28T11:23:31.092Z</time>
      </trkpt>
      <trkpt lat="45.62392" lon="4.77315">
        <ele>222</ele>
        <time>2012-09-28T11:23:35.331Z</time>
      </trkpt>
      <trkpt lat="45.62394" lon="4.77325">
        <ele>222</ele>
        <time>2012-09-28T11:23:39.331Z</time>
      </trkpt>
      <trkpt lat="45.62395" lon="4.77332">
        <ele>222</ele>
        <time>2012-09-28T11:23:42.076Z</time>
      </trkpt>
      <trkpt lat="45.62396" lon="4.7734">
        <ele>224</ele>
        <time>2012-09-28T11:23:46.093Z</time>
      </trkpt>
      <trkpt lat="45.62399" lon="4.77347">
        <ele>224</ele>
        <time>2012-09-28T11:23:50.086Z</time>
      </trkpt>
      <trkpt lat="45.62401" lon="4.77353">
        <ele>224</ele>
        <time>2012-09-28T11:23:54.092Z</time>
      </trkpt>
      <trkpt lat="45.62403" lon="4.7736">
        <ele>224</ele>
        <time>2012-09-28T11:23:59.265Z</time>
      </trkpt>
      <trkpt lat="45.62405" lon="4.7737">
        <ele>225</ele>
        <time>2012-09-28T11:24:03.088Z</time>
      </trkpt>
      <trkpt lat="45.62405" lon="4.77378">
        <ele>225</ele>
        <time>2012-09-28T11:24:06.266Z</time>
      </trkpt>
      <trkpt lat="45.62406" lon="4.77387">
        <ele>225</ele>
        <time>2012-09-28T11:24:11.070Z</time>
      </trkpt>
      <trkpt lat="45.62406" lon="4.77394">
        <ele>225</ele>
        <time>2012-09-28T11:24:14.692Z</time>
      </trkpt>
      <trkpt lat="45.62403" lon="4.77401">
        <ele>225</ele>
        <time>2012-09-28T11:24:19.131Z</time>
      </trkpt>
      <trkpt lat="45.62398" lon="4.77405">
        <ele>225</ele>
        <time>2012-09-28T11:24:24.089Z</time>
      </trkpt>
      <trkpt lat="45.62393" lon="4.77408">
        <ele>225</ele>
        <time>2012-09-28T11:24:34.094Z</time>
      </trkpt>
      <trkpt lat="45.62389" lon="4.77411">
        <ele>225</ele>
        <time>2012-09-28T11:24:46.090Z</time>
      </trkpt>
      <trkpt lat="45.62385" lon="4.77414">
        <ele>225</ele>
        <time>2012-09-28T11:24:52.091Z</time>
      </trkpt>
      <trkpt lat="45.6238" lon="4.77417">
        <ele>229</ele>
        <time>2012-09-28T11:25:11.068Z</time>
      </trkpt>
      <trkpt lat="45.62376" lon="4.77423">
        <ele>229</ele>
        <time>2012-09-28T11:25:19.200Z</time>
      </trkpt>
      <trkpt lat="45.62372" lon="4.77421">
        <ele>229</ele>
        <time>2012-09-28T11:25:28.843Z</time>
      </trkpt>
      <trkpt lat="45.62366" lon="4.7742">
        <ele>229</ele>
        <time>2012-09-28T11:25:34.796Z</time>
      </trkpt>
      <trkpt lat="45.62363" lon="4.77425">
        <ele>229</ele>
        <time>2012-09-28T11:25:43.087Z</time>
      </trkpt>
      <trkpt lat="45.62358" lon="4.77425">
        <ele>229</ele>
        <time>2012-09-28T11:25:48.197Z</time>
      </trkpt>
      <trkpt lat="45.62354" lon="4.77425">
        <ele>229</ele>
        <time>2012-09-28T11:26:03.227Z</time>
      </trkpt>
      <trkpt lat="45.62349" lon="4.77429">
        <ele>229</ele>
        <time>2012-09-28T11:26:07.227Z</time>
      </trkpt>
      <trkpt lat="45.62345" lon="4.77432">
        <ele>230</ele>
        <time>2012-09-28T11:26:11.059Z</time>
      </trkpt>
      <trkpt lat="45.6234" lon="4.77435">
        <ele>230</ele>
        <time>2012-09-28T11:26:16.397Z</time>
      </trkpt>
      <trkpt lat="45.62335" lon="4.77436">
        <ele>230</ele>
        <time>2012-09-28T11:26:20.088Z</time>
      </trkpt>
      <trkpt lat="45.6233" lon="4.77441">
        <ele>230</ele>
        <time>2012-09-28T11:26:26.157Z</time>
      </trkpt>
      <trkpt lat="45.62326" lon="4.77444">
        <ele>231</ele>
        <time>2012-09-28T11:26:30.157Z</time>
      </trkpt>
      <trkpt lat="45.62322" lon="4.77447">
        <ele>231</ele>
        <time>2012-09-28T11:26:35.157Z</time>
      </trkpt>
      <trkpt lat="45.62317" lon="4.77446">
        <ele>231</ele>
        <time>2012-09-28T11:26:40.157Z</time>
      </trkpt>
      <trkpt lat="45.62312" lon="4.77448">
        <ele>231</ele>
        <time>2012-09-28T11:26:43.777Z</time>
      </trkpt>
      <trkpt lat="45.62308" lon="4.7745">
        <ele>231</ele>
        <time>2012-09-28T11:26:46.777Z</time>
      </trkpt>
      <trkpt lat="45.62303" lon="4.77453">
        <ele>231</ele>
        <time>2012-09-28T11:26:49.777Z</time>
      </trkpt>
      <trkpt lat="45.62298" lon="4.77456">
        <ele>231</ele>
        <time>2012-09-28T11:26:52.777Z</time>
      </trkpt>
      <trkpt lat="45.62294" lon="4.77459">
        <ele>232</ele>
        <time>2012-09-28T11:26:55.777Z</time>
      </trkpt>
      <trkpt lat="45.6229" lon="4.77463">
        <ele>232</ele>
        <time>2012-09-28T11:26:58.777Z</time>
      </trkpt>
      <trkpt lat="45.62285" lon="4.77466">
        <ele>232</ele>
        <time>2012-09-28T11:27:01.777Z</time>
      </trkpt>
      <trkpt lat="45.6228" lon="4.77469">
        <ele>232</ele>
        <time>2012-09-28T11:27:04.777Z</time>
      </trkpt>
      <trkpt lat="45.62275" lon="4.77472">
        <ele>232</ele>
        <time>2012-09-28T11:27:07.777Z</time>
      </trkpt>
      <trkpt lat="45.6227" lon="4.77477">
        <ele>232</ele>
        <time>2012-09-28T11:27:11.117Z</time>
      </trkpt>
      <trkpt lat="45.62266" lon="4.7748">
        <ele>233</ele>
        <time>2012-09-28T11:27:14.117Z</time>
      </trkpt>
      <trkpt lat="45.62261" lon="4.77484">
        <ele>233</ele>
        <time>2012-09-28T11:27:17.117Z</time>
      </trkpt>
      <trkpt lat="45.62256" lon="4.77487">
        <ele>233</ele>
        <time>2012-09-28T11:27:20.117Z</time>
      </trkpt>
      <trkpt lat="45.62251" lon="4.7749">
        <ele>234</ele>
        <time>2012-09-28T11:27:23.117Z</time>
      </trkpt>
      <trkpt lat="45.62246" lon="4.77494">
        <ele>234</ele>
        <time>2012-09-28T11:27:26.117Z</time>
      </trkpt>
      <trkpt lat="45.6224" lon="4.77497">
        <ele>234</ele>
        <time>2012-09-28T11:27:29.117Z</time>
      </trkpt>
      <trkpt lat="45.62235" lon="4.77493">
        <ele>233</ele>
        <time>2012-09-28T11:27:32.117Z</time>
      </trkpt>
      <trkpt lat="45.6223" lon="4.77485">
        <ele>233</ele>
        <time>2012-09-28T11:27:34.117Z</time>
      </trkpt>
      <trkpt lat="45.62225" lon="4.77474">
        <ele>232</ele>
        <time>2012-09-28T11:27:36.117Z</time>
      </trkpt>
      <trkpt lat="45.62222" lon="4.77468">
        <ele>232</ele>
        <time>2012-09-28T11:27:37.117Z</time>
      </trkpt>
      <trkpt lat="45.62219" lon="4.77462">
        <ele>232</ele>
        <time>2012-09-28T11:27:38.117Z</time>
      </trkpt>
      <trkpt lat="45.62216" lon="4.77455">
        <ele>231</ele>
        <time>2012-09-28T11:27:39.117Z</time>
      </trkpt>
      <trkpt lat="45.62213" lon="4.77449">
        <ele>231</ele>
        <time>2012-09-28T11:27:40.117Z</time>
      </trkpt>
      <trkpt lat="45.6221" lon="4.77442">
        <ele>231</ele>
        <time>2012-09-28T11:27:41.117Z</time>
      </trkpt>
      <trkpt lat="45.62208" lon="4.77435">
        <ele>231</ele>
        <time>2012-09-28T11:27:42.117Z</time>
      </trkpt>
      <trkpt lat="45.62205" lon="4.77428">
        <ele>230</ele>
        <time>2012-09-28T11:27:43.117Z</time>
      </trkpt>
      <trkpt lat="45.62201" lon="4.77422">
        <ele>230</ele>
        <time>2012-09-28T11:27:44.117Z</time>
      </trkpt>
      <trkpt lat="45.62196" lon="4.77417">
        <ele>230</ele>
        <time>2012-09-28T11:27:45.117Z</time>
      </trkpt>
      <trkpt lat="45.62191" lon="4.77413">
        <ele>226</ele>
        <time>2012-09-28T11:27:46.117Z</time>
      </trkpt>
      <trkpt lat="45.62179" lon="4.77408">
        <ele>227</ele>
        <time>2012-09-28T11:27:48.085Z</time>
      </trkpt>
      <trkpt lat="45.62174" lon="4.77406">
        <ele>227</ele>
        <time>2012-09-28T11:27:49.092Z</time>
      </trkpt>
      <trkpt lat="45.62165" lon="4.77401">
        <ele>226</ele>
        <time>2012-09-28T11:27:50.836Z</time>
      </trkpt>
      <trkpt lat="45.62159" lon="4.77396">
        <ele>225</ele>
        <time>2012-09-28T11:27:52.236Z</time>
      </trkpt>
      <trkpt lat="45.62154" lon="4.77392">
        <ele>224</ele>
        <time>2012-09-28T11:27:53.236Z</time>
      </trkpt>
      <trkpt lat="45.62149" lon="4.77387">
        <ele>224</ele>
        <time>2012-09-28T11:27:54.236Z</time>
      </trkpt>
      <trkpt lat="45.62144" lon="4.77383">
        <ele>223</ele>
        <time>2012-09-28T11:27:55.236Z</time>
      </trkpt>
      <trkpt lat="45.62134" lon="4.77377">
        <ele>222</ele>
        <time>2012-09-28T11:27:57.084Z</time>
      </trkpt>
      <trkpt lat="45.6213" lon="4.77376">
        <ele>222</ele>
        <time>2012-09-28T11:27:58.086Z</time>
      </trkpt>
      <trkpt lat="45.62123" lon="4.77384">
        <ele>222</ele>
        <time>2012-09-28T11:28:00.216Z</time>
      </trkpt>
      <trkpt lat="45.62118" lon="4.77386">
        <ele>222</ele>
        <time>2012-09-28T11:28:01.670Z</time>
      </trkpt>
      <trkpt lat="45.62111" lon="4.77386">
        <ele>222</ele>
        <time>2012-09-28T11:28:03.796Z</time>
      </trkpt>
      <trkpt lat="45.62105" lon="4.77382">
        <ele>222</ele>
        <time>2012-09-28T11:28:04.745Z</time>
      </trkpt>
      <trkpt lat="45.621" lon="4.77379">
        <ele>221</ele>
        <time>2012-09-28T11:28:05.789Z</time>
      </trkpt>
      <trkpt lat="45.62094" lon="4.77377">
        <ele>221</ele>
        <time>2012-09-28T11:28:06.789Z</time>
      </trkpt>
      <trkpt lat="45.62088" lon="4.77376">
        <ele>221</ele>
        <time>2012-09-28T11:28:07.789Z</time>
      </trkpt>
      <trkpt lat="45.6208" lon="4.77374">
        <ele>216</ele>
        <time>2012-09-28T11:28:08.789Z</time>
      </trkpt>
      <trkpt lat="45.62063" lon="4.77369">
        <ele>215</ele>
        <time>2012-09-28T11:28:11.079Z</time>
      </trkpt>
      <trkpt lat="45.62056" lon="4.77368">
        <ele>215</ele>
        <time>2012-09-28T11:28:12.079Z</time>
      </trkpt>
      <trkpt lat="45.62051" lon="4.77366">
        <ele>214</ele>
        <time>2012-09-28T11:28:13.682Z</time>
      </trkpt>
      <trkpt lat="45.62045" lon="4.77374">
        <ele>214</ele>
        <time>2012-09-28T11:28:15.682Z</time>
      </trkpt>
      <trkpt lat="45.6204" lon="4.77381">
        <ele>214</ele>
        <time>2012-09-28T11:28:17.084Z</time>
      </trkpt>
      <trkpt lat="45.62037" lon="4.77387">
        <ele>214</ele>
        <time>2012-09-28T11:28:18.082Z</time>
      </trkpt>
      <trkpt lat="45.62032" lon="4.77394">
        <ele>214</ele>
        <time>2012-09-28T11:28:19.089Z</time>
      </trkpt>
      <trkpt lat="45.62028" lon="4.77398">
        <ele>214</ele>
        <time>2012-09-28T11:28:20.090Z</time>
      </trkpt>
      <trkpt lat="45.62025" lon="4.77402">
        <ele>214</ele>
        <time>2012-09-28T11:28:21.089Z</time>
      </trkpt>
      <trkpt lat="45.62019" lon="4.7741">
        <ele>213</ele>
        <time>2012-09-28T11:28:23.091Z</time>
      </trkpt>
      <trkpt lat="45.62013" lon="4.77415">
        <ele>213</ele>
        <time>2012-09-28T11:28:25.091Z</time>
      </trkpt>
      <trkpt lat="45.62007" lon="4.77416">
        <ele>213</ele>
        <time>2012-09-28T11:28:27.195Z</time>
      </trkpt>
      <trkpt lat="45.62003" lon="4.77407">
        <ele>213</ele>
        <time>2012-09-28T11:28:29.195Z</time>
      </trkpt>
      <trkpt lat="45.61998" lon="4.77401">
        <ele>209</ele>
        <time>2012-09-28T11:28:31.195Z</time>
      </trkpt>
      <trkpt lat="45.61994" lon="4.77401">
        <ele>209</ele>
        <time>2012-09-28T11:28:33.195Z</time>
      </trkpt>
      <trkpt lat="45.6199" lon="4.77406">
        <ele>209</ele>
        <time>2012-09-28T11:28:35.092Z</time>
      </trkpt>
      <trkpt lat="45.61986" lon="4.77411">
        <ele>209</ele>
        <time>2012-09-28T11:28:37.091Z</time>
      </trkpt>
      <trkpt lat="45.61982" lon="4.77414">
        <ele>209</ele>
        <time>2012-09-28T11:28:39.091Z</time>
      </trkpt>
      <trkpt lat="45.61978" lon="4.77417">
        <ele>211</ele>
        <time>2012-09-28T11:28:41.201Z</time>
      </trkpt>
      <trkpt lat="45.61974" lon="4.77415">
        <ele>208</ele>
        <time>2012-09-28T11:28:43.151Z</time>
      </trkpt>
      <trkpt lat="45.61969" lon="4.77406">
        <ele>207</ele>
        <time>2012-09-28T11:28:45.151Z</time>
      </trkpt>
      <trkpt lat="45.61965" lon="4.77394">
        <ele>207</ele>
        <time>2012-09-28T11:28:47.151Z</time>
      </trkpt>
      <trkpt lat="45.6196" lon="4.77387">
        <ele>206</ele>
        <time>2012-09-28T11:28:48.151Z</time>
      </trkpt>
      <trkpt lat="45.61956" lon="4.77381">
        <ele>206</ele>
        <time>2012-09-28T11:28:49.151Z</time>
      </trkpt>
      <trkpt lat="45.61951" lon="4.77375">
        <ele>205</ele>
        <time>2012-09-28T11:28:50.151Z</time>
      </trkpt>
      <trkpt lat="45.61946" lon="4.77369">
        <ele>205</ele>
        <time>2012-09-28T11:28:51.151Z</time>
      </trkpt>
      <trkpt lat="45.6194" lon="4.77363">
        <ele>205</ele>
        <time>2012-09-28T11:28:52.151Z</time>
      </trkpt>
      <trkpt lat="45.61931" lon="4.77352">
        <ele>203</ele>
        <time>2012-09-28T11:28:53.791Z</time>
      </trkpt>
      <trkpt lat="45.61926" lon="4.77347">
        <ele>203</ele>
        <time>2012-09-28T11:28:54.791Z</time>
      </trkpt>
      <trkpt lat="45.6192" lon="4.77339">
        <ele>201</ele>
        <time>2012-09-28T11:28:55.791Z</time>
      </trkpt>
      <trkpt lat="45.61915" lon="4.77332">
        <ele>199</ele>
        <time>2012-09-28T11:28:56.791Z</time>
      </trkpt>
      <trkpt lat="45.61909" lon="4.77325">
        <ele>197</ele>
        <time>2012-09-28T11:28:57.791Z</time>
      </trkpt>
      <trkpt lat="45.61903" lon="4.77318">
        <ele>195</ele>
        <time>2012-09-28T11:28:58.791Z</time>
      </trkpt>
      <trkpt lat="45.61897" lon="4.77311">
        <ele>194</ele>
        <time>2012-09-28T11:28:59.791Z</time>
      </trkpt>
      <trkpt lat="45.61887" lon="4.77302">
        <ele>192</ele>
        <time>2012-09-28T11:29:01.331Z</time>
      </trkpt>
      <trkpt lat="45.61882" lon="4.77297">
        <ele>192</ele>
        <time>2012-09-28T11:29:02.331Z</time>
      </trkpt>
      <trkpt lat="45.61879" lon="4.77291">
        <ele>191</ele>
        <time>2012-09-28T11:29:04.331Z</time>
      </trkpt>
      <trkpt lat="45.6188" lon="4.77282">
        <ele>191</ele>
        <time>2012-09-28T11:29:05.911Z</time>
      </trkpt>
      <trkpt lat="45.61888" lon="4.77279">
        <ele>191</ele>
        <time>2012-09-28T11:29:07.911Z</time>
      </trkpt>
      <trkpt lat="45.61901" lon="4.77276">
        <ele>191</ele>
        <time>2012-09-28T11:29:11.061Z</time>
      </trkpt>
      <trkpt lat="45.61906" lon="4.77275">
        <ele>191</ele>
        <time>2012-09-28T11:29:12.061Z</time>
      </trkpt>
      <trkpt lat="45.61915" lon="4.77272">
        <ele>192</ele>
        <time>2012-09-28T11:29:13.710Z</time>
      </trkpt>
      <trkpt lat="45.6192" lon="4.7727">
        <ele>196</ele>
        <time>2012-09-28T11:29:14.710Z</time>
      </trkpt>
      <trkpt lat="45.61918" lon="4.77258">
        <ele>193</ele>
        <time>2012-09-28T11:29:16.729Z</time>
      </trkpt>
      <trkpt lat="45.61908" lon="4.77251">
        <ele>191</ele>
        <time>2012-09-28T11:29:18.555Z</time>
      </trkpt>
      <trkpt lat="45.61898" lon="4.77246">
        <ele>185</ele>
        <time>2012-09-28T11:29:20.089Z</time>
      </trkpt>
      <trkpt lat="45.6189" lon="4.77245">
        <ele>184</ele>
        <time>2012-09-28T11:29:21.089Z</time>
      </trkpt>
      <trkpt lat="45.61882" lon="4.77244">
        <ele>183</ele>
        <time>2012-09-28T11:29:22.092Z</time>
      </trkpt>
      <trkpt lat="45.61873" lon="4.77244">
        <ele>182</ele>
        <time>2012-09-28T11:29:23.088Z</time>
      </trkpt>
      <trkpt lat="45.61865" lon="4.77242">
        <ele>182</ele>
        <time>2012-09-28T11:29:24.075Z</time>
      </trkpt>
      <trkpt lat="45.61858" lon="4.77242">
        <ele>182</ele>
        <time>2012-09-28T11:29:25.094Z</time>
      </trkpt>
      <trkpt lat="45.6185" lon="4.77242">
        <ele>182</ele>
        <time>2012-09-28T11:29:26.094Z</time>
      </trkpt>
      <trkpt lat="45.61842" lon="4.77241">
        <ele>182</ele>
        <time>2012-09-28T11:29:27.090Z</time>
      </trkpt>
      <trkpt lat="45.61834" lon="4.77241">
        <ele>182</ele>
        <time>2012-09-28T11:29:28.093Z</time>
      </trkpt>
      <trkpt lat="45.61824" lon="4.77242">
        <ele>180</ele>
        <time>2012-09-28T11:29:29.093Z</time>
      </trkpt>
      <trkpt lat="45.61814" lon="4.77242">
        <ele>178</ele>
        <time>2012-09-28T11:29:30.091Z</time>
      </trkpt>
      <trkpt lat="45.61803" lon="4.77243">
        <ele>177</ele>
        <time>2012-09-28T11:29:31.089Z</time>
      </trkpt>
      <trkpt lat="45.61793" lon="4.77245">
        <ele>177</ele>
        <time>2012-09-28T11:29:32.076Z</time>
      </trkpt>
      <trkpt lat="45.61782" lon="4.77246">
        <ele>176</ele>
        <time>2012-09-28T11:29:33.094Z</time>
      </trkpt>
      <trkpt lat="45.6177" lon="4.77248">
        <ele>175</ele>
        <time>2012-09-28T11:29:34.200Z</time>
      </trkpt>
      <trkpt lat="45.61759" lon="4.77249">
        <ele>175</ele>
        <time>2012-09-28T11:29:35.200Z</time>
      </trkpt>
      <trkpt lat="45.61749" lon="4.77251">
        <ele>175</ele>
        <time>2012-09-28T11:29:36.200Z</time>
      </trkpt>
      <trkpt lat="45.61738" lon="4.77253">
        <ele>176</ele>
        <time>2012-09-28T11:29:37.200Z</time>
      </trkpt>
      <trkpt lat="45.61728" lon="4.77256">
        <ele>176</ele>
        <time>2012-09-28T11:29:38.200Z</time>
      </trkpt>
      <trkpt lat="45.61719" lon="4.77258">
        <ele>176</ele>
        <time>2012-09-28T11:29:39.200Z</time>
      </trkpt>
      <trkpt lat="45.6171" lon="4.7726">
        <ele>176</ele>
        <time>2012-09-28T11:29:40.200Z</time>
      </trkpt>
      <trkpt lat="45.61696" lon="4.77263">
        <ele>176</ele>
        <time>2012-09-28T11:29:41.745Z</time>
      </trkpt>
      <trkpt lat="45.61686" lon="4.77265">
        <ele>175</ele>
        <time>2012-09-28T11:29:42.745Z</time>
      </trkpt>
      <trkpt lat="45.61675" lon="4.77267">
        <ele>175</ele>
        <time>2012-09-28T11:29:44.090Z</time>
      </trkpt>
      <trkpt lat="45.61664" lon="4.7727">
        <ele>174</ele>
        <time>2012-09-28T11:29:45.205Z</time>
      </trkpt>
      <trkpt lat="45.61656" lon="4.77272">
        <ele>174</ele>
        <time>2012-09-28T11:29:46.205Z</time>
      </trkpt>
      <trkpt lat="45.61639" lon="4.77277">
        <ele>175</ele>
        <time>2012-09-28T11:29:48.090Z</time>
      </trkpt>
      <trkpt lat="45.6163" lon="4.7728">
        <ele>175</ele>
        <time>2012-09-28T11:29:49.095Z</time>
      </trkpt>
      <trkpt lat="45.61621" lon="4.77282">
        <ele>175</ele>
        <time>2012-09-28T11:29:50.093Z</time>
      </trkpt>
      <trkpt lat="45.61613" lon="4.77284">
        <ele>175</ele>
        <time>2012-09-28T11:29:51.115Z</time>
      </trkpt>
      <trkpt lat="45.61605" lon="4.77286">
        <ele>175</ele>
        <time>2012-09-28T11:29:52.090Z</time>
      </trkpt>
      <trkpt lat="45.61596" lon="4.77288">
        <ele>175</ele>
        <time>2012-09-28T11:29:53.093Z</time>
      </trkpt>
      <trkpt lat="45.61589" lon="4.7729">
        <ele>175</ele>
        <time>2012-09-28T11:29:54.094Z</time>
      </trkpt>
      <trkpt lat="45.61581" lon="4.77291">
        <ele>173</ele>
        <time>2012-09-28T11:29:55.090Z</time>
      </trkpt>
      <trkpt lat="45.61573" lon="4.77295">
        <ele>174</ele>
        <time>2012-09-28T11:29:56.205Z</time>
      </trkpt>
      <trkpt lat="45.61565" lon="4.77298">
        <ele>174</ele>
        <time>2012-09-28T11:29:57.205Z</time>
      </trkpt>
      <trkpt lat="45.61558" lon="4.773">
        <ele>173</ele>
        <time>2012-09-28T11:29:58.205Z</time>
      </trkpt>
      <trkpt lat="45.61544" lon="4.77304">
        <ele>173</ele>
        <time>2012-09-28T11:30:00.090Z</time>
      </trkpt>
      <trkpt lat="45.61536" lon="4.77306">
        <ele>173</ele>
        <time>2012-09-28T11:30:01.090Z</time>
      </trkpt>
      <trkpt lat="45.61529" lon="4.77307">
        <ele>173</ele>
        <time>2012-09-28T11:30:02.093Z</time>
      </trkpt>
      <trkpt lat="45.61522" lon="4.77309">
        <ele>173</ele>
        <time>2012-09-28T11:30:03.091Z</time>
      </trkpt>
      <trkpt lat="45.61515" lon="4.77312">
        <ele>173</ele>
        <time>2012-09-28T11:30:04.196Z</time>
      </trkpt>
      <trkpt lat="45.61508" lon="4.77314">
        <ele>173</ele>
        <time>2012-09-28T11:30:05.196Z</time>
      </trkpt>
      <trkpt lat="45.61496" lon="4.77317">
        <ele>171</ele>
        <time>2012-09-28T11:30:07.092Z</time>
      </trkpt>
      <trkpt lat="45.6149" lon="4.77319">
        <ele>171</ele>
        <time>2012-09-28T11:30:08.204Z</time>
      </trkpt>
      <trkpt lat="45.61483" lon="4.77321">
        <ele>171</ele>
        <time>2012-09-28T11:30:09.204Z</time>
      </trkpt>
      <trkpt lat="45.61472" lon="4.77323">
        <ele>170</ele>
        <time>2012-09-28T11:30:11.110Z</time>
      </trkpt>
      <trkpt lat="45.61467" lon="4.77326">
        <ele>170</ele>
        <time>2012-09-28T11:30:12.110Z</time>
      </trkpt>
      <trkpt lat="45.61455" lon="4.77326">
        <ele>170</ele>
        <time>2012-09-28T11:30:14.091Z</time>
      </trkpt>
      <trkpt lat="45.6145" lon="4.77326">
        <ele>170</ele>
        <time>2012-09-28T11:30:15.095Z</time>
      </trkpt>
      <trkpt lat="45.61446" lon="4.77329">
        <ele>170</ele>
        <time>2012-09-28T11:30:16.090Z</time>
      </trkpt>
      <trkpt lat="45.6144" lon="4.7733">
        <ele>169</ele>
        <time>2012-09-28T11:30:17.093Z</time>
      </trkpt>
      <trkpt lat="45.61436" lon="4.77331">
        <ele>169</ele>
        <time>2012-09-28T11:30:18.090Z</time>
      </trkpt>
      <trkpt lat="45.61427" lon="4.77332">
        <ele>169</ele>
        <time>2012-09-28T11:30:20.091Z</time>
      </trkpt>
      <trkpt lat="45.61418" lon="4.77334">
        <ele>169</ele>
        <time>2012-09-28T11:30:22.096Z</time>
      </trkpt>
      <trkpt lat="45.61412" lon="4.77335">
        <ele>170</ele>
        <time>2012-09-28T11:30:23.249Z</time>
      </trkpt>
      <trkpt lat="45.61408" lon="4.77337">
        <ele>170</ele>
        <time>2012-09-28T11:30:24.249Z</time>
      </trkpt>
      <trkpt lat="45.61399" lon="4.77339">
        <ele>170</ele>
        <time>2012-09-28T11:30:26.086Z</time>
      </trkpt>
      <trkpt lat="45.61394" lon="4.77341">
        <ele>171</ele>
        <time>2012-09-28T11:30:27.093Z</time>
      </trkpt>
      <trkpt lat="45.61389" lon="4.77342">
        <ele>171</ele>
        <time>2012-09-28T11:30:28.091Z</time>
      </trkpt>
      <trkpt lat="45.61384" lon="4.77344">
        <ele>171</ele>
        <time>2012-09-28T11:30:29.206Z</time>
      </trkpt>
      <trkpt lat="45.6138" lon="4.77347">
        <ele>171</ele>
        <time>2012-09-28T11:30:30.206Z</time>
      </trkpt>
      <trkpt lat="45.61375" lon="4.77349">
        <ele>171</ele>
        <time>2012-09-28T11:30:31.206Z</time>
      </trkpt>
      <trkpt lat="45.6137" lon="4.77353">
        <ele>171</ele>
        <time>2012-09-28T11:30:32.206Z</time>
      </trkpt>
      <trkpt lat="45.61365" lon="4.77356">
        <ele>171</ele>
        <time>2012-09-28T11:30:33.206Z</time>
      </trkpt>
      <trkpt lat="45.61361" lon="4.7736">
        <ele>171</ele>
        <time>2012-09-28T11:30:34.206Z</time>
      </trkpt>
      <trkpt lat="45.61357" lon="4.77364">
        <ele>171</ele>
        <time>2012-09-28T11:30:35.206Z</time>
      </trkpt>
      <trkpt lat="45.61349" lon="4.77373">
        <ele>172</ele>
        <time>2012-09-28T11:30:37.092Z</time>
      </trkpt>
      <trkpt lat="45.61345" lon="4.77377">
        <ele>172</ele>
        <time>2012-09-28T11:30:38.097Z</time>
      </trkpt>
      <trkpt lat="45.61342" lon="4.77381">
        <ele>172</ele>
        <time>2012-09-28T11:30:39.076Z</time>
      </trkpt>
      <trkpt lat="45.61338" lon="4.77385">
        <ele>172</ele>
        <time>2012-09-28T11:30:40.088Z</time>
      </trkpt>
      <trkpt lat="45.61334" lon="4.7739">
        <ele>172</ele>
        <time>2012-09-28T11:30:41.091Z</time>
      </trkpt>
      <trkpt lat="45.61328" lon="4.77398">
        <ele>171</ele>
        <time>2012-09-28T11:30:43.091Z</time>
      </trkpt>
      <trkpt lat="45.61323" lon="4.77403">
        <ele>171</ele>
        <time>2012-09-28T11:30:44.261Z</time>
      </trkpt>
      <trkpt lat="45.6132" lon="4.77409">
        <ele>171</ele>
        <time>2012-09-28T11:30:45.261Z</time>
      </trkpt>
      <trkpt lat="45.61315" lon="4.77416">
        <ele>171</ele>
        <time>2012-09-28T11:30:46.804Z</time>
      </trkpt>
      <trkpt lat="45.61312" lon="4.77421">
        <ele>172</ele>
        <time>2012-09-28T11:30:47.804Z</time>
      </trkpt>
      <trkpt lat="45.6131" lon="4.77427">
        <ele>172</ele>
        <time>2012-09-28T11:30:48.709Z</time>
      </trkpt>
      <trkpt lat="45.61307" lon="4.77434">
        <ele>172</ele>
        <time>2012-09-28T11:30:49.734Z</time>
      </trkpt>
      <trkpt lat="45.61303" lon="4.77443">
        <ele>172</ele>
        <time>2012-09-28T11:30:51.134Z</time>
      </trkpt>
      <trkpt lat="45.613" lon="4.77453">
        <ele>172</ele>
        <time>2012-09-28T11:30:52.654Z</time>
      </trkpt>
      <trkpt lat="45.61297" lon="4.7746">
        <ele>172</ele>
        <time>2012-09-28T11:30:53.654Z</time>
      </trkpt>
      <trkpt lat="45.61294" lon="4.77467">
        <ele>172</ele>
        <time>2012-09-28T11:30:54.580Z</time>
      </trkpt>
      <trkpt lat="45.6129" lon="4.77476">
        <ele>172</ele>
        <time>2012-09-28T11:30:56.081Z</time>
      </trkpt>
      <trkpt lat="45.61288" lon="4.77482">
        <ele>172</ele>
        <time>2012-09-28T11:30:57.082Z</time>
      </trkpt>
      <trkpt lat="45.61285" lon="4.7749">
        <ele>172</ele>
        <time>2012-09-28T11:30:58.194Z</time>
      </trkpt>
      <trkpt lat="45.61282" lon="4.77497">
        <ele>171</ele>
        <time>2012-09-28T11:30:59.194Z</time>
      </trkpt>
      <trkpt lat="45.61276" lon="4.77511">
        <ele>173</ele>
        <time>2012-09-28T11:31:01.090Z</time>
      </trkpt>
      <trkpt lat="45.61274" lon="4.77517">
        <ele>173</ele>
        <time>2012-09-28T11:31:02.097Z</time>
      </trkpt>
      <trkpt lat="45.61271" lon="4.77524">
        <ele>173</ele>
        <time>2012-09-28T11:31:03.091Z</time>
      </trkpt>
      <trkpt lat="45.61268" lon="4.77531">
        <ele>173</ele>
        <time>2012-09-28T11:31:04.093Z</time>
      </trkpt>
      <trkpt lat="45.61266" lon="4.77539">
        <ele>173</ele>
        <time>2012-09-28T11:31:05.093Z</time>
      </trkpt>
      <trkpt lat="45.61263" lon="4.77545">
        <ele>173</ele>
        <time>2012-09-28T11:31:06.089Z</time>
      </trkpt>
      <trkpt lat="45.6126" lon="4.77552">
        <ele>173</ele>
        <time>2012-09-28T11:31:07.093Z</time>
      </trkpt>
      <trkpt lat="45.61257" lon="4.77559">
        <ele>173</ele>
        <time>2012-09-28T11:31:08.090Z</time>
      </trkpt>
      <trkpt lat="45.61254" lon="4.77565">
        <ele>173</ele>
        <time>2012-09-28T11:31:09.093Z</time>
      </trkpt>
      <trkpt lat="45.61249" lon="4.77577">
        <ele>171</ele>
        <time>2012-09-28T11:31:11.075Z</time>
      </trkpt>
      <trkpt lat="45.61246" lon="4.77584">
        <ele>172</ele>
        <time>2012-09-28T11:31:12.076Z</time>
      </trkpt>
      <trkpt lat="45.6124" lon="4.77594">
        <ele>172</ele>
        <time>2012-09-28T11:31:14.083Z</time>
      </trkpt>
      <trkpt lat="45.61236" lon="4.77598">
        <ele>172</ele>
        <time>2012-09-28T11:31:15.084Z</time>
      </trkpt>
      <trkpt lat="45.61233" lon="4.77604">
        <ele>172</ele>
        <time>2012-09-28T11:31:16.083Z</time>
      </trkpt>
      <trkpt lat="45.61226" lon="4.77614">
        <ele>172</ele>
        <time>2012-09-28T11:31:18.216Z</time>
      </trkpt>
      <trkpt lat="45.61222" lon="4.7762">
        <ele>172</ele>
        <time>2012-09-28T11:31:19.216Z</time>
      </trkpt>
      <trkpt lat="45.61216" lon="4.7763">
        <ele>172</ele>
        <time>2012-09-28T11:31:21.083Z</time>
      </trkpt>
      <trkpt lat="45.61213" lon="4.77634">
        <ele>172</ele>
        <time>2012-09-28T11:31:22.084Z</time>
      </trkpt>
      <trkpt lat="45.61206" lon="4.77644">
        <ele>172</ele>
        <time>2012-09-28T11:31:24.084Z</time>
      </trkpt>
      <trkpt lat="45.61203" lon="4.77648">
        <ele>172</ele>
        <time>2012-09-28T11:31:25.088Z</time>
      </trkpt>
      <trkpt lat="45.61199" lon="4.77653">
        <ele>172</ele>
        <time>2012-09-28T11:31:26.080Z</time>
      </trkpt>
      <trkpt lat="45.61195" lon="4.77658">
        <ele>172</ele>
        <time>2012-09-28T11:31:27.087Z</time>
      </trkpt>
      <trkpt lat="45.61191" lon="4.77662">
        <ele>172</ele>
        <time>2012-09-28T11:31:28.090Z</time>
      </trkpt>
      <trkpt lat="45.61187" lon="4.77667">
        <ele>174</ele>
        <time>2012-09-28T11:31:29.092Z</time>
      </trkpt>
      <trkpt lat="45.6118" lon="4.77677">
        <ele>174</ele>
        <time>2012-09-28T11:31:31.091Z</time>
      </trkpt>
      <trkpt lat="45.61176" lon="4.77682">
        <ele>174</ele>
        <time>2012-09-28T11:31:32.088Z</time>
      </trkpt>
      <trkpt lat="45.61172" lon="4.77687">
        <ele>174</ele>
        <time>2012-09-28T11:31:33.092Z</time>
      </trkpt>
      <trkpt lat="45.61169" lon="4.77692">
        <ele>175</ele>
        <time>2012-09-28T11:31:34.090Z</time>
      </trkpt>
      <trkpt lat="45.61165" lon="4.77698">
        <ele>172</ele>
        <time>2012-09-28T11:31:35.091Z</time>
      </trkpt>
      <trkpt lat="45.61161" lon="4.77704">
        <ele>172</ele>
        <time>2012-09-28T11:31:36.092Z</time>
      </trkpt>
      <trkpt lat="45.61158" lon="4.77709">
        <ele>173</ele>
        <time>2012-09-28T11:31:37.091Z</time>
      </trkpt>
      <trkpt lat="45.61154" lon="4.77714">
        <ele>173</ele>
        <time>2012-09-28T11:31:38.092Z</time>
      </trkpt>
      <trkpt lat="45.61151" lon="4.77719">
        <ele>173</ele>
        <time>2012-09-28T11:31:39.090Z</time>
      </trkpt>
      <trkpt lat="45.61148" lon="4.77724">
        <ele>173</ele>
        <time>2012-09-28T11:31:40.087Z</time>
      </trkpt>
      <trkpt lat="45.61145" lon="4.77729">
        <ele>174</ele>
        <time>2012-09-28T11:31:41.094Z</time>
      </trkpt>
      <trkpt lat="45.61142" lon="4.77734">
        <ele>174</ele>
        <time>2012-09-28T11:31:42.076Z</time>
      </trkpt>
      <trkpt lat="45.61138" lon="4.7774">
        <ele>174</ele>
        <time>2012-09-28T11:31:43.090Z</time>
      </trkpt>
      <trkpt lat="45.61132" lon="4.7775">
        <ele>173</ele>
        <time>2012-09-28T11:31:45.089Z</time>
      </trkpt>
      <trkpt lat="45.61129" lon="4.77755">
        <ele>177</ele>
        <time>2012-09-28T11:31:46.087Z</time>
      </trkpt>
      <trkpt lat="45.61126" lon="4.7776">
        <ele>177</ele>
        <time>2012-09-28T11:31:47.078Z</time>
      </trkpt>
      <trkpt lat="45.61122" lon="4.77766">
        <ele>177</ele>
        <time>2012-09-28T11:31:48.090Z</time>
      </trkpt>
      <trkpt lat="45.61119" lon="4.77771">
        <ele>177</ele>
        <time>2012-09-28T11:31:49.091Z</time>
      </trkpt>
      <trkpt lat="45.61115" lon="4.77777">
        <ele>177</ele>
        <time>2012-09-28T11:31:50.089Z</time>
      </trkpt>
      <trkpt lat="45.61111" lon="4.77782">
        <ele>177</ele>
        <time>2012-09-28T11:31:51.092Z</time>
      </trkpt>
      <trkpt lat="45.61105" lon="4.77791">
        <ele>178</ele>
        <time>2012-09-28T11:31:53.091Z</time>
      </trkpt>
      <trkpt lat="45.61098" lon="4.77801">
        <ele>178</ele>
        <time>2012-09-28T11:31:55.213Z</time>
      </trkpt>
      <trkpt lat="45.61091" lon="4.7781">
        <ele>178</ele>
        <time>2012-09-28T11:31:57.094Z</time>
      </trkpt>
      <trkpt lat="45.61084" lon="4.77817">
        <ele>178</ele>
        <time>2012-09-28T11:31:59.082Z</time>
      </trkpt>
      <trkpt lat="45.61079" lon="4.7782">
        <ele>175</ele>
        <time>2012-09-28T11:32:00.090Z</time>
      </trkpt>
      <trkpt lat="45.61072" lon="4.77828">
        <ele>175</ele>
        <time>2012-09-28T11:32:02.090Z</time>
      </trkpt>
      <trkpt lat="45.61065" lon="4.77835">
        <ele>178</ele>
        <time>2012-09-28T11:32:04.093Z</time>
      </trkpt>
      <trkpt lat="45.61059" lon="4.77842">
        <ele>178</ele>
        <time>2012-09-28T11:32:06.093Z</time>
      </trkpt>
      <trkpt lat="45.61053" lon="4.77849">
        <ele>178</ele>
        <time>2012-09-28T11:32:08.092Z</time>
      </trkpt>
      <trkpt lat="45.61044" lon="4.7786">
        <ele>178</ele>
        <time>2012-09-28T11:32:11.049Z</time>
      </trkpt>
      <trkpt lat="45.6104" lon="4.77865">
        <ele>178</ele>
        <time>2012-09-28T11:32:12.049Z</time>
      </trkpt>
      <trkpt lat="45.61035" lon="4.77871">
        <ele>178</ele>
        <time>2012-09-28T11:32:14.098Z</time>
      </trkpt>
      <trkpt lat="45.61029" lon="4.77878">
        <ele>178</ele>
        <time>2012-09-28T11:32:16.091Z</time>
      </trkpt>
      <trkpt lat="45.61024" lon="4.77886">
        <ele>178</ele>
        <time>2012-09-28T11:32:18.093Z</time>
      </trkpt>
      <trkpt lat="45.61019" lon="4.77894">
        <ele>178</ele>
        <time>2012-09-28T11:32:20.085Z</time>
      </trkpt>
      <trkpt lat="45.61014" lon="4.77902">
        <ele>178</ele>
        <time>2012-09-28T11:32:22.092Z</time>
      </trkpt>
      <trkpt lat="45.61011" lon="4.7791">
        <ele>178</ele>
        <time>2012-09-28T11:32:24.089Z</time>
      </trkpt>
      <trkpt lat="45.61009" lon="4.77918">
        <ele>180</ele>
        <time>2012-09-28T11:32:26.091Z</time>
      </trkpt>
      <trkpt lat="45.61007" lon="4.77928">
        <ele>180</ele>
        <time>2012-09-28T11:32:29.089Z</time>
      </trkpt>
      <trkpt lat="45.61007" lon="4.77936">
        <ele>181</ele>
        <time>2012-09-28T11:32:31.109Z</time>
      </trkpt>
      <trkpt lat="45.61006" lon="4.77943">
        <ele>182</ele>
        <time>2012-09-28T11:32:33.079Z</time>
      </trkpt>
      <trkpt lat="45.61006" lon="4.77951">
        <ele>182</ele>
        <time>2012-09-28T11:32:35.251Z</time>
      </trkpt>
      <trkpt lat="45.61006" lon="4.77958">
        <ele>183</ele>
        <time>2012-09-28T11:32:37.251Z</time>
      </trkpt>
      <trkpt lat="45.61007" lon="4.77964">
        <ele>183</ele>
        <time>2012-09-28T11:32:39.251Z</time>
      </trkpt>
      <trkpt lat="45.61008" lon="4.7797">
        <ele>183</ele>
        <time>2012-09-28T11:32:41.079Z</time>
      </trkpt>
      <trkpt lat="45.61008" lon="4.77977">
        <ele>183</ele>
        <time>2012-09-28T11:32:43.080Z</time>
      </trkpt>
      <trkpt lat="45.6101" lon="4.77985">
        <ele>183</ele>
        <time>2012-09-28T11:32:45.274Z</time>
      </trkpt>
      <trkpt lat="45.61011" lon="4.77994">
        <ele>183</ele>
        <time>2012-09-28T11:32:48.091Z</time>
      </trkpt>
      <trkpt lat="45.61012" lon="4.78001">
        <ele>185</ele>
        <time>2012-09-28T11:32:50.088Z</time>
      </trkpt>
      <trkpt lat="45.61013" lon="4.78008">
        <ele>185</ele>
        <time>2012-09-28T11:32:52.086Z</time>
      </trkpt>
      <trkpt lat="45.61014" lon="4.78015">
        <ele>186</ele>
        <time>2012-09-28T11:32:54.088Z</time>
      </trkpt>
      <trkpt lat="45.61015" lon="4.78022">
        <ele>186</ele>
        <time>2012-09-28T11:32:56.092Z</time>
      </trkpt>
      <trkpt lat="45.61016" lon="4.78031">
        <ele>187</ele>
        <time>2012-09-28T11:32:59.086Z</time>
      </trkpt>
      <trkpt lat="45.61017" lon="4.7804">
        <ele>187</ele>
        <time>2012-09-28T11:33:02.103Z</time>
      </trkpt>
      <trkpt lat="45.61017" lon="4.78047">
        <ele>188</ele>
        <time>2012-09-28T11:33:04.091Z</time>
      </trkpt>
      <trkpt lat="45.61018" lon="4.78053">
        <ele>188</ele>
        <time>2012-09-28T11:33:06.079Z</time>
      </trkpt>
      <trkpt lat="45.61018" lon="4.78061">
        <ele>188</ele>
        <time>2012-09-28T11:33:08.091Z</time>
      </trkpt>
      <trkpt lat="45.61019" lon="4.78071">
        <ele>188</ele>
        <time>2012-09-28T11:33:11.087Z</time>
      </trkpt>
      <trkpt lat="45.6102" lon="4.78082">
        <ele>188</ele>
        <time>2012-09-28T11:33:14.077Z</time>
      </trkpt>
      <trkpt lat="45.6102" lon="4.7809">
        <ele>190</ele>
        <time>2012-09-28T11:33:16.092Z</time>
      </trkpt>
      <trkpt lat="45.6102" lon="4.78096">
        <ele>191</ele>
        <time>2012-09-28T11:33:18.098Z</time>
      </trkpt>
      <trkpt lat="45.61019" lon="4.78106">
        <ele>191</ele>
        <time>2012-09-28T11:33:21.092Z</time>
      </trkpt>
      <trkpt lat="45.61018" lon="4.78112">
        <ele>191</ele>
        <time>2012-09-28T11:33:23.077Z</time>
      </trkpt>
      <trkpt lat="45.61017" lon="4.78119">
        <ele>191</ele>
        <time>2012-09-28T11:33:25.093Z</time>
      </trkpt>
      <trkpt lat="45.61016" lon="4.78126">
        <ele>192</ele>
        <time>2012-09-28T11:33:27.085Z</time>
      </trkpt>
      <trkpt lat="45.61015" lon="4.78132">
        <ele>192</ele>
        <time>2012-09-28T11:33:29.090Z</time>
      </trkpt>
      <trkpt lat="45.61013" lon="4.78141">
        <ele>192</ele>
        <time>2012-09-28T11:33:32.093Z</time>
      </trkpt>
      <trkpt lat="45.61012" lon="4.78148">
        <ele>192</ele>
        <time>2012-09-28T11:33:34.098Z</time>
      </trkpt>
      <trkpt lat="45.6101" lon="4.78154">
        <ele>192</ele>
        <time>2012-09-28T11:33:36.092Z</time>
      </trkpt>
      <trkpt lat="45.61008" lon="4.78161">
        <ele>192</ele>
        <time>2012-09-28T11:33:38.094Z</time>
      </trkpt>
      <trkpt lat="45.61006" lon="4.78168">
        <ele>193</ele>
        <time>2012-09-28T11:33:40.094Z</time>
      </trkpt>
      <trkpt lat="45.61004" lon="4.78175">
        <ele>193</ele>
        <time>2012-09-28T11:33:42.083Z</time>
      </trkpt>
      <trkpt lat="45.61001" lon="4.78184">
        <ele>193</ele>
        <time>2012-09-28T11:33:44.091Z</time>
      </trkpt>
      <trkpt lat="45.60998" lon="4.78194">
        <ele>192</ele>
        <time>2012-09-28T11:33:46.094Z</time>
      </trkpt>
      <trkpt lat="45.60996" lon="4.78205">
        <ele>192</ele>
        <time>2012-09-28T11:33:48.093Z</time>
      </trkpt>
      <trkpt lat="45.60994" lon="4.78215">
        <ele>192</ele>
        <time>2012-09-28T11:33:50.091Z</time>
      </trkpt>
      <trkpt lat="45.60993" lon="4.78226">
        <ele>192</ele>
        <time>2012-09-28T11:33:52.094Z</time>
      </trkpt>
      <trkpt lat="45.60991" lon="4.78236">
        <ele>192</ele>
        <time>2012-09-28T11:33:54.090Z</time>
      </trkpt>
      <trkpt lat="45.6099" lon="4.78247">
        <ele>192</ele>
        <time>2012-09-28T11:33:56.092Z</time>
      </trkpt>
      <trkpt lat="45.6099" lon="4.78258">
        <ele>192</ele>
        <time>2012-09-28T11:33:58.089Z</time>
      </trkpt>
      <trkpt lat="45.6099" lon="4.7827">
        <ele>192</ele>
        <time>2012-09-28T11:34:00.091Z</time>
      </trkpt>
      <trkpt lat="45.60991" lon="4.78281">
        <ele>192</ele>
        <time>2012-09-28T11:34:02.092Z</time>
      </trkpt>
      <trkpt lat="45.60991" lon="4.78293">
        <ele>192</ele>
        <time>2012-09-28T11:34:04.094Z</time>
      </trkpt>
      <trkpt lat="45.60991" lon="4.78305">
        <ele>192</ele>
        <time>2012-09-28T11:34:06.095Z</time>
      </trkpt>
      <trkpt lat="45.60992" lon="4.78312">
        <ele>192</ele>
        <time>2012-09-28T11:34:07.082Z</time>
      </trkpt>
      <trkpt lat="45.60992" lon="4.78318">
        <ele>192</ele>
        <time>2012-09-28T11:34:08.091Z</time>
      </trkpt>
      <trkpt lat="45.60992" lon="4.78325">
        <ele>193</ele>
        <time>2012-09-28T11:34:09.093Z</time>
      </trkpt>
      <trkpt lat="45.60993" lon="4.78338">
        <ele>193</ele>
        <time>2012-09-28T11:34:11.102Z</time>
      </trkpt>
      <trkpt lat="45.60993" lon="4.78346">
        <ele>193</ele>
        <time>2012-09-28T11:34:12.102Z</time>
      </trkpt>
      <trkpt lat="45.60993" lon="4.78357">
        <ele>193</ele>
        <time>2012-09-28T11:34:14.091Z</time>
      </trkpt>
      <trkpt lat="45.60993" lon="4.78365">
        <ele>193</ele>
        <time>2012-09-28T11:34:15.092Z</time>
      </trkpt>
      <trkpt lat="45.60993" lon="4.78372">
        <ele>193</ele>
        <time>2012-09-28T11:34:16.208Z</time>
      </trkpt>
      <trkpt lat="45.60992" lon="4.78378">
        <ele>193</ele>
        <time>2012-09-28T11:34:17.208Z</time>
      </trkpt>
      <trkpt lat="45.60991" lon="4.78388">
        <ele>193</ele>
        <time>2012-09-28T11:34:18.786Z</time>
      </trkpt>
      <trkpt lat="45.6099" lon="4.78395">
        <ele>193</ele>
        <time>2012-09-28T11:34:19.786Z</time>
      </trkpt>
      <trkpt lat="45.60989" lon="4.78407">
        <ele>193</ele>
        <time>2012-09-28T11:34:21.786Z</time>
      </trkpt>
      <trkpt lat="45.60987" lon="4.78421">
        <ele>193</ele>
        <time>2012-09-28T11:34:24.093Z</time>
      </trkpt>
      <trkpt lat="45.60987" lon="4.78428">
        <ele>193</ele>
        <time>2012-09-28T11:34:25.092Z</time>
      </trkpt>
      <trkpt lat="45.60986" lon="4.78441">
        <ele>193</ele>
        <time>2012-09-28T11:34:27.091Z</time>
      </trkpt>
      <trkpt lat="45.60985" lon="4.78448">
        <ele>193</ele>
        <time>2012-09-28T11:34:28.093Z</time>
      </trkpt>
      <trkpt lat="45.60984" lon="4.78456">
        <ele>192</ele>
        <time>2012-09-28T11:34:29.092Z</time>
      </trkpt>
      <trkpt lat="45.60983" lon="4.78462">
        <ele>192</ele>
        <time>2012-09-28T11:34:30.088Z</time>
      </trkpt>
      <trkpt lat="45.60981" lon="4.78468">
        <ele>192</ele>
        <time>2012-09-28T11:34:31.094Z</time>
      </trkpt>
      <trkpt lat="45.6098" lon="4.78475">
        <ele>192</ele>
        <time>2012-09-28T11:34:32.091Z</time>
      </trkpt>
      <trkpt lat="45.60979" lon="4.78482">
        <ele>192</ele>
        <time>2012-09-28T11:34:33.091Z</time>
      </trkpt>
      <trkpt lat="45.60978" lon="4.78488">
        <ele>192</ele>
        <time>2012-09-28T11:34:34.080Z</time>
      </trkpt>
      <trkpt lat="45.60977" lon="4.78495">
        <ele>192</ele>
        <time>2012-09-28T11:34:35.087Z</time>
      </trkpt>
      <trkpt lat="45.60976" lon="4.78502">
        <ele>192</ele>
        <time>2012-09-28T11:34:36.091Z</time>
      </trkpt>
      <trkpt lat="45.60975" lon="4.78509">
        <ele>192</ele>
        <time>2012-09-28T11:34:37.267Z</time>
      </trkpt>
      <trkpt lat="45.60974" lon="4.78517">
        <ele>192</ele>
        <time>2012-09-28T11:34:38.267Z</time>
      </trkpt>
      <trkpt lat="45.60973" lon="4.78527">
        <ele>192</ele>
        <time>2012-09-28T11:34:39.803Z</time>
      </trkpt>
      <trkpt lat="45.60973" lon="4.78535">
        <ele>192</ele>
        <time>2012-09-28T11:34:40.803Z</time>
      </trkpt>
      <trkpt lat="45.60972" lon="4.78543">
        <ele>192</ele>
        <time>2012-09-28T11:34:41.712Z</time>
      </trkpt>
      <trkpt lat="45.6097" lon="4.78556">
        <ele>193</ele>
        <time>2012-09-28T11:34:43.786Z</time>
      </trkpt>
      <trkpt lat="45.60969" lon="4.78569">
        <ele>193</ele>
        <time>2012-09-28T11:34:45.786Z</time>
      </trkpt>
      <trkpt lat="45.60968" lon="4.78576">
        <ele>193</ele>
        <time>2012-09-28T11:34:46.786Z</time>
      </trkpt>
      <trkpt lat="45.60967" lon="4.78585">
        <ele>193</ele>
        <time>2012-09-28T11:34:48.087Z</time>
      </trkpt>
      <trkpt lat="45.60967" lon="4.78592">
        <ele>193</ele>
        <time>2012-09-28T11:34:49.077Z</time>
      </trkpt>
      <trkpt lat="45.60966" lon="4.78599">
        <ele>193</ele>
        <time>2012-09-28T11:34:50.093Z</time>
      </trkpt>
      <trkpt lat="45.60965" lon="4.78606">
        <ele>193</ele>
        <time>2012-09-28T11:34:51.092Z</time>
      </trkpt>
      <trkpt lat="45.60964" lon="4.78614">
        <ele>193</ele>
        <time>2012-09-28T11:34:52.093Z</time>
      </trkpt>
      <trkpt lat="45.60963" lon="4.7862">
        <ele>193</ele>
        <time>2012-09-28T11:34:53.090Z</time>
      </trkpt>
      <trkpt lat="45.60962" lon="4.78627">
        <ele>193</ele>
        <time>2012-09-28T11:34:54.100Z</time>
      </trkpt>
      <trkpt lat="45.60961" lon="4.78634">
        <ele>193</ele>
        <time>2012-09-28T11:34:55.077Z</time>
      </trkpt>
      <trkpt lat="45.6096" lon="4.7864">
        <ele>193</ele>
        <time>2012-09-28T11:34:56.094Z</time>
      </trkpt>
      <trkpt lat="45.60958" lon="4.78653">
        <ele>193</ele>
        <time>2012-09-28T11:34:58.093Z</time>
      </trkpt>
      <trkpt lat="45.60957" lon="4.7866">
        <ele>193</ele>
        <time>2012-09-28T11:34:59.210Z</time>
      </trkpt>
      <trkpt lat="45.60956" lon="4.78667">
        <ele>193</ele>
        <time>2012-09-28T11:35:00.210Z</time>
      </trkpt>
      <trkpt lat="45.6095" lon="4.78676">
        <ele>193</ele>
        <time>2012-09-28T11:35:02.182Z</time>
      </trkpt>
      <trkpt lat="45.60945" lon="4.78679">
        <ele>193</ele>
        <time>2012-09-28T11:35:03.182Z</time>
      </trkpt>
      <trkpt lat="45.6094" lon="4.78676">
        <ele>193</ele>
        <time>2012-09-28T11:35:04.182Z</time>
      </trkpt>
      <trkpt lat="45.6093" lon="4.7867">
        <ele>192</ele>
        <time>2012-09-28T11:35:06.090Z</time>
      </trkpt>
      <trkpt lat="45.60925" lon="4.78669">
        <ele>192</ele>
        <time>2012-09-28T11:35:07.095Z</time>
      </trkpt>
      <trkpt lat="45.60919" lon="4.78668">
        <ele>192</ele>
        <time>2012-09-28T11:35:08.090Z</time>
      </trkpt>
      <trkpt lat="45.60913" lon="4.78666">
        <ele>192</ele>
        <time>2012-09-28T11:35:09.282Z</time>
      </trkpt>
      <trkpt lat="45.60903" lon="4.78663">
        <ele>192</ele>
        <time>2012-09-28T11:35:11.062Z</time>
      </trkpt>
      <trkpt lat="45.60897" lon="4.78662">
        <ele>192</ele>
        <time>2012-09-28T11:35:12.062Z</time>
      </trkpt>
      <trkpt lat="45.6089" lon="4.78662">
        <ele>192</ele>
        <time>2012-09-28T11:35:13.322Z</time>
      </trkpt>
      <trkpt lat="45.60883" lon="4.78662">
        <ele>191</ele>
        <time>2012-09-28T11:35:14.722Z</time>
      </trkpt>
      <trkpt lat="45.60869" lon="4.78654">
        <ele>191</ele>
        <time>2012-09-28T11:35:17.091Z</time>
      </trkpt>
      <trkpt lat="45.60864" lon="4.78653">
        <ele>191</ele>
        <time>2012-09-28T11:35:18.093Z</time>
      </trkpt>
      <trkpt lat="45.60858" lon="4.7865">
        <ele>191</ele>
        <time>2012-09-28T11:35:19.090Z</time>
      </trkpt>
      <trkpt lat="45.60853" lon="4.78648">
        <ele>191</ele>
        <time>2012-09-28T11:35:20.093Z</time>
      </trkpt>
      <trkpt lat="45.60847" lon="4.78645">
        <ele>191</ele>
        <time>2012-09-28T11:35:21.201Z</time>
      </trkpt>
      <trkpt lat="45.60841" lon="4.78644">
        <ele>191</ele>
        <time>2012-09-28T11:35:22.201Z</time>
      </trkpt>
      <trkpt lat="45.60831" lon="4.78643">
        <ele>190</ele>
        <time>2012-09-28T11:35:24.091Z</time>
      </trkpt>
      <trkpt lat="45.60824" lon="4.78643">
        <ele>190</ele>
        <time>2012-09-28T11:35:25.095Z</time>
      </trkpt>
      <trkpt lat="45.60811" lon="4.78639">
        <ele>190</ele>
        <time>2012-09-28T11:35:27.207Z</time>
      </trkpt>
      <trkpt lat="45.60805" lon="4.78644">
        <ele>190</ele>
        <time>2012-09-28T11:35:28.207Z</time>
      </trkpt>
      <trkpt lat="45.60797" lon="4.78652">
        <ele>190</ele>
        <time>2012-09-28T11:35:30.093Z</time>
      </trkpt>
      <trkpt lat="45.60792" lon="4.78658">
        <ele>190</ele>
        <time>2012-09-28T11:35:31.091Z</time>
      </trkpt>
      <trkpt lat="45.60788" lon="4.78665">
        <ele>189</ele>
        <time>2012-09-28T11:35:32.091Z</time>
      </trkpt>
      <trkpt lat="45.60784" lon="4.78671">
        <ele>188</ele>
        <time>2012-09-28T11:35:33.093Z</time>
      </trkpt>
      <trkpt lat="45.6078" lon="4.78678">
        <ele>188</ele>
        <time>2012-09-28T11:35:34.092Z</time>
      </trkpt>
      <trkpt lat="45.60776" lon="4.78684">
        <ele>188</ele>
        <time>2012-09-28T11:35:35.093Z</time>
      </trkpt>
      <trkpt lat="45.60773" lon="4.7869">
        <ele>188</ele>
        <time>2012-09-28T11:35:36.088Z</time>
      </trkpt>
      <trkpt lat="45.60768" lon="4.78695">
        <ele>188</ele>
        <time>2012-09-28T11:35:37.086Z</time>
      </trkpt>
      <trkpt lat="45.60763" lon="4.78702">
        <ele>188</ele>
        <time>2012-09-28T11:35:38.087Z</time>
      </trkpt>
      <trkpt lat="45.6076" lon="4.78708">
        <ele>188</ele>
        <time>2012-09-28T11:35:39.096Z</time>
      </trkpt>
      <trkpt lat="45.60755" lon="4.78714">
        <ele>188</ele>
        <time>2012-09-28T11:35:40.093Z</time>
      </trkpt>
      <trkpt lat="45.60752" lon="4.7872">
        <ele>188</ele>
        <time>2012-09-28T11:35:41.093Z</time>
      </trkpt>
      <trkpt lat="45.60747" lon="4.78726">
        <ele>186</ele>
        <time>2012-09-28T11:35:42.086Z</time>
      </trkpt>
      <trkpt lat="45.60743" lon="4.78734">
        <ele>186</ele>
        <time>2012-09-28T11:35:43.092Z</time>
      </trkpt>
      <trkpt lat="45.6074" lon="4.78741">
        <ele>186</ele>
        <time>2012-09-28T11:35:44.093Z</time>
      </trkpt>
      <trkpt lat="45.60736" lon="4.78748">
        <ele>186</ele>
        <time>2012-09-28T11:35:45.244Z</time>
      </trkpt>
      <trkpt lat="45.60732" lon="4.78754">
        <ele>185</ele>
        <time>2012-09-28T11:35:46.244Z</time>
      </trkpt>
      <trkpt lat="45.60724" lon="4.78755">
        <ele>185</ele>
        <time>2012-09-28T11:35:47.384Z</time>
      </trkpt>
      <trkpt lat="45.60716" lon="4.78754">
        <ele>184</ele>
        <time>2012-09-28T11:35:48.784Z</time>
      </trkpt>
      <trkpt lat="45.60711" lon="4.78749">
        <ele>186</ele>
        <time>2012-09-28T11:35:49.784Z</time>
      </trkpt>
      <trkpt lat="45.60705" lon="4.78742">
        <ele>185</ele>
        <time>2012-09-28T11:35:50.784Z</time>
      </trkpt>
      <trkpt lat="45.607" lon="4.78739">
        <ele>185</ele>
        <time>2012-09-28T11:35:51.784Z</time>
      </trkpt>
      <trkpt lat="45.60694" lon="4.78742">
        <ele>185</ele>
        <time>2012-09-28T11:35:52.784Z</time>
      </trkpt>
      <trkpt lat="45.6069" lon="4.78749">
        <ele>185</ele>
        <time>2012-09-28T11:35:53.784Z</time>
      </trkpt>
      <trkpt lat="45.60685" lon="4.78757">
        <ele>184</ele>
        <time>2012-09-28T11:35:54.784Z</time>
      </trkpt>
      <trkpt lat="45.60678" lon="4.78766">
        <ele>184</ele>
        <time>2012-09-28T11:35:56.093Z</time>
      </trkpt>
      <trkpt lat="45.60673" lon="4.78772">
        <ele>184</ele>
        <time>2012-09-28T11:35:57.089Z</time>
      </trkpt>
      <trkpt lat="45.6067" lon="4.78778">
        <ele>183</ele>
        <time>2012-09-28T11:35:57.818Z</time>
      </trkpt>
      <trkpt lat="45.60664" lon="4.78787">
        <ele>177</ele>
        <time>2012-09-28T11:35:59.218Z</time>
      </trkpt>
      <trkpt lat="45.60661" lon="4.78794">
        <ele>177</ele>
        <time>2012-09-28T11:36:01.397Z</time>
      </trkpt>
      <trkpt lat="45.60656" lon="4.78797">
        <ele>176</ele>
        <time>2012-09-28T11:36:03.797Z</time>
      </trkpt>
      <trkpt lat="45.60651" lon="4.78798">
        <ele>176</ele>
        <time>2012-09-28T11:36:06.797Z</time>
      </trkpt>
      <trkpt lat="45.60645" lon="4.78802">
        <ele>176</ele>
        <time>2012-09-28T11:36:11.057Z</time>
      </trkpt>
      <trkpt lat="45.6064" lon="4.78807">
        <ele>175</ele>
        <time>2012-09-28T11:36:14.057Z</time>
      </trkpt>
      <trkpt lat="45.60634" lon="4.78809">
        <ele>174</ele>
        <time>2012-09-28T11:36:17.057Z</time>
      </trkpt>
      <trkpt lat="45.60629" lon="4.7881">
        <ele>174</ele>
        <time>2012-09-28T11:36:20.057Z</time>
      </trkpt>
      <trkpt lat="45.60623" lon="4.78809">
        <ele>173</ele>
        <time>2012-09-28T11:36:23.057Z</time>
      </trkpt>
      <trkpt lat="45.60618" lon="4.78813">
        <ele>172</ele>
        <time>2012-09-28T11:36:26.057Z</time>
      </trkpt>
      <trkpt lat="45.60612" lon="4.7882">
        <ele>171</ele>
        <time>2012-09-28T11:36:29.057Z</time>
      </trkpt>
      <trkpt lat="45.60609" lon="4.78825">
        <ele>170</ele>
        <time>2012-09-28T11:36:31.057Z</time>
      </trkpt>
      <trkpt lat="45.60604" lon="4.7883">
        <ele>169</ele>
        <time>2012-09-28T11:36:33.057Z</time>
      </trkpt>
      <trkpt lat="45.60601" lon="4.78837">
        <ele>165</ele>
        <time>2012-09-28T11:36:35.080Z</time>
      </trkpt>
      <trkpt lat="45.606" lon="4.78847">
        <ele>166</ele>
        <time>2012-09-28T11:36:37.080Z</time>
      </trkpt>
      <trkpt lat="45.606" lon="4.78853">
        <ele>166</ele>
        <time>2012-09-28T11:36:38.211Z</time>
      </trkpt>
      <trkpt lat="45.60602" lon="4.78867">
        <ele>166</ele>
        <time>2012-09-28T11:36:40.211Z</time>
      </trkpt>
      <trkpt lat="45.60604" lon="4.78879">
        <ele>166</ele>
        <time>2012-09-28T11:36:41.791Z</time>
      </trkpt>
      <trkpt lat="45.60606" lon="4.78886">
        <ele>166</ele>
        <time>2012-09-28T11:36:42.791Z</time>
      </trkpt>
      <trkpt lat="45.60608" lon="4.78894">
        <ele>166</ele>
        <time>2012-09-28T11:36:43.791Z</time>
      </trkpt>
      <trkpt lat="45.6061" lon="4.78902">
        <ele>166</ele>
        <time>2012-09-28T11:36:44.791Z</time>
      </trkpt>
      <trkpt lat="45.60612" lon="4.7891">
        <ele>165</ele>
        <time>2012-09-28T11:36:45.791Z</time>
      </trkpt>
      <trkpt lat="45.60614" lon="4.78921">
        <ele>163</ele>
        <time>2012-09-28T11:36:47.080Z</time>
      </trkpt>
      <trkpt lat="45.60616" lon="4.7893">
        <ele>163</ele>
        <time>2012-09-28T11:36:48.079Z</time>
      </trkpt>
      <trkpt lat="45.60617" lon="4.78938">
        <ele>163</ele>
        <time>2012-09-28T11:36:49.080Z</time>
      </trkpt>
      <trkpt lat="45.60618" lon="4.78948">
        <ele>163</ele>
        <time>2012-09-28T11:36:50.211Z</time>
      </trkpt>
      <trkpt lat="45.60618" lon="4.78956">
        <ele>163</ele>
        <time>2012-09-28T11:36:51.211Z</time>
      </trkpt>
      <trkpt lat="45.60614" lon="4.78964">
        <ele>162</ele>
        <time>2012-09-28T11:36:52.211Z</time>
      </trkpt>
      <trkpt lat="45.60611" lon="4.78971">
        <ele>162</ele>
        <time>2012-09-28T11:36:53.211Z</time>
      </trkpt>
      <trkpt lat="45.60602" lon="4.78979">
        <ele>161</ele>
        <time>2012-09-28T11:36:55.082Z</time>
      </trkpt>
      <trkpt lat="45.60597" lon="4.78981">
        <ele>161</ele>
        <time>2012-09-28T11:36:56.081Z</time>
      </trkpt>
      <trkpt lat="45.60592" lon="4.78981">
        <ele>161</ele>
        <time>2012-09-28T11:36:57.082Z</time>
      </trkpt>
      <trkpt lat="45.60586" lon="4.7898">
        <ele>161</ele>
        <time>2012-09-28T11:36:58.211Z</time>
      </trkpt>
      <trkpt lat="45.60581" lon="4.7898">
        <ele>159</ele>
        <time>2012-09-28T11:36:59.211Z</time>
      </trkpt>
      <trkpt lat="45.60572" lon="4.78983">
        <ele>159</ele>
        <time>2012-09-28T11:37:01.211Z</time>
      </trkpt>
      <trkpt lat="45.60568" lon="4.78986">
        <ele>159</ele>
        <time>2012-09-28T11:37:02.211Z</time>
      </trkpt>
      <trkpt lat="45.60563" lon="4.78993">
        <ele>159</ele>
        <time>2012-09-28T11:37:04.097Z</time>
      </trkpt>
      <trkpt lat="45.60558" lon="4.79002">
        <ele>160</ele>
        <time>2012-09-28T11:37:06.088Z</time>
      </trkpt>
      <trkpt lat="45.60554" lon="4.79012">
        <ele>160</ele>
        <time>2012-09-28T11:37:08.091Z</time>
      </trkpt>
      <trkpt lat="45.60547" lon="4.79027">
        <ele>160</ele>
        <time>2012-09-28T11:37:11.081Z</time>
      </trkpt>
      <trkpt lat="45.60543" lon="4.79034">
        <ele>160</ele>
        <time>2012-09-28T11:37:12.559Z</time>
      </trkpt>
      <trkpt lat="45.6054" lon="4.79042">
        <ele>160</ele>
        <time>2012-09-28T11:37:14.099Z</time>
      </trkpt>
      <trkpt lat="45.60536" lon="4.79051">
        <ele>160</ele>
        <time>2012-09-28T11:37:16.091Z</time>
      </trkpt>
      <trkpt lat="45.60533" lon="4.79057">
        <ele>160</ele>
        <time>2012-09-28T11:37:17.094Z</time>
      </trkpt>
      <trkpt lat="45.60529" lon="4.79066">
        <ele>161</ele>
        <time>2012-09-28T11:37:19.096Z</time>
      </trkpt>
      <trkpt lat="45.60525" lon="4.79075">
        <ele>161</ele>
        <time>2012-09-28T11:37:21.099Z</time>
      </trkpt>
      <trkpt lat="45.6052" lon="4.79084">
        <ele>161</ele>
        <time>2012-09-28T11:37:23.091Z</time>
      </trkpt>
      <trkpt lat="45.60515" lon="4.79093">
        <ele>161</ele>
        <time>2012-09-28T11:37:25.233Z</time>
      </trkpt>
      <trkpt lat="45.60511" lon="4.79101">
        <ele>161</ele>
        <time>2012-09-28T11:37:27.233Z</time>
      </trkpt>
      <trkpt lat="45.60508" lon="4.79111">
        <ele>161</ele>
        <time>2012-09-28T11:37:29.233Z</time>
      </trkpt>
      <trkpt lat="45.60507" lon="4.79121">
        <ele>161</ele>
        <time>2012-09-28T11:37:31.233Z</time>
      </trkpt>
      <trkpt lat="45.60506" lon="4.79129">
        <ele>161</ele>
        <time>2012-09-28T11:37:32.662Z</time>
      </trkpt>
      <trkpt lat="45.60504" lon="4.79141">
        <ele>161</ele>
        <time>2012-09-28T11:37:34.791Z</time>
      </trkpt>
      <trkpt lat="45.60505" lon="4.7915">
        <ele>162</ele>
        <time>2012-09-28T11:37:35.720Z</time>
      </trkpt>
      <trkpt lat="45.60505" lon="4.79161">
        <ele>162</ele>
        <time>2012-09-28T11:37:37.094Z</time>
      </trkpt>
      <trkpt lat="45.60506" lon="4.79171">
        <ele>161</ele>
        <time>2012-09-28T11:37:38.240Z</time>
      </trkpt>
      <trkpt lat="45.60506" lon="4.79179">
        <ele>161</ele>
        <time>2012-09-28T11:37:39.240Z</time>
      </trkpt>
      <trkpt lat="45.60507" lon="4.79188">
        <ele>161</ele>
        <time>2012-09-28T11:37:40.240Z</time>
      </trkpt>
      <trkpt lat="45.6051" lon="4.79205">
        <ele>160</ele>
        <time>2012-09-28T11:37:42.093Z</time>
      </trkpt>
      <trkpt lat="45.60513" lon="4.79215">
        <ele>160</ele>
        <time>2012-09-28T11:37:43.267Z</time>
      </trkpt>
      <trkpt lat="45.60516" lon="4.7922">
        <ele>160</ele>
        <time>2012-09-28T11:37:44.267Z</time>
      </trkpt>
      <trkpt lat="45.60521" lon="4.79216">
        <ele>160</ele>
        <time>2012-09-28T11:37:44.712Z</time>
      </trkpt>
      <trkpt lat="45.60529" lon="4.79212">
        <ele>160</ele>
        <time>2012-09-28T11:37:46.090Z</time>
      </trkpt>
      <trkpt lat="45.60535" lon="4.79207">
        <ele>160</ele>
        <time>2012-09-28T11:37:47.093Z</time>
      </trkpt>
      <trkpt lat="45.60539" lon="4.792">
        <ele>160</ele>
        <time>2012-09-28T11:37:48.092Z</time>
      </trkpt>
      <trkpt lat="45.60544" lon="4.79192">
        <ele>160</ele>
        <time>2012-09-28T11:37:49.091Z</time>
      </trkpt>
      <trkpt lat="45.60549" lon="4.79185">
        <ele>160</ele>
        <time>2012-09-28T11:37:50.086Z</time>
      </trkpt>
      <trkpt lat="45.60553" lon="4.79177">
        <ele>160</ele>
        <time>2012-09-28T11:37:51.080Z</time>
      </trkpt>
      <trkpt lat="45.60558" lon="4.7917">
        <ele>160</ele>
        <time>2012-09-28T11:37:52.097Z</time>
      </trkpt>
      <trkpt lat="45.60561" lon="4.79164">
        <ele>161</ele>
        <time>2012-09-28T11:37:53.097Z</time>
      </trkpt>
      <trkpt lat="45.60564" lon="4.79157">
        <ele>161</ele>
        <time>2012-09-28T11:37:54.086Z</time>
      </trkpt>
      <trkpt lat="45.60567" lon="4.79151">
        <ele>161</ele>
        <time>2012-09-28T11:37:55.221Z</time>
      </trkpt>
      <trkpt lat="45.60564" lon="4.79145">
        <ele>161</ele>
        <time>2012-09-28T11:37:57.221Z</time>
      </trkpt>
      <trkpt lat="45.60562" lon="4.79139">
        <ele>161</ele>
        <time>2012-09-28T11:38:08.228Z</time>
      </trkpt>
    </trkseg>
  </trk>
</gpx>